Wetterdaten: Samstag, 27.10.2018
Datum Zeit Temp. A. Pool Temp. Temp. 5cm Feuchte A. Luftdruck Regen Wind Richtung Richtung Sonnenschein ET UV Solar Taupunkt Windchill Windben Empfang
27.10.2018 00:00 5,8 C 11,1 C 0,6 C 95 % 1005,8 hPa 0,0 l/m 2,7 km/h (1 Bft) S-SW 200 0 min 0,000 mm 0,0 UV-I 0 W/m 5,1 C 5,8 C 3,2 km/h (1 Bft) 97,87 %
27.10.2018 00:02 5,8 C 11,1 C 1,1 C 95 % 1005,8 hPa 0,0 l/m 3,3 km/h (1 Bft) S-SW 200 0 min 0,000 mm 0,0 UV-I 0 W/m 5,1 C 5,8 C 4,8 km/h (1 Bft) 100,00 %
27.10.2018 00:04 5,5 C 11,1 C 1,1 C 94 % 1005,7 hPa 0,0 l/m 2,6 km/h (1 Bft) S-SW 200 0 min 0,000 mm 0,0 UV-I 0 W/m 4,6 C 5,5 C 3,2 km/h (1 Bft) 100,00 %
27.10.2018 00:06 5,3 C 11,1 C 1,1 C 94 % 1005,8 hPa 0,0 l/m 2,1 km/h (1 Bft) S-SW 200 0 min 0,000 mm 0,0 UV-I 0 W/m 4,4 C 5,3 C 3,2 km/h (1 Bft) 97,87 %
27.10.2018 00:08 5,3 C 11,1 C 1,1 C 94 % 1005,8 hPa 0,0 l/m 2,1 km/h (1 Bft) S-SW 200 0 min 0,000 mm 0,0 UV-I 0 W/m 4,4 C 5,3 C 3,2 km/h (1 Bft) 93,62 %
27.10.2018 00:10 5,4 C 11,1 C 1,7 C 95 % 1005,7 hPa 0,0 l/m 2,5 km/h (1 Bft) S-SW 200 0 min 0,000 mm 0,0 UV-I 0 W/m 4,7 C 5,4 C 3,2 km/h (1 Bft) 95,74 %
27.10.2018 00:12 5,6 C 11,1 C 1,7 C 95 % 1005,7 hPa 0,0 l/m 2,4 km/h (1 Bft) S-SW 200 0 min 0,000 mm 0,0 UV-I 0 W/m 4,9 C 5,6 C 3,2 km/h (1 Bft) 95,74 %
27.10.2018 00:14 5,6 C 11,1 C 1,7 C 95 % 1005,6 hPa 0,0 l/m 2,1 km/h (1 Bft) S-SW 200 0 min 0,000 mm 0,0 UV-I 0 W/m 4,9 C 5,6 C 3,2 km/h (1 Bft) 96,00 %
27.10.2018 00:16 5,5 C 11,1 C 1,1 C 95 % 1005,5 hPa 0,0 l/m 1,3 km/h (1 Bft) S-SW 200 0 min 0,000 mm 0,0 UV-I 0 W/m 4,8 C 5,5 C 1,6 km/h (1 Bft) 93,62 %
27.10.2018 00:18 5,6 C 11,1 C 1,1 C 95 % 1005,5 hPa 0,0 l/m 0,2 km/h (0 Bft) S-SW 200 0 min 0,000 mm 0,0 UV-I 0 W/m 4,9 C 5,6 C 1,6 km/h (1 Bft) 95,83 %
27.10.2018 00:20 5,6 C 11,1 C 1,1 C 95 % 1005,6 hPa 0,0 l/m 0,0 km/h (0 Bft) S-SW 200 0 min 0,000 mm 0,0 UV-I 0 W/m 4,9 C 5,6 C 0,0 km/h (0 Bft) 95,74 %
27.10.2018 00:22 5,7 C 11,1 C 1,7 C 95 % 1005,7 hPa 0,0 l/m 1,0 km/h (0 Bft) S-SW 200 0 min 0,000 mm 0,0 UV-I 0 W/m 5,0 C 5,7 C 3,2 km/h (1 Bft) 96,15 %
27.10.2018 00:24 5,6 C 11,1 C 2,8 C 95 % 1005,6 hPa 0,0 l/m 2,8 km/h (1 Bft) S-SW 200 0 min 0,000 mm 0,0 UV-I 0 W/m 4,9 C 5,6 C 3,2 km/h (1 Bft) 95,83 %
27.10.2018 00:26 5,5 C 11,1 C 2,8 C 95 % 1005,6 hPa 0,0 l/m 2,0 km/h (1 Bft) S-SW 200 0 min 0,000 mm 0,0 UV-I 0 W/m 4,8 C 5,5 C 3,2 km/h (1 Bft) 97,87 %
27.10.2018 00:28 5,3 C 11,1 C 2,2 C 95 % 1005,6 hPa 0,0 l/m 3,1 km/h (1 Bft) S-SW 200 0 min 0,000 mm 0,0 UV-I 0 W/m 4,6 C 5,3 C 4,8 km/h (1 Bft) 95,74 %
27.10.2018 00:30 5,2 C 11,1 C 2,8 C 95 % 1005,6 hPa 0,0 l/m 3,1 km/h (1 Bft) S-SW 199 0 min 0,000 mm 0,0 UV-I 0 W/m 4,5 C 5,2 C 4,8 km/h (1 Bft) 100,00 %
27.10.2018 00:32 5,2 C 11,1 C 2,2 C 95 % 1005,6 hPa 0,0 l/m 3,6 km/h (1 Bft) S-SW 199 0 min 0,000 mm 0,0 UV-I 0 W/m 4,5 C 5,2 C 4,8 km/h (1 Bft) 97,87 %
27.10.2018 00:34 5,2 C 11,1 C 1,7 C 95 % 1005,6 hPa 0,0 l/m 2,9 km/h (1 Bft) S-SW 199 0 min 0,000 mm 0,0 UV-I 0 W/m 4,5 C 5,2 C 4,8 km/h (1 Bft) 96,00 %
27.10.2018 00:36 5,2 C 11,1 C 2,2 C 95 % 1005,6 hPa 0,0 l/m 1,8 km/h (1 Bft) S-SW 199 0 min 0,000 mm 0,0 UV-I 0 W/m 4,5 C 5,2 C 3,2 km/h (1 Bft) 97,87 %
27.10.2018 00:38 5,3 C 11,1 C 1,7 C 95 % 1005,6 hPa 0,0 l/m 1,0 km/h (0 Bft) S-SW 199 0 min 0,000 mm 0,0 UV-I 0 W/m 4,6 C 5,3 C 1,6 km/h (1 Bft) 97,87 %
27.10.2018 00:40 5,4 C 11,1 C 2,2 C 95 % 1005,7 hPa 0,0 l/m 1,0 km/h (0 Bft) S-SW 199 0 min 0,000 mm 0,0 UV-I 0 W/m 4,7 C 5,4 C 3,2 km/h (1 Bft) 95,74 %
27.10.2018 00:42 5,3 C 11,1 C 2,2 C 95 % 1005,7 hPa 0,0 l/m 0,0 km/h (0 Bft) S-SW 199 0 min 0,000 mm 0,0 UV-I 0 W/m 4,6 C 5,3 C 0,0 km/h (0 Bft) 97,87 %
27.10.2018 00:44 5,2 C 11,1 C 2,2 C 95 % 1005,8 hPa 0,0 l/m 1,2 km/h (1 Bft) S-SW 199 0 min 0,000 mm 0,0 UV-I 0 W/m 4,5 C 5,2 C 3,2 km/h (1 Bft) 97,87 %
27.10.2018 00:46 5,1 C 11,1 C 1,7 C 95 % 1005,7 hPa 0,0 l/m 1,1 km/h (1 Bft) S-SW 199 0 min 0,000 mm 0,0 UV-I 0 W/m 4,4 C 5,1 C 1,6 km/h (1 Bft) 93,62 %
27.10.2018 00:48 5,0 C 11,1 C 1,7 C 95 % 1005,7 hPa 0,0 l/m 0,1 km/h (0 Bft) S-SW 199 0 min 0,000 mm 0,0 UV-I 0 W/m 4,3 C 5,0 C 1,6 km/h (1 Bft) 95,74 %
27.10.2018 00:50 4,9 C 11,1 C 1,7 C 95 % 1005,6 hPa 0,0 l/m 0,4 km/h (0 Bft) S-SW 199 0 min 0,000 mm 0,0 UV-I 0 W/m 4,2 C 4,9 C 3,2 km/h (1 Bft) 91,49 %
27.10.2018 00:52 4,8 C 11,1 C 1,7 C 95 % 1005,5 hPa 0,0 l/m 2,5 km/h (1 Bft) S-SW 199 0 min 0,000 mm 0,0 UV-I 0 W/m 4,1 C 4,8 C 4,8 km/h (1 Bft) 95,74 %
27.10.2018 00:54 4,8 C 11,1 C 1,1 C 95 % 1005,6 hPa 0,0 l/m 2,8 km/h (1 Bft) S-SW 199 0 min 0,000 mm 0,0 UV-I 0 W/m 4,1 C 4,8 C 4,8 km/h (1 Bft) 97,87 %
27.10.2018 00:56 4,8 C 11,1 C 1,1 C 95 % 1005,6 hPa 0,0 l/m 2,2 km/h (1 Bft) S-SW 199 0 min 0,000 mm 0,0 UV-I 0 W/m 4,1 C 4,8 C 3,2 km/h (1 Bft) 97,87 %
27.10.2018 00:58 4,9 C 11,1 C 1,1 C 95 % 1005,6 hPa 0,0 l/m 2,1 km/h (1 Bft) S-SW 199 0 min 0,000 mm 0,0 UV-I 0 W/m 4,2 C 4,9 C 3,2 km/h (1 Bft) 100,00 %
27.10.2018 01:00 5,1 C 11,1 C 1,1 C 95 % 1005,6 hPa 0,0 l/m 2,6 km/h (1 Bft) S-SW 199 0 min 0,000 mm 0,0 UV-I 0 W/m 4,4 C 5,1 C 4,8 km/h (1 Bft) 97,87 %
27.10.2018 01:02 5,1 C 11,1 C 1,7 C 96 % 1005,6 hPa 0,0 l/m 3,1 km/h (1 Bft) S-SW 199 0 min 0,000 mm 0,0 UV-I 0 W/m 4,5 C 5,1 C 3,2 km/h (1 Bft) 100,00 %
27.10.2018 01:04 5,1 C 11,1 C 1,7 C 95 % 1005,6 hPa 0,0 l/m 2,8 km/h (1 Bft) S-SW 199 0 min 0,000 mm 0,0 UV-I 0 W/m 4,4 C 5,1 C 3,2 km/h (1 Bft) 100,00 %
27.10.2018 01:06 5,0 C 11,1 C 1,7 C 95 % 1005,6 hPa 0,0 l/m 3,8 km/h (1 Bft) S-SW 200 0 min 0,000 mm 0,0 UV-I 0 W/m 4,3 C 5,0 C 6,4 km/h (2 Bft) 98,00 %
27.10.2018 01:08 4,9 C 11,1 C 2,2 C 95 % 1005,6 hPa 0,0 l/m 3,7 km/h (1 Bft) S-SW 200 0 min 0,000 mm 0,0 UV-I 0 W/m 4,2 C 4,9 C 4,8 km/h (1 Bft) 100,00 %
27.10.2018 01:10 4,9 C 11,1 C 2,2 C 95 % 1005,6 hPa 0,0 l/m 3,7 km/h (1 Bft) S-SW 200 0 min 0,000 mm 0,0 UV-I 0 W/m 4,2 C 4,9 C 4,8 km/h (1 Bft) 100,00 %
27.10.2018 01:12 4,8 C 11,1 C 2,2 C 95 % 1005,6 hPa 0,0 l/m 3,6 km/h (1 Bft) S-SW 200 0 min 0,000 mm 0,0 UV-I 0 W/m 4,1 C 4,8 C 4,8 km/h (1 Bft) 100,00 %
27.10.2018 01:14 4,9 C 11,1 C 2,2 C 95 % 1005,6 hPa 0,0 l/m 3,9 km/h (1 Bft) S-SW 210 0 min 0,000 mm 0,0 UV-I 0 W/m 4,2 C 4,9 C 4,8 km/h (1 Bft) 93,62 %
27.10.2018 01:16 4,9 C 11,1 C 2,2 C 95 % 1005,7 hPa 0,0 l/m 5,3 km/h (1 Bft) S-SW 209 0 min 0,000 mm 0,0 UV-I 0 W/m 4,2 C 4,9 C 6,4 km/h (2 Bft) 97,87 %
27.10.2018 01:18 5,0 C 11,1 C 2,8 C 95 % 1005,6 hPa 0,0 l/m 4,8 km/h (1 Bft) S-SW 212 0 min 0,000 mm 0,0 UV-I 0 W/m 4,3 C 5,0 C 6,4 km/h (2 Bft) 95,74 %
27.10.2018 01:20 4,9 C 11,1 C 2,2 C 95 % 1005,6 hPa 0,0 l/m 1,9 km/h (1 Bft) S-SW 212 0 min 0,000 mm 0,0 UV-I 0 W/m 4,2 C 4,9 C 3,2 km/h (1 Bft) 94,74 %
27.10.2018 01:22 4,8 C 11,1 C 1,7 C 95 % 1005,5 hPa 0,0 l/m 1,1 km/h (1 Bft) S-SW 212 0 min 0,000 mm 0,0 UV-I 0 W/m 4,1 C 4,8 C 3,2 km/h (1 Bft) 95,74 %
27.10.2018 01:24 4,9 C 11,1 C 1,7 C 95 % 1005,6 hPa 0,0 l/m 2,3 km/h (1 Bft) S-SW 212 0 min 0,000 mm 0,0 UV-I 0 W/m 4,2 C 4,9 C 3,2 km/h (1 Bft) 93,62 %
27.10.2018 01:26 5,1 C 11,1 C 1,7 C 96 % 1005,6 hPa 0,0 l/m 2,4 km/h (1 Bft) S-SW 212 0 min 0,000 mm 0,0 UV-I 0 W/m 4,5 C 5,1 C 3,2 km/h (1 Bft) 93,62 %
27.10.2018 01:28 5,1 C 11,1 C 2,2 C 96 % 1005,6 hPa 0,0 l/m 3,9 km/h (1 Bft) S-SW 212 0 min 0,000 mm 0,0 UV-I 0 W/m 4,5 C 5,1 C 6,4 km/h (2 Bft) 95,74 %
27.10.2018 01:30 5,1 C 11,1 C 2,8 C 95 % 1005,6 hPa 0,0 l/m 4,8 km/h (1 Bft) S-SW 211 0 min 0,000 mm 0,0 UV-I 0 W/m 4,4 C 5,1 C 6,4 km/h (2 Bft) 95,74 %
27.10.2018 01:32 5,1 C 11,1 C 3,3 C 95 % 1005,6 hPa 0,0 l/m 4,3 km/h (1 Bft) S-SW 205 0 min 0,000 mm 0,0 UV-I 0 W/m 4,4 C 5,1 C 6,4 km/h (2 Bft) 94,00 %
27.10.2018 01:34 5,1 C 11,1 C 3,3 C 96 % 1005,6 hPa 0,0 l/m 5,0 km/h (1 Bft) SW 219 0 min 0,000 mm 0,0 UV-I 0 W/m 4,5 C 5,1 C 6,4 km/h (2 Bft) 98,00 %
27.10.2018 01:36 5,0 C 11,1 C 3,3 C 95 % 1005,6 hPa 0,0 l/m 5,1 km/h (1 Bft) SW 234 0 min 0,000 mm 0,0 UV-I 0 W/m 4,3 C 5,0 C 6,4 km/h (2 Bft) 93,62 %
27.10.2018 01:38 5,2 C 11,1 C 2,8 C 96 % 1005,6 hPa 0,0 l/m 3,8 km/h (1 Bft) SW 225 0 min 0,000 mm 0,0 UV-I 0 W/m 4,6 C 5,2 C 4,8 km/h (1 Bft) 97,87 %
27.10.2018 01:40 5,3 C 11,1 C 2,8 C 96 % 1005,5 hPa 0,0 l/m 3,7 km/h (1 Bft) SW 234 0 min 0,000 mm 0,0 UV-I 0 W/m 4,7 C 5,3 C 6,4 km/h (2 Bft) 97,92 %
27.10.2018 01:42 5,4 C 11,1 C 2,8 C 96 % 1005,5 hPa 0,0 l/m 2,5 km/h (1 Bft) SW 234 0 min 0,000 mm 0,0 UV-I 0 W/m 4,8 C 5,4 C 4,8 km/h (1 Bft) 95,74 %
27.10.2018 01:44 5,3 C 11,1 C 2,2 C 95 % 1005,4 hPa 0,0 l/m 2,3 km/h (1 Bft) SW 234 0 min 0,000 mm 0,0 UV-I 0 W/m 4,6 C 5,3 C 3,2 km/h (1 Bft) 95,74 %
27.10.2018 01:46 5,3 C 11,1 C 2,2 C 95 % 1005,4 hPa 0,0 l/m 2,3 km/h (1 Bft) SW 234 0 min 0,000 mm 0,0 UV-I 0 W/m 4,6 C 5,3 C 3,2 km/h (1 Bft) 97,87 %
27.10.2018 01:48 5,2 C 11,1 C 2,2 C 95 % 1005,4 hPa 0,0 l/m 1,2 km/h (1 Bft) SW 234 0 min 0,000 mm 0,0 UV-I 0 W/m 4,5 C 5,2 C 3,2 km/h (1 Bft) 97,87 %
27.10.2018 01:50 5,2 C 11,1 C 2,8 C 95 % 1005,4 hPa 0,0 l/m 3,2 km/h (1 Bft) SW 234 0 min 0,000 mm 0,0 UV-I 0 W/m 4,5 C 5,2 C 4,8 km/h (1 Bft) 97,37 %
27.10.2018 01:52 5,2 C 11,1 C 3,3 C 95 % 1005,3 hPa 0,0 l/m 4,8 km/h (1 Bft) SW 229 0 min 0,000 mm 0,0 UV-I 0 W/m 4,5 C 5,2 C 6,4 km/h (2 Bft) 93,62 %
27.10.2018 01:54 5,3 C 11,1 C 3,9 C 95 % 1005,4 hPa 0,0 l/m 5,1 km/h (1 Bft) S-SW 210 0 min 0,000 mm 0,0 UV-I 0 W/m 4,6 C 5,3 C 6,4 km/h (2 Bft) 95,74 %
27.10.2018 01:56 5,3 C 11,1 C 3,9 C 95 % 1005,3 hPa 0,0 l/m 6,1 km/h (2 Bft) SW 215 0 min 0,000 mm 0,0 UV-I 0 W/m 4,6 C 5,3 C 8,0 km/h (2 Bft) 97,87 %
27.10.2018 01:58 5,3 C 11,1 C 3,9 C 95 % 1005,2 hPa 0,0 l/m 5,3 km/h (1 Bft) S-SW 205 0 min 0,000 mm 0,0 UV-I 0 W/m 4,6 C 5,3 C 8,0 km/h (2 Bft) 97,87 %
27.10.2018 02:00 5,3 C 11,1 C 3,9 C 95 % 1005,2 hPa 0,0 l/m 5,5 km/h (1 Bft) SW 219 0 min 0,000 mm 0,0 UV-I 0 W/m 4,6 C 5,3 C 8,0 km/h (2 Bft) 95,74 %
27.10.2018 02:02 5,4 C 11,1 C 3,9 C 95 % 1005,3 hPa 0,0 l/m 5,0 km/h (1 Bft) S-SW 211 0 min 0,000 mm 0,0 UV-I 0 W/m 4,7 C 5,4 C 8,0 km/h (2 Bft) 97,87 %
27.10.2018 02:04 5,6 C 11,1 C 4,4 C 96 % 1005,4 hPa 0,0 l/m 6,5 km/h (2 Bft) SW 234 0 min 0,000 mm 0,0 UV-I 0 W/m 5,0 C 5,5 C 9,7 km/h (2 Bft) 98,00 %
27.10.2018 02:06 5,8 C 11,1 C 4,4 C 96 % 1005,4 hPa 0,0 l/m 6,4 km/h (2 Bft) SW 217 0 min 0,000 mm 0,0 UV-I 0 W/m 5,2 C 5,8 C 8,0 km/h (2 Bft) 95,74 %
27.10.2018 02:08 6,0 C 11,1 C 4,4 C 96 % 1005,3 hPa 0,0 l/m 6,2 km/h (2 Bft) S-SW 198 0 min 0,000 mm 0,0 UV-I 0 W/m 5,4 C 6,0 C 8,0 km/h (2 Bft) 95,74 %
27.10.2018 02:10 6,0 C 11,1 C 4,4 C 96 % 1005,3 hPa 0,0 l/m 5,1 km/h (1 Bft) W-SW 240 0 min 0,000 mm 0,0 UV-I 0 W/m 5,4 C 6,0 C 6,4 km/h (2 Bft) 95,83 %
27.10.2018 02:12 6,0 C 11,1 C 4,4 C 95 % 1005,3 hPa 0,0 l/m 6,0 km/h (2 Bft) W-SW 244 0 min 0,000 mm 0,0 UV-I 0 W/m 5,3 C 6,0 C 9,7 km/h (2 Bft) 100,00 %
27.10.2018 02:14 6,0 C 11,1 C 4,4 C 95 % 1005,2 hPa 0,0 l/m 5,8 km/h (2 Bft) SW 229 0 min 0,000 mm 0,0 UV-I 0 W/m 5,3 C 6,0 C 8,0 km/h (2 Bft) 100,00 %
27.10.2018 02:16 6,1 C 11,1 C 4,4 C 95 % 1005,3 hPa 0,0 l/m 4,5 km/h (1 Bft) SW 229 0 min 0,000 mm 0,0 UV-I 0 W/m 5,4 C 6,1 C 6,4 km/h (2 Bft) 97,92 %
27.10.2018 02:18 6,2 C 11,1 C 4,4 C 95 % 1005,2 hPa 0,0 l/m 4,7 km/h (1 Bft) S-SW 213 0 min 0,000 mm 0,0 UV-I 0 W/m 5,5 C 6,2 C 6,4 km/h (2 Bft) 100,00 %
27.10.2018 02:20 6,2 C 11,1 C 3,9 C 95 % 1005,2 hPa 0,0 l/m 3,2 km/h (1 Bft) SW 221 0 min 0,000 mm 0,0 UV-I 0 W/m 5,5 C 6,2 C 4,8 km/h (1 Bft) 97,87 %
27.10.2018 02:22 6,2 C 11,1 C 3,9 C 95 % 1005,3 hPa 0,0 l/m 2,5 km/h (1 Bft) SW 219 0 min 0,000 mm 0,0 UV-I 0 W/m 5,5 C 6,2 C 4,8 km/h (1 Bft) 97,87 %
27.10.2018 02:24 6,2 C 11,1 C 3,9 C 95 % 1005,4 hPa 0,0 l/m 3,6 km/h (1 Bft) SW 221 0 min 0,000 mm 0,0 UV-I 0 W/m 5,5 C 6,2 C 4,8 km/h (1 Bft) 100,00 %
27.10.2018 02:26 6,2 C 11,1 C 3,3 C 95 % 1005,4 hPa 0,0 l/m 2,2 km/h (1 Bft) SW 223 0 min 0,000 mm 0,0 UV-I 0 W/m 5,5 C 6,2 C 3,2 km/h (1 Bft) 95,74 %
27.10.2018 02:28 6,2 C 11,1 C 3,3 C 95 % 1005,4 hPa 0,0 l/m 1,7 km/h (1 Bft) SW 223 0 min 0,000 mm 0,0 UV-I 0 W/m 5,5 C 6,2 C 3,2 km/h (1 Bft) 100,00 %
27.10.2018 02:30 6,3 C 11,1 C 3,3 C 95 % 1005,4 hPa 0,0 l/m 1,4 km/h (1 Bft) SW 223 0 min 0,000 mm 0,0 UV-I 0 W/m 5,6 C 6,3 C 3,2 km/h (1 Bft) 97,87 %
27.10.2018 02:32 6,3 C 11,1 C 3,3 C 95 % 1005,5 hPa 0,0 l/m 0,9 km/h (0 Bft) SW 223 0 min 0,000 mm 0,0 UV-I 0 W/m 5,6 C 6,3 C 1,6 km/h (1 Bft) 100,00 %
27.10.2018 02:34 6,2 C 11,1 C 3,3 C 94 % 1005,6 hPa 0,0 l/m 0,0 km/h (0 Bft) SW 223 0 min 0,000 mm 0,0 UV-I 0 W/m 5,3 C 6,2 C 0,0 km/h (0 Bft) 97,87 %
27.10.2018 02:36 6,2 C 11,1 C 3,3 C 94 % 1005,5 hPa 0,0 l/m 0,0 km/h (0 Bft) SW 223 0 min 0,000 mm 0,0 UV-I 0 W/m 5,3 C 6,2 C 0,0 km/h (0 Bft) 97,87 %
27.10.2018 02:38 6,1 C 11,1 C 3,3 C 94 % 1005,5 hPa 0,0 l/m 0,9 km/h (0 Bft) SW 223 0 min 0,000 mm 0,0 UV-I 0 W/m 5,2 C 6,1 C 3,2 km/h (1 Bft) 97,87 %
27.10.2018 02:40 6,0 C 11,1 C 3,3 C 94 % 1005,6 hPa 0,0 l/m 2,9 km/h (1 Bft) SW 222 0 min 0,000 mm 0,0 UV-I 0 W/m 5,1 C 6,0 C 4,8 km/h (1 Bft) 95,74 %
27.10.2018 02:42 5,8 C 11,1 C 3,9 C 94 % 1005,6 hPa 0,0 l/m 4,3 km/h (1 Bft) S-SO 161 0 min 0,000 mm 0,0 UV-I 0 W/m 4,9 C 5,8 C 8,0 km/h (2 Bft) 96,00 %
27.10.2018 02:44 5,7 C 11,1 C 3,9 C 94 % 1005,6 hPa 0,0 l/m 4,5 km/h (1 Bft) S-SO 161 0 min 0,000 mm 0,0 UV-I 0 W/m 4,8 C 5,7 C 6,4 km/h (2 Bft) 93,62 %
27.10.2018 02:46 5,7 C 11,1 C 3,9 C 94 % 1005,6 hPa 0,0 l/m 6,4 km/h (2 Bft) S-SO 161 0 min 0,000 mm 0,0 UV-I 0 W/m 4,8 C 5,7 C 8,0 km/h (2 Bft) 92,00 %
27.10.2018 02:48 5,6 C 11,1 C 4,4 C 94 % 1005,6 hPa 0,0 l/m 7,6 km/h (2 Bft) S-SO 161 0 min 0,000 mm 0,0 UV-I 0 W/m 4,7 C 4,6 C 9,7 km/h (2 Bft) 93,62 %
27.10.2018 02:50 5,5 C 11,1 C 4,4 C 94 % 1005,6 hPa 0,0 l/m 5,5 km/h (1 Bft) S 176 0 min 0,000 mm 0,0 UV-I 0 W/m 4,6 C 5,5 C 8,0 km/h (2 Bft) 97,44 %
27.10.2018 02:52 5,6 C 11,1 C 3,9 C 94 % 1005,6 hPa 0,0 l/m 2,7 km/h (1 Bft) S 176 0 min 0,000 mm 0,0 UV-I 0 W/m 4,7 C 5,6 C 3,2 km/h (1 Bft) 91,49 %
27.10.2018 02:54 5,6 C 11,1 C 3,9 C 95 % 1005,6 hPa 0,0 l/m 4,2 km/h (1 Bft) S 182 0 min 0,000 mm 0,0 UV-I 0 W/m 4,9 C 5,6 C 4,8 km/h (1 Bft) 93,62 %
27.10.2018 02:56 5,6 C 11,1 C 3,9 C 95 % 1005,6 hPa 0,0 l/m 5,4 km/h (1 Bft) S 190 0 min 0,000 mm 0,0 UV-I 0 W/m 4,9 C 5,6 C 8,0 km/h (2 Bft) 95,74 %
27.10.2018 02:58 5,6 C 11,1 C 3,9 C 95 % 1005,6 hPa 0,0 l/m 6,0 km/h (2 Bft) S-SW 192 0 min 0,000 mm 0,0 UV-I 0 W/m 4,9 C 5,6 C 8,0 km/h (2 Bft) 97,87 %
27.10.2018 03:00 5,5 C 11,1 C 3,3 C 94 % 1005,6 hPa 0,0 l/m 4,7 km/h (1 Bft) S-SW 205 0 min 0,000 mm 0,0 UV-I 0 W/m 4,6 C 5,5 C 8,0 km/h (2 Bft) 97,87 %
27.10.2018 03:02 5,4 C 11,1 C 3,3 C 94 % 1005,7 hPa 0,0 l/m 4,8 km/h (1 Bft) S-SW 212 0 min 0,000 mm 0,0 UV-I 0 W/m 4,5 C 5,4 C 6,4 km/h (2 Bft) 98,08 %
27.10.2018 03:04 5,4 C 11,1 C 3,3 C 94 % 1005,8 hPa 0,0 l/m 5,5 km/h (1 Bft) SW 223 0 min 0,000 mm 0,0 UV-I 0 W/m 4,5 C 5,4 C 6,4 km/h (2 Bft) 96,00 %
27.10.2018 03:06 5,5 C 11,1 C 3,3 C 95 % 1005,7 hPa 0,0 l/m 5,7 km/h (1 Bft) S-SW 193 0 min 0,000 mm 0,0 UV-I 0 W/m 4,8 C 5,5 C 9,7 km/h (2 Bft) 95,74 %
27.10.2018 03:08 5,7 C 11,1 C 3,3 C 95 % 1005,7 hPa 0,0 l/m 6,8 km/h (2 Bft) SW 227 0 min 0,000 mm 0,0 UV-I 0 W/m 5,0 C 5,4 C 9,7 km/h (2 Bft) 95,74 %
27.10.2018 03:10 6,0 C 11,1 C 3,9 C 95 % 1005,7 hPa 0,0 l/m 6,9 km/h (2 Bft) SW 227 0 min 0,000 mm 0,0 UV-I 0 W/m 5,3 C 5,6 C 9,7 km/h (2 Bft) 94,74 %
27.10.2018 03:12 6,2 C 11,1 C 4,4 C 95 % 1005,7 hPa 0,0 l/m 6,2 km/h (2 Bft) SW 224 0 min 0,000 mm 0,0 UV-I 0 W/m 5,5 C 6,2 C 11,3 km/h (2 Bft) 95,74 %
27.10.2018 03:14 6,4 C 11,1 C 4,4 C 95 % 1005,7 hPa 0,0 l/m 7,8 km/h (2 Bft) SW 229 0 min 0,000 mm 0,0 UV-I 0 W/m 5,7 C 5,2 C 12,9 km/h (3 Bft) 97,87 %
27.10.2018 03:16 6,6 C 11,1 C 5,0 C 94 % 1005,8 hPa 0,0 l/m 8,6 km/h (2 Bft) SW 233 0 min 0,000 mm 0,0 UV-I 0 W/m 5,7 C 4,8 C 12,9 km/h (3 Bft) 100,00 %
27.10.2018 03:18 6,7 C 11,1 C 5,0 C 94 % 1005,8 hPa 0,0 l/m 10,4 km/h (2 Bft) W-SW 237 0 min 0,000 mm 0,0 UV-I 0 W/m 5,8 C 3,7 C 17,7 km/h (3 Bft) 97,87 %
27.10.2018 03:20 6,8 C 11,1 C 5,6 C 93 % 1005,8 hPa 0,0 l/m 11,3 km/h (2 Bft) W-SW 239 0 min 0,000 mm 0,0 UV-I 0 W/m 5,7 C 3,2 C 16,1 km/h (3 Bft) 97,87 %
27.10.2018 03:22 6,9 C 11,1 C 5,6 C 92 % 1005,9 hPa 0,0 l/m 10,0 km/h (2 Bft) W-SW 239 0 min 0,000 mm 0,0 UV-I 0 W/m 5,7 C 4,2 C 16,1 km/h (3 Bft) 95,74 %
27.10.2018 03:24 6,9 C 11,1 C 5,6 C 92 % 1005,8 hPa 0,0 l/m 8,7 km/h (2 Bft) W-SW 240 0 min 0,000 mm 0,0 UV-I 0 W/m 5,7 C 5,1 C 12,9 km/h (3 Bft) 100,00 %
27.10.2018 03:26 6,9 C 11,1 C 5,6 C 92 % 1005,8 hPa 0,0 l/m 9,5 km/h (2 Bft) W 274 0 min 0,000 mm 0,0 UV-I 0 W/m 5,7 C 4,5 C 14,5 km/h (3 Bft) 100,00 %
27.10.2018 03:28 6,9 C 11,1 C 5,6 C 92 % 1005,8 hPa 0,0 l/m 8,6 km/h (2 Bft) W-SW 252 0 min 0,000 mm 0,0 UV-I 0 W/m 5,7 C 5,1 C 12,9 km/h (3 Bft) 100,00 %
27.10.2018 03:30 6,9 C 11,1 C 5,6 C 92 % 1005,8 hPa 0,0 l/m 6,9 km/h (2 Bft) W 260 0 min 0,000 mm 0,0 UV-I 0 W/m 5,7 C 6,5 C 11,3 km/h (2 Bft) 100,00 %
27.10.2018 03:32 7,0 C 11,1 C 5,6 C 92 % 1005,7 hPa 0,0 l/m 8,4 km/h (2 Bft) W 267 0 min 0,000 mm 0,0 UV-I 0 W/m 5,8 C 5,4 C 17,7 km/h (3 Bft) 100,00 %
27.10.2018 03:34 7,1 C 11,1 C 5,6 C 91 % 1005,7 hPa 0,0 l/m 10,3 km/h (2 Bft) W 262 0 min 0,000 mm 0,0 UV-I 0 W/m 5,7 C 4,2 C 17,7 km/h (3 Bft) 100,00 %
27.10.2018 03:36 7,2 C 11,1 C 5,6 C 91 % 1005,8 hPa 0,0 l/m 9,8 km/h (2 Bft) W 263 0 min 0,000 mm 0,0 UV-I 0 W/m 5,8 C 4,6 C 14,5 km/h (3 Bft) 100,00 %
27.10.2018 03:38 7,2 C 11,1 C 5,6 C 91 % 1005,8 hPa 0,0 l/m 10,6 km/h (2 Bft) W-SW 254 0 min 0,000 mm 0,0 UV-I 0 W/m 5,8 C 4,1 C 14,5 km/h (3 Bft) 98,00 %
27.10.2018 03:40 7,3 C 11,1 C 6,1 C 91 % 1005,8 hPa 0,0 l/m 9,6 km/h (2 Bft) SW 233 0 min 0,000 mm 0,0 UV-I 0 W/m 5,9 C 4,9 C 16,1 km/h (3 Bft) 97,87 %
27.10.2018 03:42 7,3 C 11,1 C 6,1 C 91 % 1005,8 hPa 0,0 l/m 9,7 km/h (2 Bft) W 267 0 min 0,000 mm 0,0 UV-I 0 W/m 5,9 C 4,8 C 14,5 km/h (3 Bft) 97,87 %
27.10.2018 03:44 7,4 C 11,1 C 6,1 C 91 % 1005,8 hPa 0,0 l/m 10,7 km/h (2 Bft) W-SW 248 0 min 0,000 mm 0,0 UV-I 0 W/m 6,0 C 4,3 C 17,7 km/h (3 Bft) 97,87 %
27.10.2018 03:46 7,6 C 11,1 C 6,1 C 91 % 1005,8 hPa 0,0 l/m 11,9 km/h (2 Bft) W-SW 257 0 min 0,000 mm 0,0 UV-I 0 W/m 6,2 C 3,8 C 17,7 km/h (3 Bft) 100,00 %
27.10.2018 03:48 7,6 C 11,1 C 6,1 C 90 % 1005,7 hPa 0,0 l/m 7,4 km/h (2 Bft) W-SW 252 0 min 0,000 mm 0,0 UV-I 0 W/m 6,1 C 6,8 C 12,9 km/h (3 Bft) 97,96 %
27.10.2018 03:50 7,6 C 11,1 C 6,1 C 90 % 1005,8 hPa 0,0 l/m 7,9 km/h (2 Bft) W-SW 257 0 min 0,000 mm 0,0 UV-I 0 W/m 6,1 C 6,4 C 14,5 km/h (3 Bft) 97,37 %
27.10.2018 03:52 7,7 C 11,1 C 6,1 C 90 % 1005,8 hPa 0,0 l/m 10,9 km/h (2 Bft) W-SW 252 0 min 0,000 mm 0,0 UV-I 0 W/m 6,2 C 4,5 C 17,7 km/h (3 Bft) 97,87 %
27.10.2018 03:54 7,7 C 11,1 C 6,1 C 90 % 1005,8 hPa 0,0 l/m 9,1 km/h (2 Bft) W-SW 244 0 min 0,000 mm 0,0 UV-I 0 W/m 6,2 C 5,6 C 14,5 km/h (3 Bft) 95,74 %
27.10.2018 03:56 7,8 C 11,1 C 6,1 C 90 % 1005,8 hPa 0,0 l/m 10,2 km/h (2 Bft) W 264 0 min 0,000 mm 0,0 UV-I 0 W/m 6,3 C 5,0 C 14,5 km/h (3 Bft) 97,87 %
27.10.2018 03:58 7,8 C 11,1 C 6,1 C 90 % 1005,8 hPa 0,0 l/m 8,8 km/h (2 Bft) W-SW 249 0 min 0,000 mm 0,0 UV-I 0 W/m 6,3 C 6,0 C 12,9 km/h (3 Bft) 97,96 %
27.10.2018 04:00 7,8 C 11,1 C 6,1 C 90 % 1005,8 hPa 0,0 l/m 8,0 km/h (2 Bft) W 270 0 min 0,000 mm 0,0 UV-I 0 W/m 6,3 C 6,5 C 12,9 km/h (3 Bft) 93,62 %
27.10.2018 04:02 7,7 C 11,1 C 5,6 C 89 % 1005,7 hPa 0,0 l/m 8,4 km/h (2 Bft) W-SW 256 0 min 0,000 mm 0,0 UV-I 0 W/m 6,0 C 6,1 C 14,5 km/h (3 Bft) 96,15 %
27.10.2018 04:04 7,6 C 11,1 C 5,6 C 90 % 1005,7 hPa 0,0 l/m 9,9 km/h (2 Bft) SW 234 0 min 0,000 mm 0,0 UV-I 0 W/m 6,1 C 5,0 C 14,5 km/h (3 Bft) 95,74 %
27.10.2018 04:06 7,6 C 11,1 C 5,6 C 90 % 1005,7 hPa 0,0 l/m 12,1 km/h (2 Bft) W 265 0 min 0,000 mm 0,0 UV-I 0 W/m 6,1 C 3,7 C 17,7 km/h (3 Bft) 97,87 %
27.10.2018 04:08 7,6 C 11,1 C 5,6 C 90 % 1005,7 hPa 0,0 l/m 10,2 km/h (2 Bft) W 261 0 min 0,000 mm 0,0 UV-I 0 W/m 6,1 C 4,8 C 14,5 km/h (3 Bft) 93,62 %
27.10.2018 04:10 7,5 C 11,1 C 5,6 C 90 % 1005,7 hPa 0,0 l/m 13,0 km/h (3 Bft) W-SW 246 0 min 0,000 mm 0,0 UV-I 0 W/m 6,0 C 3,1 C 17,7 km/h (3 Bft) 97,44 %
27.10.2018 04:12 7,6 C 11,1 C 5,6 C 90 % 1005,7 hPa 0,0 l/m 10,1 km/h (2 Bft) W-SW 254 0 min 0,000 mm 0,0 UV-I 0 W/m 6,1 C 4,9 C 14,5 km/h (3 Bft) 100,00 %
27.10.2018 04:14 7,5 C 11,1 C 5,6 C 90 % 1005,7 hPa 0,0 l/m 11,4 km/h (2 Bft) W 259 0 min 0,000 mm 0,0 UV-I 0 W/m 6,0 C 4,0 C 14,5 km/h (3 Bft) 100,00 %
27.10.2018 04:16 7,5 C 11,1 C 5,6 C 90 % 1005,7 hPa 0,0 l/m 10,5 km/h (2 Bft) W 270 0 min 0,000 mm 0,0 UV-I 0 W/m 6,0 C 4,5 C 12,9 km/h (3 Bft) 100,00 %
27.10.2018 04:18 7,4 C 11,1 C 5,6 C 90 % 1005,7 hPa 0,0 l/m 11,5 km/h (2 Bft) W 280 0 min 0,000 mm 0,0 UV-I 0 W/m 5,9 C 3,8 C 16,1 km/h (3 Bft) 100,00 %
27.10.2018 04:20 7,4 C 11,1 C 5,6 C 90 % 1005,7 hPa 0,0 l/m 11,6 km/h (2 Bft) W 268 0 min 0,000 mm 0,0 UV-I 0 W/m 5,9 C 3,7 C 14,5 km/h (3 Bft) 100,00 %
27.10.2018 04:22 7,4 C 11,1 C 5,6 C 90 % 1005,7 hPa 0,0 l/m 11,9 km/h (2 Bft) W 278 0 min 0,000 mm 0,0 UV-I 0 W/m 5,9 C 3,6 C 17,7 km/h (3 Bft) 100,00 %
27.10.2018 04:24 7,5 C 11,1 C 5,6 C 90 % 1005,7 hPa 0,0 l/m 9,1 km/h (2 Bft) W 262 0 min 0,000 mm 0,0 UV-I 0 W/m 6,0 C 5,4 C 12,9 km/h (3 Bft) 98,00 %
27.10.2018 04:26 7,5 C 11,1 C 5,6 C 90 % 1005,6 hPa 0,0 l/m 9,0 km/h (2 Bft) W 265 0 min 0,000 mm 0,0 UV-I 0 W/m 6,0 C 5,5 C 12,9 km/h (3 Bft) 100,00 %
27.10.2018 04:28 7,5 C 11,1 C 5,6 C 90 % 1005,7 hPa 0,0 l/m 8,6 km/h (2 Bft) W-SW 254 0 min 0,000 mm 0,0 UV-I 0 W/m 6,0 C 5,8 C 14,5 km/h (3 Bft) 100,00 %
27.10.2018 04:30 7,4 C 11,1 C 5,6 C 90 % 1005,7 hPa 0,0 l/m 9,5 km/h (2 Bft) W-SW 248 0 min 0,000 mm 0,0 UV-I 0 W/m 5,9 C 5,1 C 12,9 km/h (3 Bft) 100,00 %
27.10.2018 04:32 7,4 C 11,1 C 5,6 C 90 % 1005,7 hPa 0,0 l/m 7,7 km/h (2 Bft) W 261 0 min 0,000 mm 0,0 UV-I 0 W/m 5,9 C 6,4 C 11,3 km/h (2 Bft) 100,00 %
27.10.2018 04:34 7,4 C 11,1 C 5,6 C 90 % 1005,8 hPa 0,0 l/m 7,2 km/h (2 Bft) W-SW 244 0 min 0,000 mm 0,0 UV-I 0 W/m 5,9 C 6,8 C 11,3 km/h (2 Bft) 100,00 %
27.10.2018 04:36 7,4 C 11,1 C 5,6 C 90 % 1005,8 hPa 0,0 l/m 6,8 km/h (2 Bft) SW 225 0 min 0,000 mm 0,0 UV-I 0 W/m 5,9 C 7,1 C 11,3 km/h (2 Bft) 100,00 %
27.10.2018 04:38 7,4 C 11,1 C 5,6 C 90 % 1005,9 hPa 0,0 l/m 6,8 km/h (2 Bft) W 260 0 min 0,000 mm 0,0 UV-I 0 W/m 5,9 C 7,1 C 9,7 km/h (2 Bft) 98,00 %
27.10.2018 04:40 7,3 C 11,1 C 5,6 C 90 % 1005,9 hPa 0,0 l/m 9,1 km/h (2 Bft) W 259 0 min 0,000 mm 0,0 UV-I 0 W/m 5,8 C 5,2 C 12,9 km/h (3 Bft) 97,37 %
27.10.2018 04:42 7,4 C 11,1 C 5,6 C 90 % 1005,9 hPa 0,0 l/m 11,0 km/h (2 Bft) W 268 0 min 0,000 mm 0,0 UV-I 0 W/m 5,9 C 4,1 C 12,9 km/h (3 Bft) 100,00 %
27.10.2018 04:44 7,4 C 11,1 C 5,6 C 90 % 1006,0 hPa 0,0 l/m 7,3 km/h (2 Bft) W 279 0 min 0,000 mm 0,0 UV-I 0 W/m 5,9 C 6,7 C 12,9 km/h (3 Bft) 97,87 %
27.10.2018 04:46 7,4 C 11,1 C 5,6 C 90 % 1006,1 hPa 0,0 l/m 8,9 km/h (2 Bft) W 271 0 min 0,000 mm 0,0 UV-I 0 W/m 5,9 C 5,5 C 12,9 km/h (3 Bft) 100,00 %
27.10.2018 04:48 7,5 C 11,1 C 5,6 C 90 % 1006,2 hPa 0,0 l/m 8,6 km/h (2 Bft) W 270 0 min 0,000 mm 0,0 UV-I 0 W/m 6,0 C 5,8 C 11,3 km/h (2 Bft) 97,87 %
27.10.2018 04:50 7,5 C 11,1 C 5,6 C 90 % 1006,1 hPa 0,0 l/m 5,0 km/h (1 Bft) W 264 0 min 0,000 mm 0,0 UV-I 0 W/m 6,0 C 7,5 C 9,7 km/h (2 Bft) 96,00 %
27.10.2018 04:52 7,5 C 11,1 C 5,6 C 89 % 1006,2 hPa 0,0 l/m 4,3 km/h (1 Bft) W 263 0 min 0,000 mm 0,0 UV-I 0 W/m 5,8 C 7,5 C 6,4 km/h (2 Bft) 93,62 %
27.10.2018 04:54 7,4 C 11,1 C 5,6 C 90 % 1006,2 hPa 0,0 l/m 3,6 km/h (1 Bft) W 262 0 min 0,000 mm 0,0 UV-I 0 W/m 5,9 C 7,4 C 6,4 km/h (2 Bft) 93,62 %
27.10.2018 04:56 7,4 C 11,1 C 5,6 C 90 % 1006,2 hPa 0,0 l/m 4,7 km/h (1 Bft) W-SW 250 0 min 0,000 mm 0,0 UV-I 0 W/m 5,9 C 7,4 C 8,0 km/h (2 Bft) 94,00 %
27.10.2018 04:58 7,4 C 11,1 C 5,6 C 89 % 1006,2 hPa 0,0 l/m 5,1 km/h (1 Bft) SW 236 0 min 0,000 mm 0,0 UV-I 0 W/m 5,7 C 7,4 C 6,4 km/h (2 Bft) 95,74 %
27.10.2018 05:00 7,4 C 11,1 C 5,6 C 89 % 1006,3 hPa 0,0 l/m 6,7 km/h (2 Bft) SW 227 0 min 0,000 mm 0,0 UV-I 0 W/m 5,7 C 7,2 C 11,3 km/h (2 Bft) 95,74 %
27.10.2018 05:02 7,4 C 11,1 C 5,6 C 89 % 1006,3 hPa 0,0 l/m 7,6 km/h (2 Bft) W-SW 250 0 min 0,000 mm 0,0 UV-I 0 W/m 5,7 C 6,4 C 11,3 km/h (2 Bft) 95,74 %
27.10.2018 05:04 7,4 C 11,1 C 6,1 C 89 % 1006,4 hPa 0,0 l/m 8,4 km/h (2 Bft) SW 232 0 min 0,000 mm 0,0 UV-I 0 W/m 5,7 C 5,8 C 11,3 km/h (2 Bft) 95,74 %
27.10.2018 05:06 7,4 C 11,1 C 6,1 C 89 % 1006,2 hPa 0,0 l/m 9,1 km/h (2 Bft) W-SW 256 0 min 0,000 mm 0,0 UV-I 0 W/m 5,7 C 5,3 C 12,9 km/h (3 Bft) 91,49 %
27.10.2018 05:08 7,3 C 11,1 C 6,1 C 89 % 1006,1 hPa 0,0 l/m 9,0 km/h (2 Bft) SW 229 0 min 0,000 mm 0,0 UV-I 0 W/m 5,6 C 5,3 C 12,9 km/h (3 Bft) 91,49 %
27.10.2018 05:10 7,2 C 11,1 C 6,1 C 90 % 1006,1 hPa 0,0 l/m 8,0 km/h (2 Bft) W-SW 238 0 min 0,000 mm 0,0 UV-I 0 W/m 5,7 C 5,9 C 12,9 km/h (3 Bft) 92,11 %
27.10.2018 05:12 7,2 C 11,1 C 6,1 C 90 % 1006,0 hPa 0,0 l/m 8,9 km/h (2 Bft) SW 235 0 min 0,000 mm 0,0 UV-I 0 W/m 5,7 C 5,2 C 12,9 km/h (3 Bft) 93,62 %
27.10.2018 05:14 7,2 C 11,1 C 6,1 C 90 % 1006,1 hPa 0,0 l/m 8,7 km/h (2 Bft) W-SW 243 0 min 0,000 mm 0,0 UV-I 0 W/m 5,7 C 5,4 C 12,9 km/h (3 Bft) 92,00 %
27.10.2018 05:16 7,2 C 11,1 C 6,1 C 90 % 1006,1 hPa 0,0 l/m 9,2 km/h (2 Bft) W-SW 247 0 min 0,000 mm 0,0 UV-I 0 W/m 5,7 C 5,0 C 14,5 km/h (3 Bft) 91,49 %
27.10.2018 05:18 7,1 C 11,1 C 6,1 C 90 % 1006,1 hPa 0,0 l/m 7,9 km/h (2 Bft) SW 225 0 min 0,000 mm 0,0 UV-I 0 W/m 5,6 C 5,9 C 14,5 km/h (3 Bft) 93,62 %
27.10.2018 05:20 7,1 C 11,1 C 6,1 C 90 % 1006,2 hPa 0,0 l/m 7,6 km/h (2 Bft) W-SW 237 0 min 0,000 mm 0,0 UV-I 0 W/m 5,6 C 6,1 C 12,9 km/h (3 Bft) 93,62 %
27.10.2018 05:22 7,1 C 10,6 C 6,1 C 90 % 1006,3 hPa 0,0 l/m 9,0 km/h (2 Bft) W-SW 243 0 min 0,000 mm 0,0 UV-I 0 W/m 5,6 C 5,1 C 14,5 km/h (3 Bft) 94,00 %
27.10.2018 05:24 7,2 C 10,6 C 6,1 C 90 % 1006,4 hPa 0,0 l/m 9,3 km/h (2 Bft) W-SW 253 0 min 0,000 mm 0,0 UV-I 0 W/m 5,7 C 5,0 C 14,5 km/h (3 Bft) 92,31 %
27.10.2018 05:26 7,2 C 10,6 C 6,1 C 90 % 1006,4 hPa 0,0 l/m 7,1 km/h (2 Bft) W-SW 239 0 min 0,000 mm 0,0 UV-I 0 W/m 5,7 C 6,6 C 11,3 km/h (2 Bft) 91,49 %
27.10.2018 05:28 7,2 C 10,6 C 6,1 C 90 % 1006,4 hPa 0,0 l/m 7,5 km/h (2 Bft) SW 224 0 min 0,000 mm 0,0 UV-I 0 W/m 5,7 C 6,3 C 11,3 km/h (2 Bft) 93,62 %
27.10.2018 05:30 7,3 C 10,6 C 6,1 C 89 % 1006,6 hPa 0,0 l/m 7,4 km/h (2 Bft) SW 227 0 min 0,000 mm 0,0 UV-I 0 W/m 5,6 C 6,5 C 11,3 km/h (2 Bft) 95,74 %
27.10.2018 05:32 7,3 C 10,6 C 6,1 C 89 % 1006,5 hPa 0,0 l/m 8,7 km/h (2 Bft) W-SW 240 0 min 0,000 mm 0,0 UV-I 0 W/m 5,6 C 5,5 C 14,5 km/h (3 Bft) 97,87 %
27.10.2018 05:34 7,3 C 11,1 C 6,1 C 89 % 1006,5 hPa 0,0 l/m 9,7 km/h (2 Bft) SW 214 0 min 0,000 mm 0,0 UV-I 0 W/m 5,6 C 4,8 C 12,9 km/h (3 Bft) 97,87 %
27.10.2018 05:36 7,3 C 10,6 C 6,1 C 89 % 1006,6 hPa 0,0 l/m 8,4 km/h (2 Bft) W-SW 242 0 min 0,000 mm 0,0 UV-I 0 W/m 5,6 C 5,7 C 14,5 km/h (3 Bft) 97,87 %
27.10.2018 05:38 7,4 C 11,1 C 6,1 C 89 % 1006,6 hPa 0,0 l/m 7,4 km/h (2 Bft) W-SW 257 0 min 0,000 mm 0,0 UV-I 0 W/m 5,7 C 6,6 C 11,3 km/h (2 Bft) 97,87 %
27.10.2018 05:40 7,4 C 10,6 C 6,1 C 89 % 1006,6 hPa 0,0 l/m 8,9 km/h (2 Bft) W-SW 255 0 min 0,000 mm 0,0 UV-I 0 W/m 5,7 C 5,5 C 12,9 km/h (3 Bft) 94,64 %
27.10.2018 05:42 7,4 C 10,6 C 6,1 C 89 % 1006,7 hPa 0,0 l/m 7,1 km/h (2 Bft) W 264 0 min 0,000 mm 0,0 UV-I 0 W/m 5,7 C 6,8 C 11,3 km/h (2 Bft) 97,87 %
27.10.2018 05:44 7,4 C 10,6 C 6,7 C 89 % 1006,7 hPa 0,0 l/m 10,5 km/h (2 Bft) W-SW 258 0 min 0,000 mm 0,0 UV-I 0 W/m 5,7 C 4,4 C 16,1 km/h (3 Bft) 97,87 %
27.10.2018 05:46 7,6 C 10,6 C 6,7 C 89 % 1006,6 hPa 0,0 l/m 8,3 km/h (2 Bft) W 269 0 min 0,000 mm 0,0 UV-I 0 W/m 5,9 C 6,1 C 12,9 km/h (3 Bft) 97,87 %
27.10.2018 05:48 7,6 C 10,6 C 6,7 C 89 % 1006,6 hPa 0,0 l/m 12,4 km/h (3 Bft) W 271 0 min 0,000 mm 0,0 UV-I 0 W/m 5,9 C 3,5 C 17,7 km/h (3 Bft) 94,29 %
27.10.2018 05:50 7,7 C 10,6 C 6,7 C 88 % 1006,6 hPa 0,0 l/m 11,7 km/h (2 Bft) W 259 0 min 0,000 mm 0,0 UV-I 0 W/m 5,8 C 4,0 C 19,3 km/h (3 Bft) 100,00 %
27.10.2018 05:52 7,7 C 10,6 C 6,7 C 88 % 1006,7 hPa 0,0 l/m 9,3 km/h (2 Bft) W-SW 244 0 min 0,000 mm 0,0 UV-I 0 W/m 5,8 C 5,5 C 17,7 km/h (3 Bft) 100,00 %
27.10.2018 05:54 7,7 C 10,6 C 6,7 C 88 % 1006,7 hPa 0,0 l/m 12,7 km/h (3 Bft) W-SW 240 0 min 0,000 mm 0,0 UV-I 0 W/m 5,8 C 3,5 C 20,9 km/h (4 Bft) 100,00 %
27.10.2018 05:56 7,7 C 10,6 C 6,7 C 88 % 1006,9 hPa 0,0 l/m 12,1 km/h (2 Bft) W-SW 250 0 min 0,000 mm 0,0 UV-I 0 W/m 5,8 C 3,8 C 17,7 km/h (3 Bft) 100,00 %
27.10.2018 05:58 7,8 C 11,1 C 6,7 C 88 % 1006,8 hPa 0,0 l/m 9,4 km/h (2 Bft) W-SW 257 0 min 0,000 mm 0,0 UV-I 0 W/m 5,9 C 5,6 C 17,7 km/h (3 Bft) 97,87 %
27.10.2018 06:00 7,8 C 11,1 C 6,7 C 88 % 1006,8 hPa 0,0 l/m 9,2 km/h (2 Bft) W 278 0 min 0,000 mm 0,0 UV-I 0 W/m 5,9 C 5,7 C 16,1 km/h (3 Bft) 100,00 %
27.10.2018 06:02 7,8 C 10,6 C 6,7 C 88 % 1006,8 hPa 0,0 l/m 8,2 km/h (2 Bft) W-SW 239 0 min 0,000 mm 0,0 UV-I 0 W/m 5,9 C 6,4 C 12,9 km/h (3 Bft) 97,92 %
27.10.2018 06:04 7,7 C 10,6 C 6,7 C 88 % 1006,7 hPa 0,0 l/m 8,6 km/h (2 Bft) W-SW 244 0 min 0,000 mm 0,0 UV-I 0 W/m 5,8 C 6,0 C 14,5 km/h (3 Bft) 100,00 %
27.10.2018 06:06 7,8 C 10,6 C 6,7 C 88 % 1006,8 hPa 0,0 l/m 12,1 km/h (2 Bft) SW 230 0 min 0,000 mm 0,0 UV-I 0 W/m 5,9 C 3,9 C 17,7 km/h (3 Bft) 100,00 %
27.10.2018 06:08 7,8 C 10,6 C 6,7 C 88 % 1006,8 hPa 0,0 l/m 12,2 km/h (2 Bft) SW 232 0 min 0,000 mm 0,0 UV-I 0 W/m 5,9 C 3,9 C 17,7 km/h (3 Bft) 97,87 %
27.10.2018 06:10 7,8 C 10,6 C 6,7 C 88 % 1006,8 hPa 0,0 l/m 12,6 km/h (3 Bft) W-SW 242 0 min 0,000 mm 0,0 UV-I 0 W/m 5,9 C 3,7 C 19,3 km/h (3 Bft) 97,87 %
27.10.2018 06:12 7,8 C 10,6 C 6,7 C 87 % 1006,7 hPa 0,0 l/m 13,1 km/h (3 Bft) SW 231 0 min 0,000 mm 0,0 UV-I 0 W/m 5,8 C 3,4 C 19,3 km/h (3 Bft) 100,00 %
27.10.2018 06:14 7,8 C 10,6 C 6,7 C 87 % 1006,7 hPa 0,0 l/m 9,6 km/h (2 Bft) W-SW 244 0 min 0,000 mm 0,0 UV-I 0 W/m 5,8 C 5,4 C 17,7 km/h (3 Bft) 100,00 %
27.10.2018 06:16 7,8 C 10,6 C 6,7 C 87 % 1006,7 hPa 0,0 l/m 8,4 km/h (2 Bft) W 275 0 min 0,000 mm 0,0 UV-I 0 W/m 5,8 C 6,2 C 11,3 km/h (2 Bft) 97,87 %
27.10.2018 06:18 7,8 C 10,6 C 6,7 C 87 % 1006,7 hPa 0,0 l/m 9,2 km/h (2 Bft) W-SW 242 0 min 0,000 mm 0,0 UV-I 0 W/m 5,8 C 5,7 C 16,1 km/h (3 Bft) 97,87 %
27.10.2018 06:20 7,8 C 10,6 C 6,7 C 88 % 1006,7 hPa 0,0 l/m 9,3 km/h (2 Bft) W 275 0 min 0,000 mm 0,0 UV-I 0 W/m 5,9 C 5,6 C 12,9 km/h (3 Bft) 98,00 %
27.10.2018 06:22 7,8 C 10,6 C 6,7 C 87 % 1006,8 hPa 0,0 l/m 6,9 km/h (2 Bft) W-SW 246 0 min 0,000 mm 0,0 UV-I 0 W/m 5,8 C 7,4 C 11,3 km/h (2 Bft) 100,00 %
27.10.2018 06:24 7,8 C 10,6 C 6,7 C 87 % 1006,8 hPa 0,0 l/m 8,9 km/h (2 Bft) SW 229 0 min 0,000 mm 0,0 UV-I 0 W/m 5,8 C 5,9 C 16,1 km/h (3 Bft) 97,87 %
27.10.2018 06:26 7,8 C 10,6 C 6,7 C 87 % 1006,8 hPa 0,0 l/m 10,1 km/h (2 Bft) SW 230 0 min 0,000 mm 0,0 UV-I 0 W/m 5,8 C 5,1 C 14,5 km/h (3 Bft) 97,87 %
27.10.2018 06:28 7,8 C 10,6 C 6,7 C 87 % 1006,8 hPa 0,0 l/m 7,4 km/h (2 Bft) SW 227 0 min 0,000 mm 0,0 UV-I 0 W/m 5,8 C 7,0 C 11,3 km/h (2 Bft) 95,74 %
27.10.2018 06:30 7,8 C 10,6 C 6,7 C 87 % 1006,7 hPa 0,0 l/m 7,8 km/h (2 Bft) SW 229 0 min 0,000 mm 0,0 UV-I 0 W/m 5,8 C 6,7 C 11,3 km/h (2 Bft) 97,87 %
27.10.2018 06:32 7,8 C 10,6 C 6,7 C 87 % 1006,7 hPa 0,0 l/m 5,9 km/h (2 Bft) W-SW 237 0 min 0,000 mm 0,0 UV-I 0 W/m 5,8 C 7,8 C 11,3 km/h (2 Bft) 97,37 %
27.10.2018 06:34 7,8 C 10,6 C 6,7 C 87 % 1006,7 hPa 0,0 l/m 7,7 km/h (2 Bft) W-SW 244 0 min 0,000 mm 0,0 UV-I 0 W/m 5,8 C 6,8 C 12,9 km/h (3 Bft) 98,00 %
27.10.2018 06:36 7,8 C 10,6 C 6,7 C 88 % 1006,7 hPa 0,0 l/m 7,9 km/h (2 Bft) S 190 0 min 0,000 mm 0,0 UV-I 0 W/m 5,9 C 6,6 C 12,9 km/h (3 Bft) 98,00 %
27.10.2018 06:38 7,7 C 10,6 C 6,7 C 88 % 1006,6 hPa 0,0 l/m 7,4 km/h (2 Bft) SW 235 0 min 0,000 mm 0,0 UV-I 0 W/m 5,8 C 6,9 C 11,3 km/h (2 Bft) 97,87 %
27.10.2018 06:40 7,7 C 10,6 C 6,7 C 88 % 1006,7 hPa 0,0 l/m 6,6 km/h (2 Bft) SW 220 0 min 0,000 mm 0,0 UV-I 0 W/m 5,8 C 7,6 C 11,3 km/h (2 Bft) 95,74 %
27.10.2018 06:42 7,7 C 10,6 C 6,7 C 88 % 1006,7 hPa 0,0 l/m 5,8 km/h (2 Bft) SW 223 0 min 0,000 mm 0,0 UV-I 0 W/m 5,8 C 7,7 C 9,7 km/h (2 Bft) 97,87 %
27.10.2018 06:44 7,7 C 10,6 C 6,7 C 88 % 1006,7 hPa 0,0 l/m 5,0 km/h (1 Bft) S-SW 211 0 min 0,000 mm 0,0 UV-I 0 W/m 5,8 C 7,7 C 8,0 km/h (2 Bft) 93,62 %
27.10.2018 06:46 7,7 C 10,6 C 6,7 C 88 % 1006,7 hPa 0,0 l/m 5,4 km/h (1 Bft) SW 236 0 min 0,000 mm 0,0 UV-I 0 W/m 5,8 C 7,7 C 8,0 km/h (2 Bft) 97,92 %
27.10.2018 06:48 7,7 C 10,6 C 6,7 C 88 % 1006,8 hPa 0,0 l/m 5,8 km/h (2 Bft) W 261 0 min 0,000 mm 0,0 UV-I 0 W/m 5,8 C 7,7 C 11,3 km/h (2 Bft) 100,00 %
27.10.2018 06:50 7,7 C 10,6 C 6,7 C 88 % 1006,8 hPa 0,0 l/m 4,7 km/h (1 Bft) SW 227 0 min 0,000 mm 0,0 UV-I 0 W/m 5,8 C 7,7 C 8,0 km/h (2 Bft) 97,56 %
27.10.2018 06:52 7,7 C 10,6 C 6,7 C 88 % 1006,8 hPa 0,0 l/m 4,7 km/h (1 Bft) W-SW 252 0 min 0,000 mm 0,0 UV-I 0 W/m 5,8 C 7,7 C 8,0 km/h (2 Bft) 100,00 %
27.10.2018 06:54 7,7 C 10,6 C 6,7 C 88 % 1006,8 hPa 0,0 l/m 4,7 km/h (1 Bft) SW 217 0 min 0,000 mm 0,0 UV-I 0 W/m 5,8 C 7,7 C 8,0 km/h (2 Bft) 100,00 %
27.10.2018 06:56 7,7 C 10,6 C 6,7 C 88 % 1006,8 hPa 0,0 l/m 5,8 km/h (2 Bft) W-SW 238 0 min 0,000 mm 0,0 UV-I 0 W/m 5,8 C 7,7 C 9,7 km/h (2 Bft) 97,87 %
27.10.2018 06:58 7,7 C 10,6 C 6,7 C 89 % 1006,8 hPa 0,0 l/m 6,1 km/h (2 Bft) W-SW 252 0 min 0,000 mm 0,0 UV-I 0 W/m 6,0 C 7,7 C 9,7 km/h (2 Bft) 98,00 %
27.10.2018 07:00 7,7 C 10,6 C 6,7 C 89 % 1006,9 hPa 0,0 l/m 5,1 km/h (1 Bft) W-SW 240 0 min 0,000 mm 0,0 UV-I 0 W/m 6,0 C 7,7 C 6,4 km/h (2 Bft) 100,00 %
27.10.2018 07:02 7,7 C 10,6 C 6,7 C 89 % 1006,9 hPa 0,0 l/m 5,0 km/h (1 Bft) SW 236 0 min 0,000 mm 0,0 UV-I 0 W/m 6,0 C 7,7 C 8,0 km/h (2 Bft) 97,87 %
27.10.2018 07:04 7,7 C 10,6 C 6,7 C 89 % 1006,8 hPa 0,0 l/m 5,9 km/h (2 Bft) S-SW 209 0 min 0,000 mm 0,0 UV-I 0 W/m 6,0 C 7,7 C 9,7 km/h (2 Bft) 97,87 %
27.10.2018 07:06 7,7 C 10,6 C 6,7 C 88 % 1006,8 hPa 0,0 l/m 5,6 km/h (1 Bft) SW 223 0 min 0,000 mm 0,0 UV-I 0 W/m 5,8 C 7,7 C 8,0 km/h (2 Bft) 95,74 %
27.10.2018 07:08 7,7 C 10,6 C 6,7 C 88 % 1006,8 hPa 0,0 l/m 5,6 km/h (1 Bft) S-SW 211 0 min 0,000 mm 0,0 UV-I 0 W/m 5,8 C 7,7 C 8,0 km/h (2 Bft) 95,74 %
27.10.2018 07:10 7,7 C 10,6 C 6,7 C 88 % 1006,7 hPa 0,0 l/m 3,6 km/h (1 Bft) SW 220 0 min 0,000 mm 0,0 UV-I 0 W/m 5,8 C 7,7 C 6,4 km/h (2 Bft) 97,87 %
27.10.2018 07:12 7,8 C 10,6 C 6,7 C 88 % 1006,7 hPa 0,0 l/m 5,0 km/h (1 Bft) SW 229 0 min 0,000 mm 0,0 UV-I 0 W/m 5,9 C 7,8 C 6,4 km/h (2 Bft) 97,87 %
27.10.2018 07:14 7,8 C 10,6 C 6,7 C 88 % 1006,7 hPa 0,0 l/m 6,8 km/h (2 Bft) SW 224 0 min 0,000 mm 0,0 UV-I 0 W/m 5,9 C 7,5 C 9,7 km/h (2 Bft) 97,87 %
27.10.2018 07:16 7,8 C 10,6 C 6,7 C 88 % 1006,8 hPa 0,0 l/m 5,9 km/h (2 Bft) W-SW 243 0 min 0,000 mm 0,0 UV-I 0 W/m 5,9 C 7,8 C 8,0 km/h (2 Bft) 97,22 %
27.10.2018 07:18 7,8 C 10,6 C 7,2 C 88 % 1006,9 hPa 0,0 l/m 6,1 km/h (2 Bft) W 276 0 min 0,000 mm 0,0 UV-I 0 W/m 5,9 C 7,8 C 8,0 km/h (2 Bft) 98,00 %
27.10.2018 07:20 7,8 C 10,6 C 7,2 C 88 % 1006,9 hPa 0,0 l/m 6,3 km/h (2 Bft) W 280 0 min 0,000 mm 0,0 UV-I 0 W/m 5,9 C 7,8 C 11,3 km/h (2 Bft) 98,00 %
27.10.2018 07:22 7,8 C 10,6 C 7,2 C 88 % 1006,8 hPa 0,0 l/m 5,5 km/h (1 Bft) W 263 0 min 0,000 mm 0,0 UV-I 0 W/m 5,9 C 7,8 C 6,4 km/h (2 Bft) 97,87 %
27.10.2018 07:24 7,7 C 10,6 C 6,7 C 88 % 1006,8 hPa 0,0 l/m 5,2 km/h (1 Bft) W 261 0 min 0,000 mm 0,0 UV-I 0 W/m 5,8 C 7,7 C 6,4 km/h (2 Bft) 97,87 %
27.10.2018 07:26 7,7 C 10,6 C 6,7 C 89 % 1006,8 hPa 0,0 l/m 5,6 km/h (1 Bft) W 275 0 min 0,000 mm 0,0 UV-I 0 W/m 6,0 C 7,7 C 9,7 km/h (2 Bft) 95,74 %
27.10.2018 07:28 7,7 C 10,6 C 6,7 C 89 % 1006,8 hPa 0,0 l/m 6,6 km/h (2 Bft) W-SW 255 0 min 0,000 mm 0,0 UV-I 0 W/m 6,0 C 7,6 C 11,3 km/h (2 Bft) 95,74 %
27.10.2018 07:30 7,7 C 10,6 C 7,2 C 89 % 1006,8 hPa 0,0 l/m 5,9 km/h (2 Bft) W 259 0 min 0,000 mm 0,0 UV-I 0 W/m 6,0 C 7,7 C 11,3 km/h (2 Bft) 97,87 %
27.10.2018 07:32 7,8 C 10,6 C 7,2 C 88 % 1006,8 hPa 0,0 l/m 4,8 km/h (1 Bft) W 259 0 min 0,000 mm 0,0 UV-I 0 W/m 5,9 C 7,8 C 6,4 km/h (2 Bft) 97,87 %
27.10.2018 07:34 7,8 C 10,6 C 7,2 C 88 % 1006,8 hPa 0,0 l/m 4,6 km/h (1 Bft) W 270 0 min 0,000 mm 0,0 UV-I 0 W/m 5,9 C 7,8 C 9,7 km/h (2 Bft) 95,74 %
27.10.2018 07:36 7,8 C 10,6 C 7,2 C 88 % 1006,7 hPa 0,0 l/m 6,4 km/h (2 Bft) W 277 0 min 0,000 mm 0,0 UV-I 0 W/m 5,9 C 7,8 C 9,7 km/h (2 Bft) 98,00 %
27.10.2018 07:38 7,8 C 10,6 C 7,2 C 88 % 1006,8 hPa 0,0 l/m 5,1 km/h (1 Bft) W-SW 243 0 min 0,000 mm 0,0 UV-I 0 W/m 5,9 C 7,8 C 6,4 km/h (2 Bft) 97,87 %
27.10.2018 07:40 7,8 C 10,6 C 7,2 C 88 % 1006,7 hPa 0,0 l/m 3,9 km/h (1 Bft) W-SW 240 0 min 0,000 mm 0,0 UV-I 0 W/m 5,9 C 7,8 C 6,4 km/h (2 Bft) 100,00 %
27.10.2018 07:42 7,8 C 10,6 C 7,2 C 88 % 1006,7 hPa 0,0 l/m 4,1 km/h (1 Bft) W 271 0 min 0,000 mm 0,0 UV-I 2 W/m 5,9 C 7,8 C 6,4 km/h (2 Bft) 95,74 %
27.10.2018 07:44 7,8 C 10,6 C 7,2 C 88 % 1006,6 hPa 0,0 l/m 4,2 km/h (1 Bft) W 269 0 min 0,000 mm 0,0 UV-I 5 W/m 5,9 C 7,8 C 6,4 km/h (2 Bft) 97,87 %
27.10.2018 07:46 7,8 C 10,6 C 7,2 C 88 % 1006,7 hPa 0,0 l/m 3,7 km/h (1 Bft) W-SW 243 0 min 0,000 mm 0,0 UV-I 5 W/m 5,9 C 7,8 C 4,8 km/h (1 Bft) 97,96 %
27.10.2018 07:48 7,8 C 10,6 C 7,2 C 88 % 1006,9 hPa 0,0 l/m 6,1 km/h (2 Bft) SW 229 0 min 0,000 mm 0,0 UV-I 5 W/m 5,9 C 7,8 C 9,7 km/h (2 Bft) 97,37 %
27.10.2018 07:50 7,8 C 10,6 C 7,2 C 88 % 1007,0 hPa 0,0 l/m 6,7 km/h (2 Bft) W-SW 240 0 min 0,000 mm 0,0 UV-I 4 W/m 5,9 C 7,6 C 11,3 km/h (2 Bft) 97,87 %
27.10.2018 07:52 7,8 C 10,6 C 7,2 C 88 % 1007,0 hPa 0,0 l/m 6,1 km/h (2 Bft) W-SW 246 0 min 0,000 mm 0,0 UV-I 1 W/m 5,9 C 7,8 C 11,3 km/h (2 Bft) 96,00 %
27.10.2018 07:54 7,8 C 10,6 C 7,2 C 88 % 1007,0 hPa 0,0 l/m 5,8 km/h (2 Bft) SW 234 0 min 0,000 mm 0,0 UV-I 5 W/m 5,9 C 7,8 C 9,7 km/h (2 Bft) 97,87 %
27.10.2018 07:56 7,8 C 10,6 C 7,2 C 88 % 1007,0 hPa 0,0 l/m 6,5 km/h (2 Bft) SW 225 0 min 0,000 mm 0,0 UV-I 5 W/m 5,9 C 7,7 C 9,7 km/h (2 Bft) 95,92 %
27.10.2018 07:59 7,9 C 10,6 C 7,2 C 88 % 1007,0 hPa 0,0 l/m 5,8 km/h (2 Bft) SW 223 0 min 0,000 mm 0,0 UV-I 6 W/m 6,0 C 7,9 C 9,7 km/h (2 Bft) 97,30 %
27.10.2018 08:00 7,9 C 10,6 C 7,2 C 88 % 1007,0 hPa 0,0 l/m 5,0 km/h (1 Bft) W-SW 241 0 min 0,000 mm 0,0 UV-I 7 W/m 6,0 C 7,9 C 6,4 km/h (2 Bft) 100,00 %
27.10.2018 08:02 7,9 C 10,6 C 7,2 C 88 % 1007,0 hPa 0,0 l/m 6,6 km/h (2 Bft) W-SW 240 0 min 0,000 mm 0,0 UV-I 8 W/m 6,0 C 7,8 C 9,7 km/h (2 Bft) 95,74 %
27.10.2018 08:04 7,9 C 10,6 C 7,2 C 89 % 1007,1 hPa 0,0 l/m 5,1 km/h (1 Bft) W-SW 255 0 min 0,000 mm 0,0 UV-I 9 W/m 6,2 C 7,9 C 8,0 km/h (2 Bft) 98,00 %
27.10.2018 08:06 7,8 C 10,6 C 7,2 C 88 % 1007,2 hPa 0,0 l/m 6,0 km/h (2 Bft) W 262 0 min 0,000 mm 0,0 UV-I 9 W/m 5,9 C 7,8 C 9,7 km/h (2 Bft) 100,00 %
27.10.2018 08:08 7,8 C 10,6 C 7,2 C 89 % 1007,2 hPa 0,0 l/m 6,8 km/h (2 Bft) W 273 0 min 0,000 mm 0,0 UV-I 10 W/m 6,1 C 7,5 C 11,3 km/h (2 Bft) 95,74 %
27.10.2018 08:10 7,8 C 10,6 C 7,2 C 89 % 1007,2 hPa 0,0 l/m 4,8 km/h (1 Bft) W 273 0 min 0,000 mm 0,0 UV-I 9 W/m 6,1 C 7,8 C 6,4 km/h (2 Bft) 100,00 %
27.10.2018 08:12 7,8 C 10,6 C 7,2 C 89 % 1007,3 hPa 0,0 l/m 5,3 km/h (1 Bft) W 270 0 min 0,000 mm 0,0 UV-I 9 W/m 6,1 C 7,8 C 9,7 km/h (2 Bft) 100,00 %
27.10.2018 08:14 7,8 C 10,6 C 7,2 C 89 % 1007,3 hPa 0,0 l/m 6,1 km/h (2 Bft) W 269 0 min 0,000 mm 0,0 UV-I 9 W/m 6,1 C 7,8 C 9,7 km/h (2 Bft) 98,00 %
27.10.2018 08:16 7,8 C 10,6 C 7,2 C 89 % 1007,2 hPa 0,0 l/m 6,5 km/h (2 Bft) W 266 0 min 0,000 mm 0,0 UV-I 9 W/m 6,1 C 7,7 C 9,7 km/h (2 Bft) 100,00 %
27.10.2018 08:18 7,8 C 10,6 C 7,2 C 89 % 1007,2 hPa 0,0 l/m 7,0 km/h (2 Bft) W 267 0 min 0,000 mm 0,0 UV-I 10 W/m 6,1 C 7,3 C 11,3 km/h (2 Bft) 100,00 %
27.10.2018 08:20 7,8 C 10,6 C 7,2 C 89 % 1007,1 hPa 0,0 l/m 5,6 km/h (1 Bft) W-SW 257 0 min 0,000 mm 0,0 UV-I 11 W/m 6,1 C 7,8 C 12,9 km/h (3 Bft) 97,87 %
27.10.2018 08:22 7,9 C 10,6 C 7,2 C 89 % 1007,1 hPa 0,0 l/m 5,0 km/h (1 Bft) W 278 0 min 0,000 mm 0,0 UV-I 11 W/m 6,2 C 7,9 C 9,7 km/h (2 Bft) 100,00 %
27.10.2018 08:24 7,9 C 10,6 C 7,2 C 89 % 1007,3 hPa 0,0 l/m 4,6 km/h (1 Bft) W-SW 255 0 min 0,000 mm 0,0 UV-I 11 W/m 6,2 C 7,9 C 6,4 km/h (2 Bft) 100,00 %
27.10.2018 08:26 7,9 C 10,6 C 7,2 C 89 % 1007,3 hPa 0,0 l/m 7,2 km/h (2 Bft) W-SW 257 0 min 0,000 mm 0,0 UV-I 11 W/m 6,2 C 7,3 C 11,3 km/h (2 Bft) 97,37 %
27.10.2018 08:28 7,8 C 10,6 C 7,2 C 90 % 1007,4 hPa 0,0 l/m 5,5 km/h (1 Bft) W-SW 258 0 min 0,000 mm 0,0 UV-I 11 W/m 6,3 C 7,8 C 9,7 km/h (2 Bft) 100,00 %
27.10.2018 08:30 7,8 C 10,6 C 7,2 C 90 % 1007,4 hPa 0,0 l/m 6,9 km/h (2 Bft) W 266 0 min 0,000 mm 0,0 UV-I 10 W/m 6,3 C 7,4 C 9,7 km/h (2 Bft) 100,00 %
27.10.2018 08:32 7,8 C 10,6 C 7,2 C 90 % 1007,4 hPa 0,0 l/m 6,3 km/h (2 Bft) W 274 0 min 0,000 mm 0,0 UV-I 10 W/m 6,3 C 7,8 C 12,9 km/h (3 Bft) 97,87 %
27.10.2018 08:34 7,8 C 10,6 C 7,2 C 90 % 1007,4 hPa 0,0 l/m 6,1 km/h (2 Bft) W-SW 244 0 min 0,000 mm 0,0 UV-I 10 W/m 6,3 C 7,8 C 9,7 km/h (2 Bft) 100,00 %
27.10.2018 08:36 7,8 C 10,6 C 7,2 C 90 % 1007,5 hPa 0,0 l/m 5,3 km/h (1 Bft) W 266 0 min 0,000 mm 0,0 UV-I 10 W/m 6,3 C 7,8 C 6,4 km/h (2 Bft) 97,87 %
27.10.2018 08:38 7,8 C 10,6 C 7,2 C 90 % 1007,4 hPa 0,0 l/m 6,8 km/h (2 Bft) W 267 0 min 0,000 mm 0,0 UV-I 10 W/m 6,3 C 7,5 C 11,3 km/h (2 Bft) 95,74 %
27.10.2018 08:40 7,8 C 10,6 C 7,2 C 91 % 1007,4 hPa 0,0 l/m 6,7 km/h (2 Bft) W 267 0 min 0,000 mm 0,0 UV-I 11 W/m 6,4 C 7,6 C 11,3 km/h (2 Bft) 96,23 %
27.10.2018 08:42 7,8 C 10,6 C 7,2 C 91 % 1007,4 hPa 0,0 l/m 6,2 km/h (2 Bft) W-SW 255 0 min 0,000 mm 0,0 UV-I 12 W/m 6,4 C 7,8 C 9,7 km/h (2 Bft) 97,87 %
27.10.2018 08:44 7,8 C 10,6 C 7,2 C 91 % 1007,3 hPa 0,0 l/m 5,5 km/h (1 Bft) W-NW 282 0 min 0,000 mm 0,0 UV-I 13 W/m 6,4 C 7,8 C 9,7 km/h (2 Bft) 97,37 %
27.10.2018 08:46 7,8 C 10,6 C 7,2 C 91 % 1007,3 hPa 0,0 l/m 6,3 km/h (2 Bft) W-NW 289 0 min 0,000 mm 0,0 UV-I 12 W/m 6,4 C 7,8 C 11,3 km/h (2 Bft) 93,62 %
27.10.2018 08:48 7,7 C 10,6 C 7,2 C 91 % 1007,4 hPa 0,0 l/m 5,7 km/h (1 Bft) W 269 0 min 0,000 mm 0,0 UV-I 12 W/m 6,3 C 7,7 C 9,7 km/h (2 Bft) 95,74 %
27.10.2018 08:50 7,7 C 10,6 C 7,2 C 91 % 1007,5 hPa 0,0 l/m 7,0 km/h (2 Bft) W 275 0 min 0,000 mm 0,0 UV-I 12 W/m 6,3 C 7,2 C 11,3 km/h (2 Bft) 98,00 %
27.10.2018 08:52 7,7 C 10,6 C 7,2 C 91 % 1007,6 hPa 0,0 l/m 8,1 km/h (2 Bft) W 271 0 min 0,000 mm 0,0 UV-I 17 W/m 6,3 C 6,4 C 11,3 km/h (2 Bft) 93,62 %
27.10.2018 08:54 7,7 C 10,6 C 7,2 C 91 % 1007,6 hPa 0,0 l/m 7,9 km/h (2 Bft) W 266 0 min 0,000 mm 0,0 UV-I 15 W/m 6,3 C 6,5 C 12,9 km/h (3 Bft) 96,00 %
27.10.2018 08:56 7,7 C 10,6 C 7,2 C 91 % 1007,5 hPa 0,0 l/m 5,7 km/h (1 Bft) W 269 0 min 0,000 mm 0,0 UV-I 17 W/m 6,3 C 7,7 C 9,7 km/h (2 Bft) 95,74 %
27.10.2018 08:58 7,7 C 10,6 C 7,2 C 91 % 1007,5 hPa 0,0 l/m 7,0 km/h (2 Bft) W 271 0 min 0,000 mm 0,0 UV-I 22 W/m 6,3 C 7,2 C 11,3 km/h (2 Bft) 97,87 %
27.10.2018 09:00 7,7 C 10,6 C 7,2 C 91 % 1007,5 hPa 0,0 l/m 4,6 km/h (1 Bft) W-SW 258 0 min 0,000 mm 0,0 UV-I 28 W/m 6,3 C 7,7 C 6,4 km/h (2 Bft) 95,74 %
27.10.2018 09:02 7,7 C 10,6 C 7,2 C 91 % 1007,6 hPa 0,0 l/m 4,2 km/h (1 Bft) W 267 0 min 0,000 mm 0,0 UV-I 25 W/m 6,3 C 7,7 C 6,4 km/h (2 Bft) 97,14 %
27.10.2018 09:04 7,7 C 10,6 C 7,2 C 91 % 1007,5 hPa 0,0 l/m 4,2 km/h (1 Bft) W 275 0 min 0,000 mm 0,0 UV-I 23 W/m 6,3 C 7,7 C 6,4 km/h (2 Bft) 98,00 %
27.10.2018 09:06 7,7 C 10,6 C 7,2 C 91 % 1007,5 hPa 0,0 l/m 4,2 km/h (1 Bft) W 267 0 min 0,000 mm 0,0 UV-I 21 W/m 6,3 C 7,7 C 6,4 km/h (2 Bft) 93,62 %
27.10.2018 09:08 7,7 C 10,6 C 7,2 C 91 % 1007,6 hPa 0,0 l/m 4,2 km/h (1 Bft) W-SW 242 0 min 0,000 mm 0,0 UV-I 23 W/m 6,3 C 7,7 C 6,4 km/h (2 Bft) 93,62 %
27.10.2018 09:10 7,7 C 10,6 C 7,2 C 91 % 1007,5 hPa 0,0 l/m 3,3 km/h (1 Bft) W-SW 242 0 min 0,000 mm 0,0 UV-I 21 W/m 6,3 C 7,7 C 4,8 km/h (1 Bft) 92,00 %
27.10.2018 09:12 7,7 C 10,6 C 7,2 C 92 % 1007,4 hPa 0,0 l/m 3,3 km/h (1 Bft) W-SW 254 0 min 0,000 mm 0,0 UV-I 23 W/m 6,5 C 7,7 C 6,4 km/h (2 Bft) 87,50 %
27.10.2018 09:14 7,7 C 10,6 C 7,8 C 92 % 1007,3 hPa 0,0 l/m 3,5 km/h (1 Bft) W-SW 255 0 min 0,000 mm 0,0 UV-I 26 W/m 6,5 C 7,7 C 6,4 km/h (2 Bft) 93,62 %
27.10.2018 09:16 7,7 C 10,6 C 7,8 C 92 % 1007,4 hPa 0,0 l/m 3,2 km/h (1 Bft) W-NW 290 0 min 0,000 mm 0,0 UV-I 28 W/m 6,5 C 7,7 C 4,8 km/h (1 Bft) 91,49 %
27.10.2018 09:18 7,8 C 10,6 C 7,8 C 92 % 1007,5 hPa 0,0 l/m 3,9 km/h (1 Bft) W-NW 288 0 min 0,000 mm 0,0 UV-I 28 W/m 6,6 C 7,8 C 6,4 km/h (2 Bft) 91,49 %
27.10.2018 09:20 7,8 C 10,6 C 7,8 C 92 % 1007,6 hPa 0,0 l/m 3,9 km/h (1 Bft) W-NW 287 0 min 0,000 mm 0,0 UV-I 25 W/m 6,6 C 7,8 C 4,8 km/h (1 Bft) 94,00 %
27.10.2018 09:22 7,8 C 10,6 C 7,8 C 92 % 1007,6 hPa 0,0 l/m 4,4 km/h (1 Bft) W 262 0 min 0,000 mm 0,0 UV-I 24 W/m 6,6 C 7,8 C 6,4 km/h (2 Bft) 92,11 %
27.10.2018 09:24 7,8 C 10,6 C 7,8 C 92 % 1007,7 hPa 0,0 l/m 4,4 km/h (1 Bft) W 262 0 min 0,000 mm 0,0 UV-I 25 W/m 6,6 C 7,8 C 4,8 km/h (1 Bft) 93,62 %
27.10.2018 09:26 7,8 C 10,6 C 7,8 C 92 % 1007,6 hPa 0,0 l/m 4,3 km/h (1 Bft) W 272 0 min 0,000 mm 0,0 UV-I 21 W/m 6,6 C 7,8 C 6,4 km/h (2 Bft) 94,00 %
27.10.2018 09:28 7,8 C 10,6 C 7,8 C 92 % 1007,5 hPa 0,0 l/m 3,0 km/h (1 Bft) W 272 0 min 0,000 mm 0,0 UV-I 21 W/m 6,6 C 7,8 C 4,8 km/h (1 Bft) 94,00 %
27.10.2018 09:30 7,8 C 10,6 C 7,8 C 92 % 1007,5 hPa 0,0 l/m 3,2 km/h (1 Bft) W-NW 288 0 min 0,000 mm 0,0 UV-I 23 W/m 6,6 C 7,8 C 4,8 km/h (1 Bft) 95,74 %
27.10.2018 09:32 7,8 C 10,6 C 7,8 C 92 % 1007,5 hPa 0,0 l/m 4,5 km/h (1 Bft) W 263 0 min 0,000 mm 0,0 UV-I 25 W/m 6,6 C 7,8 C 6,4 km/h (2 Bft) 94,00 %
27.10.2018 09:34 7,8 C 10,6 C 7,8 C 92 % 1007,5 hPa 0,0 l/m 4,2 km/h (1 Bft) W 260 0 min 0,000 mm 0,0 UV-I 26 W/m 6,6 C 7,8 C 6,4 km/h (2 Bft) 95,74 %
27.10.2018 09:36 7,8 C 10,6 C 7,8 C 92 % 1007,5 hPa 0,0 l/m 3,7 km/h (1 Bft) W-NW 289 0 min 0,000 mm 0,0 UV-I 26 W/m 6,6 C 7,8 C 6,4 km/h (2 Bft) 91,49 %
27.10.2018 09:38 7,8 C 10,6 C 7,8 C 92 % 1007,5 hPa 0,0 l/m 4,1 km/h (1 Bft) W 277 0 min 0,000 mm 0,0 UV-I 28 W/m 6,6 C 7,8 C 4,8 km/h (1 Bft) 93,62 %
27.10.2018 09:40 7,8 C 10,6 C 7,8 C 92 % 1007,5 hPa 0,0 l/m 3,9 km/h (1 Bft) W 269 0 min 0,000 mm 0,0 UV-I 28 W/m 6,6 C 7,8 C 9,7 km/h (2 Bft) 93,62 %
27.10.2018 09:42 7,8 C 10,6 C 7,8 C 92 % 1007,5 hPa 0,0 l/m 5,3 km/h (1 Bft) W 261 0 min 0,000 mm 0,0 UV-I 27 W/m 6,6 C 7,8 C 9,7 km/h (2 Bft) 95,74 %
27.10.2018 09:44 7,8 C 10,6 C 7,8 C 92 % 1007,5 hPa 0,0 l/m 4,6 km/h (1 Bft) W 264 0 min 0,000 mm 0,0 UV-I 25 W/m 6,6 C 7,8 C 6,4 km/h (2 Bft) 97,14 %
27.10.2018 09:46 7,8 C 10,6 C 7,8 C 92 % 1007,5 hPa 0,0 l/m 4,2 km/h (1 Bft) W 264 0 min 0,000 mm 0,0 UV-I 26 W/m 6,6 C 7,8 C 9,7 km/h (2 Bft) 100,00 %
27.10.2018 09:48 7,8 C 10,6 C 7,8 C 91 % 1007,6 hPa 0,0 l/m 5,6 km/h (1 Bft) W-SW 248 0 min 0,000 mm 0,0 UV-I 25 W/m 6,4 C 7,8 C 9,7 km/h (2 Bft) 100,00 %
27.10.2018 09:50 7,8 C 10,6 C 7,8 C 92 % 1007,6 hPa 0,0 l/m 4,8 km/h (1 Bft) W 264 0 min 0,000 mm 0,0 UV-I 23 W/m 6,6 C 7,8 C 6,4 km/h (2 Bft) 100,00 %
27.10.2018 09:52 7,9 C 10,6 C 7,8 C 92 % 1007,6 hPa 0,0 l/m 4,8 km/h (1 Bft) W-SW 254 0 min 0,000 mm 0,0 UV-I 22 W/m 6,7 C 7,9 C 6,4 km/h (2 Bft) 97,87 %
27.10.2018 09:54 7,9 C 10,6 C 7,8 C 91 % 1007,6 hPa 0,0 l/m 5,3 km/h (1 Bft) SW 234 0 min 0,000 mm 0,0 UV-I 23 W/m 6,5 C 7,9 C 8,0 km/h (2 Bft) 100,00 %
27.10.2018 09:56 7,9 C 10,6 C 7,8 C 91 % 1007,6 hPa 0,0 l/m 4,0 km/h (1 Bft) SW 230 0 min 0,000 mm 0,0 UV-I 21 W/m 6,5 C 7,9 C 6,4 km/h (2 Bft) 97,87 %
27.10.2018 09:58 7,9 C 10,6 C 7,8 C 91 % 1007,6 hPa 0,0 l/m 5,0 km/h (1 Bft) W 262 0 min 0,000 mm 0,0 UV-I 21 W/m 6,5 C 7,9 C 6,4 km/h (2 Bft) 97,87 %
27.10.2018 10:00 7,9 C 10,6 C 7,8 C 91 % 1007,6 hPa 0,0 l/m 3,6 km/h (1 Bft) W 260 0 min 0,025 mm 0,0 UV-I 21 W/m 6,5 C 7,9 C 6,4 km/h (2 Bft) 100,00 %
27.10.2018 10:02 7,9 C 10,6 C 7,8 C 91 % 1007,6 hPa 0,0 l/m 4,8 km/h (1 Bft) W 265 0 min 0,000 mm 0,0 UV-I 21 W/m 6,5 C 7,9 C 9,7 km/h (2 Bft) 97,87 %
27.10.2018 10:04 7,9 C 10,6 C 7,8 C 91 % 1007,6 hPa 0,0 l/m 3,3 km/h (1 Bft) W-NW 288 0 min 0,000 mm 0,0 UV-I 21 W/m 6,5 C 7,9 C 6,4 km/h (2 Bft) 100,00 %
27.10.2018 10:06 7,9 C 10,6 C 7,8 C 91 % 1007,6 hPa 0,0 l/m 4,2 km/h (1 Bft) W 273 0 min 0,000 mm 0,0 UV-I 22 W/m 6,5 C 7,9 C 6,4 km/h (2 Bft) 100,00 %
27.10.2018 10:08 7,9 C 10,6 C 7,8 C 91 % 1007,5 hPa 0,0 l/m 3,7 km/h (1 Bft) W 273 0 min 0,000 mm 0,0 UV-I 23 W/m 6,5 C 7,9 C 4,8 km/h (1 Bft) 97,87 %
27.10.2018 10:10 7,9 C 10,6 C 7,8 C 91 % 1007,5 hPa 0,0 l/m 2,7 km/h (1 Bft) W 273 0 min 0,000 mm 0,0 UV-I 23 W/m 6,5 C 7,9 C 4,8 km/h (1 Bft) 100,00 %
27.10.2018 10:12 7,9 C 10,6 C 7,8 C 91 % 1007,6 hPa 0,0 l/m 1,9 km/h (1 Bft) W 273 0 min 0,000 mm 0,0 UV-I 23 W/m 6,5 C 7,9 C 3,2 km/h (1 Bft) 100,00 %
27.10.2018 10:14 7,9 C 10,6 C 7,8 C 91 % 1007,7 hPa 0,0 l/m 3,6 km/h (1 Bft) W 273 0 min 0,000 mm 0,0 UV-I 23 W/m 6,5 C 7,9 C 4,8 km/h (1 Bft) 100,00 %
27.10.2018 10:16 7,9 C 10,6 C 7,8 C 91 % 1007,7 hPa 0,0 l/m 3,8 km/h (1 Bft) W 273 0 min 0,000 mm 0,0 UV-I 24 W/m 6,5 C 7,9 C 6,4 km/h (2 Bft) 100,00 %
27.10.2018 10:18 7,9 C 10,6 C 7,8 C 91 % 1007,7 hPa 0,0 l/m 3,6 km/h (1 Bft) W 273 0 min 0,000 mm 0,0 UV-I 25 W/m 6,5 C 7,9 C 4,8 km/h (1 Bft) 100,00 %
27.10.2018 10:20 7,9 C 10,6 C 7,8 C 91 % 1007,7 hPa 0,0 l/m 4,3 km/h (1 Bft) W 272 0 min 0,000 mm 0,0 UV-I 25 W/m 6,5 C 7,9 C 6,4 km/h (2 Bft) 100,00 %
27.10.2018 10:22 7,9 C 10,6 C 7,8 C 92 % 1007,7 hPa 0,0 l/m 3,9 km/h (1 Bft) W 263 0 min 0,000 mm 0,0 UV-I 26 W/m 6,7 C 7,9 C 9,7 km/h (2 Bft) 97,37 %
27.10.2018 10:24 7,9 C 10,6 C 7,8 C 92 % 1007,7 hPa 0,0 l/m 4,5 km/h (1 Bft) W 263 0 min 0,000 mm 0,0 UV-I 25 W/m 6,7 C 7,9 C 6,4 km/h (2 Bft) 97,92 %
27.10.2018 10:26 7,9 C 10,6 C 7,8 C 91 % 1007,7 hPa 0,0 l/m 4,8 km/h (1 Bft) W 267 0 min 0,000 mm 0,0 UV-I 24 W/m 6,5 C 7,9 C 6,4 km/h (2 Bft) 98,08 %
27.10.2018 10:28 7,9 C 10,6 C 7,8 C 91 % 1007,7 hPa 0,0 l/m 5,9 km/h (2 Bft) W 262 0 min 0,000 mm 0,0 UV-I 21 W/m 6,5 C 7,9 C 9,7 km/h (2 Bft) 95,74 %
27.10.2018 10:30 7,9 C 10,6 C 7,8 C 91 % 1007,7 hPa 0,0 l/m 3,8 km/h (1 Bft) W 262 0 min 0,000 mm 0,0 UV-I 21 W/m 6,5 C 7,9 C 4,8 km/h (1 Bft) 97,92 %
27.10.2018 10:32 7,9 C 10,6 C 7,8 C 91 % 1007,8 hPa 0,0 l/m 4,3 km/h (1 Bft) W 262 0 min 0,000 mm 0,0 UV-I 21 W/m 6,5 C 7,9 C 6,4 km/h (2 Bft) 95,74 %
27.10.2018 10:34 7,9 C 10,6 C 7,8 C 91 % 1007,8 hPa 0,0 l/m 3,6 km/h (1 Bft) W 262 0 min 0,000 mm 0,0 UV-I 22 W/m 6,5 C 7,9 C 4,8 km/h (1 Bft) 97,87 %
27.10.2018 10:36 7,9 C 10,6 C 7,8 C 91 % 1007,9 hPa 0,0 l/m 3,7 km/h (1 Bft) W 262 0 min 0,000 mm 0,0 UV-I 24 W/m 6,5 C 7,9 C 4,8 km/h (1 Bft) 97,87 %
27.10.2018 10:38 7,9 C 10,6 C 7,8 C 91 % 1007,8 hPa 0,0 l/m 3,3 km/h (1 Bft) W 270 0 min 0,000 mm 0,0 UV-I 26 W/m 6,5 C 7,9 C 6,4 km/h (2 Bft) 97,87 %
27.10.2018 10:40 7,9 C 10,6 C 7,8 C 91 % 1007,8 hPa 0,0 l/m 4,1 km/h (1 Bft) W 271 0 min 0,000 mm 0,0 UV-I 27 W/m 6,5 C 7,9 C 6,4 km/h (2 Bft) 95,74 %
27.10.2018 10:42 7,9 C 10,6 C 7,8 C 91 % 1007,7 hPa 0,0 l/m 4,0 km/h (1 Bft) W 271 0 min 0,000 mm 0,0 UV-I 28 W/m 6,5 C 7,9 C 4,8 km/h (1 Bft) 100,00 %
27.10.2018 10:44 7,9 C 10,6 C 7,8 C 91 % 1007,7 hPa 0,0 l/m 2,6 km/h (1 Bft) W 271 0 min 0,000 mm 0,0 UV-I 30 W/m 6,5 C 7,9 C 4,8 km/h (1 Bft) 98,11 %
27.10.2018 10:46 7,9 C 10,6 C 7,8 C 91 % 1007,6 hPa 0,0 l/m 4,1 km/h (1 Bft) W 271 0 min 0,000 mm 0,0 UV-I 30 W/m 6,5 C 7,9 C 6,4 km/h (2 Bft) 95,74 %
27.10.2018 10:48 7,9 C 10,6 C 7,8 C 91 % 1007,6 hPa 0,0 l/m 2,1 km/h (1 Bft) W 271 0 min 0,000 mm 0,0 UV-I 30 W/m 6,5 C 7,9 C 4,8 km/h (1 Bft) 96,00 %
27.10.2018 10:50 7,9 C 10,6 C 7,8 C 91 % 1007,5 hPa 0,0 l/m 3,4 km/h (1 Bft) SW 235 0 min 0,000 mm 0,0 UV-I 32 W/m 6,5 C 7,9 C 6,4 km/h (2 Bft) 100,00 %
27.10.2018 10:52 7,9 C 10,6 C 7,8 C 91 % 1007,5 hPa 0,0 l/m 4,4 km/h (1 Bft) W 265 0 min 0,000 mm 0,0 UV-I 32 W/m 6,5 C 7,9 C 6,4 km/h (2 Bft) 97,87 %
27.10.2018 10:54 7,9 C 10,6 C 7,8 C 91 % 1007,5 hPa 0,0 l/m 2,4 km/h (1 Bft) W 265 0 min 0,000 mm 0,0 UV-I 33 W/m 6,5 C 7,9 C 4,8 km/h (1 Bft) 100,00 %
27.10.2018 10:56 8,0 C 10,6 C 8,3 C 91 % 1007,5 hPa 0,0 l/m 2,4 km/h (1 Bft) W 265 0 min 0,000 mm 0,0 UV-I 33 W/m 6,6 C 8,0 C 4,8 km/h (1 Bft) 100,00 %
27.10.2018 10:58 8,0 C 10,6 C 8,3 C 91 % 1007,5 hPa 0,0 l/m 4,7 km/h (1 Bft) W-SW 253 0 min 0,000 mm 0,0 UV-I 33 W/m 6,6 C 8,0 C 6,4 km/h (2 Bft) 100,00 %
27.10.2018 11:00 8,0 C 10,6 C 8,3 C 91 % 1007,5 hPa 0,0 l/m 4,5 km/h (1 Bft) W 265 0 min 0,026 mm 0,0 UV-I 37 W/m 6,6 C 8,0 C 6,4 km/h (2 Bft) 100,00 %
27.10.2018 11:02 8,0 C 10,6 C 8,3 C 91 % 1007,5 hPa 0,0 l/m 3,8 km/h (1 Bft) W 265 0 min 0,000 mm 0,0 UV-I 43 W/m 6,6 C 8,0 C 6,4 km/h (2 Bft) 100,00 %
27.10.2018 11:04 8,0 C 10,6 C 8,3 C 91 % 1007,5 hPa 0,0 l/m 3,3 km/h (1 Bft) W 265 0 min 0,000 mm 0,0 UV-I 48 W/m 6,6 C 8,0 C 4,8 km/h (1 Bft) 97,44 %
27.10.2018 11:06 8,1 C 10,6 C 8,3 C 91 % 1007,5 hPa 0,0 l/m 3,7 km/h (1 Bft) W 265 0 min 0,000 mm 0,0 UV-I 53 W/m 6,7 C 8,1 C 4,8 km/h (1 Bft) 100,00 %
27.10.2018 11:08 8,1 C 10,6 C 8,3 C 91 % 1007,6 hPa 0,0 l/m 3,1 km/h (1 Bft) W 265 0 min 0,000 mm 0,0 UV-I 50 W/m 6,7 C 8,1 C 4,8 km/h (1 Bft) 100,00 %
27.10.2018 11:10 8,1 C 10,6 C 8,3 C 91 % 1007,5 hPa 0,0 l/m 5,3 km/h (1 Bft) W 260 0 min 0,000 mm 0,0 UV-I 46 W/m 6,7 C 8,1 C 6,4 km/h (2 Bft) 100,00 %
27.10.2018 11:12 8,1 C 10,6 C 8,3 C 91 % 1007,5 hPa 0,0 l/m 3,6 km/h (1 Bft) W 275 0 min 0,000 mm 0,0 UV-I 48 W/m 6,7 C 8,1 C 6,4 km/h (2 Bft) 95,74 %
27.10.2018 11:14 8,1 C 10,6 C 8,3 C 91 % 1007,5 hPa 0,0 l/m 3,6 km/h (1 Bft) W-NW 282 0 min 0,000 mm 0,0 UV-I 54 W/m 6,7 C 8,1 C 6,4 km/h (2 Bft) 94,00 %
27.10.2018 11:16 8,1 C 10,6 C 8,3 C 91 % 1007,6 hPa 0,0 l/m 3,8 km/h (1 Bft) W 264 0 min 0,000 mm 0,0 UV-I 56 W/m 6,7 C 8,1 C 6,4 km/h (2 Bft) 97,87 %
27.10.2018 11:18 8,1 C 10,6 C 8,3 C 91 % 1007,6 hPa 0,0 l/m 2,8 km/h (1 Bft) W 266 0 min 0,000 mm 0,0 UV-I 57 W/m 6,7 C 8,1 C 4,8 km/h (1 Bft) 95,74 %
27.10.2018 11:20 8,1 C 10,6 C 8,3 C 91 % 1007,6 hPa 0,2 l/m 1,5 km/h (1 Bft) W 267 0 min 0,000 mm 0,0 UV-I 61 W/m 6,7 C 8,1 C 3,2 km/h (1 Bft) 97,87 %
27.10.2018 11:22 8,2 C 10,6 C 8,3 C 91 % 1007,6 hPa 0,0 l/m 1,8 km/h (1 Bft) W-NW 290 0 min 0,000 mm 0,0 UV-I 62 W/m 6,8 C 8,2 C 3,2 km/h (1 Bft) 97,87 %
27.10.2018 11:24 8,1 C 10,6 C 8,3 C 92 % 1007,6 hPa 0,0 l/m 1,0 km/h (0 Bft) W-NW 290 0 min 0,000 mm 0,0 UV-I 63 W/m 6,9 C 8,1 C 1,6 km/h (1 Bft) 98,00 %
27.10.2018 11:26 8,1 C 10,6 C 8,3 C 92 % 1007,7 hPa 0,0 l/m 2,2 km/h (1 Bft) W-NW 290 0 min 0,000 mm 0,0 UV-I 60 W/m 6,9 C 8,1 C 3,2 km/h (1 Bft) 95,74 %
27.10.2018 11:28 8,1 C 10,6 C 8,3 C 92 % 1007,7 hPa 0,0 l/m 0,8 km/h (0 Bft) W-NW 290 0 min 0,000 mm 0,0 UV-I 53 W/m 6,9 C 8,1 C 1,6 km/h (1 Bft) 95,74 %
27.10.2018 11:30 8,1 C 10,6 C 8,3 C 92 % 1007,7 hPa 0,2 l/m 0,2 km/h (0 Bft) W-NW 290 0 min 0,000 mm 0,0 UV-I 47 W/m 6,9 C 8,1 C 1,6 km/h (1 Bft) 97,87 %
27.10.2018 11:32 8,1 C 10,6 C 8,3 C 93 % 1007,7 hPa 0,0 l/m 0,6 km/h (0 Bft) W-NW 290 0 min 0,000 mm 0,0 UV-I 44 W/m 7,0 C 8,1 C 3,2 km/h (1 Bft) 97,37 %
27.10.2018 11:34 8,0 C 10,6 C 8,3 C 93 % 1007,7 hPa 0,0 l/m 1,6 km/h (1 Bft) W-NW 290 0 min 0,000 mm 0,0 UV-I 44 W/m 6,9 C 8,0 C 3,2 km/h (1 Bft) 93,62 %
27.10.2018 11:36 8,0 C 10,6 C 8,3 C 93 % 1007,7 hPa 0,0 l/m 1,4 km/h (1 Bft) W-NW 290 0 min 0,000 mm 0,0 UV-I 46 W/m 6,9 C 8,0 C 3,2 km/h (1 Bft) 93,62 %
27.10.2018 11:38 7,9 C 10,6 C 8,3 C 93 % 1007,7 hPa 0,0 l/m 1,7 km/h (1 Bft) W-NW 290 0 min 0,000 mm 0,0 UV-I 49 W/m 6,8 C 7,9 C 3,2 km/h (1 Bft) 98,00 %
27.10.2018 11:40 7,9 C 10,6 C 8,3 C 93 % 1007,7 hPa 0,2 l/m 2,1 km/h (1 Bft) W-NW 290 0 min 0,000 mm 0,0 UV-I 57 W/m 6,8 C 7,9 C 3,2 km/h (1 Bft) 96,00 %
27.10.2018 11:42 7,9 C 10,6 C 8,3 C 93 % 1007,7 hPa 0,0 l/m 1,7 km/h (1 Bft) W-NW 290 0 min 0,000 mm 0,0 UV-I 65 W/m 6,8 C 7,9 C 3,2 km/h (1 Bft) 97,87 %
27.10.2018 11:44 7,9 C 10,6 C 8,3 C 93 % 1007,8 hPa 0,0 l/m 2,0 km/h (1 Bft) W-NW 290 0 min 0,000 mm 0,0 UV-I 67 W/m 6,8 C 7,9 C 3,2 km/h (1 Bft) 97,87 %
27.10.2018 11:46 7,9 C 10,6 C 8,3 C 93 % 1007,8 hPa 0,2 l/m 1,7 km/h (1 Bft) W-NW 290 0 min 0,000 mm 0,0 UV-I 63 W/m 6,8 C 7,9 C 3,2 km/h (1 Bft) 95,83 %
27.10.2018 11:48 7,9 C 10,6 C 8,3 C 94 % 1007,9 hPa 0,0 l/m 3,3 km/h (1 Bft) N-NW 332 0 min 0,000 mm 0,0 UV-I 60 W/m 7,0 C 7,9 C 6,4 km/h (2 Bft) 100,00 %
27.10.2018 11:50 7,9 C 10,6 C 8,3 C 93 % 1007,8 hPa 0,0 l/m 2,6 km/h (1 Bft) W-NW 293 0 min 0,000 mm 0,0 UV-I 62 W/m 6,8 C 7,9 C 4,8 km/h (1 Bft) 96,00 %
27.10.2018 11:52 7,9 C 10,6 C 8,3 C 94 % 1007,8 hPa 0,0 l/m 3,3 km/h (1 Bft) W-NW 292 0 min 0,000 mm 0,0 UV-I 69 W/m 7,0 C 7,9 C 6,4 km/h (2 Bft) 97,37 %
27.10.2018 11:55 7,9 C 10,6 C 8,9 C 94 % 1007,8 hPa 0,0 l/m 2,0 km/h (1 Bft) W-NW 292 0 min 0,000 mm 0,0 UV-I 77 W/m 7,0 C 7,9 C 3,2 km/h (1 Bft) 95,12 %
27.10.2018 11:56 7,9 C 10,6 C 8,9 C 94 % 1007,8 hPa 0,0 l/m 2,2 km/h (1 Bft) W-NW 294 0 min 0,000 mm 0,0 UV-I 84 W/m 7,0 C 7,9 C 3,2 km/h (1 Bft) 93,33 %
27.10.2018 12:00 7,9 C 10,6 C 8,9 C 94 % 1007,8 hPa 0,2 l/m 3,2 km/h (1 Bft) NW 304 0 min 0,025 mm 0,0 UV-I 77 W/m 7,0 C 7,9 C 6,4 km/h (2 Bft) 96,67 %
27.10.2018 12:03 7,9 C 10,6 C 8,3 C 94 % 1007,8 hPa 0,0 l/m 3,3 km/h (1 Bft) NW 310 0 min 0,000 mm 0,0 UV-I 73 W/m 7,0 C 7,9 C 6,4 km/h (2 Bft) 98,59 %
27.10.2018 12:04 7,8 C 10,6 C 8,3 C 94 % 1007,8 hPa 0,0 l/m 2,9 km/h (1 Bft) N-NW 331 0 min 0,000 mm 0,0 UV-I 70 W/m 6,9 C 7,8 C 4,8 km/h (1 Bft) 95,83 %
27.10.2018 12:05 7,8 C 10,6 C 8,3 C 94 % 1007,8 hPa 0,0 l/m 3,2 km/h (1 Bft) NW 315 0 min 0,000 mm 0,0 UV-I 72 W/m 6,9 C 7,8 C 6,4 km/h (2 Bft) 92,11 %
27.10.2018 12:10 7,8 C 10,6 C 8,3 C 94 % 1007,9 hPa 0,2 l/m 3,2 km/h (1 Bft) W-NW 292 0 min 0,000 mm 0,0 UV-I 70 W/m 6,9 C 7,8 C 8,0 km/h (2 Bft) 89,47 %
27.10.2018 12:15 7,8 C 10,6 C 8,3 C 94 % 1007,9 hPa 0,0 l/m 3,2 km/h (1 Bft) W-NW 292 0 min 0,000 mm 0,0 UV-I 68 W/m 6,9 C 7,8 C 6,4 km/h (2 Bft) 91,23 %
27.10.2018 12:20 7,7 C 10,6 C 8,3 C 94 % 1007,9 hPa 0,0 l/m 1,6 km/h (1 Bft) W-NW 292 0 min 0,000 mm 0,0 UV-I 66 W/m 6,8 C 7,7 C 3,2 km/h (1 Bft) 91,23 %
27.10.2018 12:25 7,8 C 10,6 C 8,3 C 94 % 1007,7 hPa 0,2 l/m 1,6 km/h (1 Bft) W-NW 292 0 min 0,000 mm 0,0 UV-I 70 W/m 6,9 C 7,8 C 4,8 km/h (1 Bft) 94,74 %
27.10.2018 12:30 7,7 C 10,6 C 8,3 C 94 % 1007,6 hPa 0,0 l/m 1,6 km/h (1 Bft) W-NW 292 0 min 0,000 mm 0,0 UV-I 79 W/m 6,8 C 7,7 C 3,2 km/h (1 Bft) 95,61 %
27.10.2018 12:35 7,8 C 10,6 C 8,9 C 95 % 1007,6 hPa 0,2 l/m 0,0 km/h (0 Bft) W-NW 292 0 min 0,000 mm 0,0 UV-I 86 W/m 7,0 C 7,8 C 3,2 km/h (1 Bft) 95,61 %
27.10.2018 12:40 7,8 C 10,6 C 8,9 C 94 % 1007,6 hPa 0,0 l/m 1,6 km/h (1 Bft) W-NW 292 0 min 0,000 mm 0,0 UV-I 100 W/m 6,9 C 7,8 C 3,2 km/h (1 Bft) 96,49 %
27.10.2018 12:45 7,8 C 10,6 C 8,9 C 94 % 1007,6 hPa 0,0 l/m 1,6 km/h (1 Bft) W-NW 292 0 min 0,000 mm 0,0 UV-I 94 W/m 6,9 C 7,8 C 3,2 km/h (1 Bft) 94,74 %
27.10.2018 12:50 7,8 C 10,6 C 8,9 C 94 % 1007,6 hPa 0,0 l/m 1,6 km/h (1 Bft) W-NW 292 0 min 0,000 mm 0,0 UV-I 86 W/m 6,9 C 7,8 C 3,2 km/h (1 Bft) 95,61 %
27.10.2018 12:55 7,8 C 10,6 C 8,3 C 94 % 1007,5 hPa 0,0 l/m 3,2 km/h (1 Bft) W-NW 292 0 min 0,000 mm 0,0 UV-I 72 W/m 6,9 C 7,8 C 4,8 km/h (1 Bft) 96,49 %
27.10.2018 13:00 7,8 C 10,6 C 8,3 C 94 % 1007,5 hPa 0,2 l/m 3,2 km/h (1 Bft) N-NW 337 0 min 0,025 mm 0,0 UV-I 81 W/m 6,9 C 7,8 C 4,8 km/h (1 Bft) 94,74 %
27.10.2018 13:02 7,8 C 10,6 C 8,3 C 94 % 1007,4 hPa 0,0 l/m 1,9 km/h (1 Bft) N-NW 329 0 min 0,001 mm 0,0 UV-I 91 W/m 6,9 C 7,8 C 3,2 km/h (1 Bft) 98,31 %
27.10.2018 13:04 7,8 C 10,6 C 8,9 C 94 % 1007,5 hPa 0,0 l/m 1,5 km/h (1 Bft) N-NW 329 0 min 0,000 mm 0,0 UV-I 96 W/m 6,9 C 7,8 C 3,2 km/h (1 Bft) 98,00 %
27.10.2018 13:06 7,8 C 10,6 C 8,9 C 94 % 1007,5 hPa 0,0 l/m 2,0 km/h (1 Bft) N-NW 329 0 min 0,000 mm 0,0 UV-I 92 W/m 6,9 C 7,8 C 3,2 km/h (1 Bft) 98,00 %
27.10.2018 13:08 7,8 C 10,6 C 8,9 C 94 % 1007,5 hPa 0,0 l/m 2,0 km/h (1 Bft) N-NW 329 0 min 0,000 mm 0,0 UV-I 95 W/m 6,9 C 7,8 C 3,2 km/h (1 Bft) 97,87 %
27.10.2018 13:10 7,8 C 10,6 C 8,9 C 94 % 1007,5 hPa 0,0 l/m 2,7 km/h (1 Bft) N-NW 329 0 min 0,000 mm 0,0 UV-I 105 W/m 6,9 C 7,8 C 4,8 km/h (1 Bft) 97,87 %
27.10.2018 13:12 7,9 C 10,6 C 8,9 C 94 % 1007,5 hPa 0,0 l/m 1,7 km/h (1 Bft) N-NW 331 0 min 0,000 mm 0,0 UV-I 109 W/m 7,0 C 7,9 C 4,8 km/h (1 Bft) 92,00 %
27.10.2018 13:14 7,8 C 10,6 C 8,9 C 94 % 1007,4 hPa 0,0 l/m 3,3 km/h (1 Bft) N-NW 331 0 min 0,000 mm 0,0 UV-I 104 W/m 6,9 C 7,8 C 4,8 km/h (1 Bft) 95,12 %
27.10.2018 13:16 7,8 C 10,6 C 8,9 C 94 % 1007,4 hPa 0,0 l/m 1,8 km/h (1 Bft) N-NW 331 0 min 0,000 mm 0,0 UV-I 98 W/m 6,9 C 7,8 C 4,8 km/h (1 Bft) 92,00 %
27.10.2018 13:18 7,9 C 10,6 C 8,9 C 94 % 1007,5 hPa 0,0 l/m 0,9 km/h (0 Bft) N-NW 331 0 min 0,000 mm 0,0 UV-I 99 W/m 7,0 C 7,9 C 3,2 km/h (1 Bft) 93,62 %
27.10.2018 13:20 7,9 C 10,6 C 8,9 C 94 % 1007,5 hPa 0,0 l/m 1,0 km/h (0 Bft) N-NW 331 0 min 0,000 mm 0,0 UV-I 100 W/m 7,0 C 7,9 C 1,6 km/h (1 Bft) 93,62 %
27.10.2018 13:22 8,0 C 10,6 C 9,4 C 94 % 1007,5 hPa 0,2 l/m 0,8 km/h (0 Bft) N-NW 331 0 min 0,000 mm 0,0 UV-I 99 W/m 7,1 C 8,0 C 1,6 km/h (1 Bft) 91,67 %
27.10.2018 13:24 7,9 C 10,6 C 9,4 C 94 % 1007,4 hPa 0,0 l/m 0,6 km/h (0 Bft) N-NW 331 0 min 0,000 mm 0,0 UV-I 98 W/m 7,0 C 7,9 C 1,6 km/h (1 Bft) 92,68 %
27.10.2018 13:26 7,9 C 10,6 C 9,4 C 94 % 1007,4 hPa 0,0 l/m 0,2 km/h (0 Bft) N-NW 331 0 min 0,000 mm 0,0 UV-I 110 W/m 7,0 C 7,9 C 1,6 km/h (1 Bft) 93,75 %
27.10.2018 13:28 7,9 C 10,6 C 9,4 C 94 % 1007,3 hPa 0,0 l/m 0,0 km/h (0 Bft) N-NW 331 0 min 0,000 mm 0,4 UV-I 121 W/m 7,0 C 7,9 C 0,0 km/h (0 Bft) 92,86 %
27.10.2018 13:30 8,0 C 10,6 C 10,0 C 94 % 1007,3 hPa 0,0 l/m 1,1 km/h (1 Bft) N-NW 331 0 min 0,000 mm 0,5 UV-I 138 W/m 7,1 C 8,0 C 3,2 km/h (1 Bft) 92,00 %
27.10.2018 13:32 8,0 C 10,6 C 10,0 C 94 % 1007,3 hPa 0,0 l/m 1,5 km/h (1 Bft) N-NW 332 0 min 0,000 mm 0,5 UV-I 146 W/m 7,1 C 8,0 C 3,2 km/h (1 Bft) 92,68 %
27.10.2018 13:34 8,1 C 10,6 C 10,0 C 94 % 1007,2 hPa 0,0 l/m 0,9 km/h (0 Bft) N-NW 332 0 min 0,000 mm 0,5 UV-I 145 W/m 7,2 C 8,1 C 1,6 km/h (1 Bft) 92,86 %
27.10.2018 13:36 8,1 C 10,6 C 10,0 C 94 % 1007,2 hPa 0,0 l/m 1,1 km/h (1 Bft) N-NW 333 0 min 0,000 mm 0,5 UV-I 133 W/m 7,2 C 8,1 C 3,2 km/h (1 Bft) 97,37 %
27.10.2018 13:38 8,2 C 10,6 C 10,0 C 94 % 1007,2 hPa 0,0 l/m 3,2 km/h (1 Bft) N-NW 332 0 min 0,000 mm 0,5 UV-I 137 W/m 7,3 C 8,2 C 4,8 km/h (1 Bft) 94,64 %
27.10.2018 13:40 8,2 C 10,6 C 10,0 C 94 % 1007,2 hPa 0,0 l/m 3,3 km/h (1 Bft) N-NW 332 0 min 0,000 mm 0,5 UV-I 143 W/m 7,3 C 8,2 C 4,8 km/h (1 Bft) 95,65 %
27.10.2018 13:42 8,2 C 10,6 C 10,0 C 94 % 1007,3 hPa 0,0 l/m 3,0 km/h (1 Bft) N-NW 335 0 min 0,000 mm 0,6 UV-I 153 W/m 7,3 C 8,2 C 4,8 km/h (1 Bft) 97,18 %
27.10.2018 13:44 8,2 C 10,6 C 10,0 C 93 % 1007,3 hPa 0,0 l/m 3,6 km/h (1 Bft) N 9 0 min 0,000 mm 0,6 UV-I 159 W/m 7,1 C 8,2 C 6,4 km/h (2 Bft) 97,37 %
27.10.2018 13:46 8,2 C 10,6 C 10,0 C 93 % 1007,3 hPa 0,0 l/m 4,4 km/h (1 Bft) N 5 0 min 0,000 mm 0,6 UV-I 157 W/m 7,1 C 8,2 C 6,4 km/h (2 Bft) 96,00 %
27.10.2018 13:48 8,2 C 10,6 C 10,0 C 93 % 1007,2 hPa 0,0 l/m 4,3 km/h (1 Bft) N-NW 341 0 min 0,000 mm 0,6 UV-I 162 W/m 7,1 C 8,2 C 6,4 km/h (2 Bft) 97,73 %
27.10.2018 13:50 8,3 C 10,6 C 10,0 C 93 % 1007,2 hPa 0,0 l/m 2,1 km/h (1 Bft) N-NW 342 0 min 0,000 mm 0,6 UV-I 161 W/m 7,2 C 8,3 C 3,2 km/h (1 Bft) 98,00 %
27.10.2018 13:52 8,3 C 10,6 C 10,6 C 93 % 1007,2 hPa 0,0 l/m 1,6 km/h (1 Bft) N-NW 342 0 min 0,000 mm 0,5 UV-I 156 W/m 7,2 C 8,3 C 3,2 km/h (1 Bft) 98,00 %
27.10.2018 13:54 8,3 C 10,6 C 10,6 C 93 % 1007,1 hPa 0,0 l/m 1,8 km/h (1 Bft) N-NW 342 0 min 0,000 mm 0,5 UV-I 155 W/m 7,2 C 8,3 C 3,2 km/h (1 Bft) 100,00 %
27.10.2018 13:56 8,3 C 10,6 C 10,6 C 93 % 1007,2 hPa 0,2 l/m 1,9 km/h (1 Bft) N-NW 342 0 min 0,000 mm 0,5 UV-I 152 W/m 7,2 C 8,3 C 3,2 km/h (1 Bft) 98,11 %
27.10.2018 13:58 8,3 C 10,6 C 10,6 C 93 % 1007,2 hPa 0,0 l/m 2,0 km/h (1 Bft) N-NW 342 0 min 0,000 mm 0,5 UV-I 145 W/m 7,2 C 8,3 C 3,2 km/h (1 Bft) 95,74 %
27.10.2018 14:00 8,2 C 10,6 C 10,6 C 93 % 1007,2 hPa 0,0 l/m 0,3 km/h (0 Bft) N-NW 342 0 min 0,000 mm 0,5 UV-I 142 W/m 7,1 C 8,2 C 1,6 km/h (1 Bft) 100,00 %
27.10.2018 14:02 8,3 C 10,6 C 10,0 C 93 % 1007,3 hPa 0,0 l/m 2,1 km/h (1 Bft) N-NW 342 0 min 0,050 mm 0,4 UV-I 132 W/m 7,2 C 8,3 C 3,2 km/h (1 Bft) 100,00 %
27.10.2018 14:04 8,3 C 10,6 C 10,0 C 93 % 1007,2 hPa 0,0 l/m 2,9 km/h (1 Bft) N-NW 342 0 min 0,000 mm 0,0 UV-I 118 W/m 7,2 C 8,3 C 4,8 km/h (1 Bft) 100,00 %
27.10.2018 14:06 8,3 C 10,6 C 10,0 C 93 % 1007,2 hPa 0,0 l/m 2,8 km/h (1 Bft) N-NW 344 0 min 0,000 mm 0,0 UV-I 110 W/m 7,2 C 8,3 C 4,8 km/h (1 Bft) 100,00 %
27.10.2018 14:08 8,3 C 10,6 C 9,4 C 93 % 1007,1 hPa 0,0 l/m 2,6 km/h (1 Bft) N-NW 344 0 min 0,000 mm 0,0 UV-I 106 W/m 7,2 C 8,3 C 3,2 km/h (1 Bft) 98,00 %
27.10.2018 14:10 8,2 C 10,6 C 9,4 C 93 % 1007,1 hPa 0,0 l/m 2,8 km/h (1 Bft) N-NW 345 0 min 0,000 mm 0,0 UV-I 107 W/m 7,1 C 8,2 C 4,8 km/h (1 Bft) 100,00 %
27.10.2018 14:12 8,2 C 10,6 C 9,4 C 92 % 1007,1 hPa 0,0 l/m 4,0 km/h (1 Bft) N-NO 14 0 min 0,000 mm 0,0 UV-I 112 W/m 7,0 C 8,2 C 6,4 km/h (2 Bft) 98,11 %
27.10.2018 14:14 8,3 C 10,6 C 9,4 C 93 % 1007,1 hPa 0,0 l/m 3,0 km/h (1 Bft) N-NO 14 0 min 0,000 mm 0,0 UV-I 117 W/m 7,2 C 8,3 C 4,8 km/h (1 Bft) 100,00 %
27.10.2018 14:16 8,2 C 10,6 C 9,4 C 92 % 1007,2 hPa 0,0 l/m 3,9 km/h (1 Bft) NW 319 0 min 0,000 mm 0,0 UV-I 107 W/m 7,0 C 8,2 C 6,4 km/h (2 Bft) 100,00 %
27.10.2018 14:18 8,2 C 10,6 C 9,4 C 92 % 1007,2 hPa 0,0 l/m 2,8 km/h (1 Bft) N-NW 329 0 min 0,000 mm 0,0 UV-I 93 W/m 7,0 C 8,2 C 4,8 km/h (1 Bft) 100,00 %
27.10.2018 14:20 8,1 C 10,6 C 8,9 C 92 % 1007,2 hPa 0,0 l/m 3,2 km/h (1 Bft) N-NW 331 0 min 0,000 mm 0,0 UV-I 87 W/m 6,9 C 8,1 C 4,8 km/h (1 Bft) 100,00 %
27.10.2018 14:22 8,2 C 10,6 C 8,9 C 92 % 1007,2 hPa 0,0 l/m 2,7 km/h (1 Bft) N-NW 331 0 min 0,000 mm 0,0 UV-I 88 W/m 7,0 C 8,2 C 4,8 km/h (1 Bft) 100,00 %
27.10.2018 14:24 8,3 C 10,6 C 9,4 C 93 % 1007,1 hPa 0,0 l/m 2,6 km/h (1 Bft) N-NW 331 0 min 0,000 mm 0,0 UV-I 87 W/m 7,2 C 8,3 C 3,2 km/h (1 Bft) 98,00 %
27.10.2018 14:26 8,3 C 10,6 C 9,4 C 93 % 1007,1 hPa 0,0 l/m 3,9 km/h (1 Bft) N 355 0 min 0,000 mm 0,0 UV-I 81 W/m 7,2 C 8,3 C 4,8 km/h (1 Bft) 100,00 %
27.10.2018 14:28 8,3 C 10,6 C 8,9 C 93 % 1007,2 hPa 0,0 l/m 4,9 km/h (1 Bft) N 5 0 min 0,000 mm 0,0 UV-I 79 W/m 7,2 C 8,3 C 6,4 km/h (2 Bft) 100,00 %
27.10.2018 14:30 8,2 C 10,6 C 8,9 C 93 % 1007,1 hPa 0,0 l/m 4,3 km/h (1 Bft) N 10 0 min 0,000 mm 0,0 UV-I 83 W/m 7,1 C 8,2 C 6,4 km/h (2 Bft) 100,00 %
27.10.2018 14:32 8,1 C 10,6 C 8,9 C 92 % 1007,0 hPa 0,0 l/m 4,7 km/h (1 Bft) N 355 0 min 0,000 mm 0,0 UV-I 80 W/m 6,9 C 8,1 C 8,0 km/h (2 Bft) 100,00 %
27.10.2018 14:34 8,1 C 10,6 C 8,3 C 92 % 1007,0 hPa 0,0 l/m 4,2 km/h (1 Bft) N-NO 19 0 min 0,000 mm 0,0 UV-I 74 W/m 6,9 C 8,1 C 4,8 km/h (1 Bft) 100,00 %
27.10.2018 14:36 8,2 C 10,6 C 8,3 C 92 % 1007,0 hPa 0,0 l/m 2,3 km/h (1 Bft) N-NO 19 0 min 0,000 mm 0,0 UV-I 65 W/m 7,0 C 8,2 C 4,8 km/h (1 Bft) 96,00 %
27.10.2018 14:38 8,2 C 10,6 C 8,3 C 92 % 1007,0 hPa 0,0 l/m 2,7 km/h (1 Bft) N-NO 17 0 min 0,000 mm 0,0 UV-I 63 W/m 7,0 C 8,2 C 4,8 km/h (1 Bft) 100,00 %
27.10.2018 14:40 8,2 C 10,6 C 8,3 C 93 % 1007,0 hPa 0,0 l/m 3,9 km/h (1 Bft) N-NO 17 0 min 0,000 mm 0,0 UV-I 63 W/m 7,1 C 8,2 C 6,4 km/h (2 Bft) 96,23 %
27.10.2018 14:42 8,2 C 10,6 C 8,3 C 92 % 1007,1 hPa 0,0 l/m 3,8 km/h (1 Bft) N-NO 15 0 min 0,000 mm 0,0 UV-I 63 W/m 7,0 C 8,2 C 4,8 km/h (1 Bft) 96,00 %
27.10.2018 14:44 8,2 C 10,6 C 8,3 C 93 % 1007,1 hPa 0,0 l/m 4,8 km/h (1 Bft) N-NO 16 0 min 0,000 mm 0,0 UV-I 65 W/m 7,1 C 8,2 C 8,0 km/h (2 Bft) 95,74 %
27.10.2018 14:46 8,2 C 10,6 C 8,3 C 92 % 1007,0 hPa 0,0 l/m 5,8 km/h (2 Bft) N-NO 24 0 min 0,000 mm 0,0 UV-I 66 W/m 7,0 C 8,2 C 8,0 km/h (2 Bft) 97,22 %
27.10.2018 14:48 8,1 C 10,6 C 8,3 C 92 % 1007,0 hPa 0,0 l/m 5,5 km/h (1 Bft) N-NO 26 0 min 0,000 mm 0,0 UV-I 62 W/m 6,9 C 8,1 C 8,0 km/h (2 Bft) 97,37 %
27.10.2018 14:50 8,1 C 10,6 C 8,3 C 92 % 1007,0 hPa 0,0 l/m 5,0 km/h (1 Bft) N 9 0 min 0,000 mm 0,0 UV-I 68 W/m 6,9 C 8,1 C 6,4 km/h (2 Bft) 98,46 %
27.10.2018 14:52 8,1 C 10,6 C 8,3 C 92 % 1007,0 hPa 0,0 l/m 3,3 km/h (1 Bft) N 5 0 min 0,000 mm 0,0 UV-I 76 W/m 6,9 C 8,1 C 4,8 km/h (1 Bft) 94,00 %
27.10.2018 14:54 8,1 C 10,6 C 8,3 C 92 % 1007,0 hPa 0,0 l/m 4,2 km/h (1 Bft) N-NO 26 0 min 0,000 mm 0,0 UV-I 73 W/m 6,9 C 8,1 C 8,0 km/h (2 Bft) 97,37 %
27.10.2018 14:56 8,1 C 10,6 C 8,3 C 92 % 1007,0 hPa 0,0 l/m 4,2 km/h (1 Bft) N-NO 12 0 min 0,000 mm 0,0 UV-I 79 W/m 6,9 C 8,1 C 6,4 km/h (2 Bft) 98,00 %
27.10.2018 14:58 8,1 C 10,6 C 8,3 C 92 % 1007,0 hPa 0,0 l/m 4,0 km/h (1 Bft) N-NO 16 0 min 0,000 mm 0,0 UV-I 86 W/m 6,9 C 8,1 C 6,4 km/h (2 Bft) 94,00 %
27.10.2018 15:00 8,1 C 10,6 C 8,3 C 92 % 1007,0 hPa 0,0 l/m 3,8 km/h (1 Bft) N-NO 24 0 min 0,051 mm 0,0 UV-I 90 W/m 6,9 C 8,1 C 4,8 km/h (1 Bft) 100,00 %
27.10.2018 15:02 8,1 C 10,6 C 8,3 C 92 % 1007,0 hPa 0,0 l/m 3,1 km/h (1 Bft) N 5 0 min 0,000 mm 0,0 UV-I 85 W/m 6,9 C 8,1 C 4,8 km/h (1 Bft) 100,00 %
27.10.2018 15:04 8,1 C 10,6 C 8,9 C 92 % 1006,9 hPa 0,0 l/m 3,8 km/h (1 Bft) N 355 0 min 0,000 mm 0,0 UV-I 92 W/m 6,9 C 8,1 C 4,8 km/h (1 Bft) 98,39 %
27.10.2018 15:06 8,1 C 10,6 C 8,9 C 92 % 1006,9 hPa 0,0 l/m 5,1 km/h (1 Bft) N-NO 22 0 min 0,000 mm 0,0 UV-I 98 W/m 6,9 C 8,1 C 6,4 km/h (2 Bft) 100,00 %
27.10.2018 15:09 8,2 C 10,6 C 8,9 C 92 % 1006,8 hPa 0,0 l/m 4,1 km/h (1 Bft) N-NO 14 0 min 0,000 mm 0,0 UV-I 106 W/m 7,0 C 8,2 C 6,4 km/h (2 Bft) 97,47 %
27.10.2018 15:10 8,2 C 10,6 C 8,9 C 92 % 1006,8 hPa 0,0 l/m 4,8 km/h (1 Bft) N-NO 15 0 min 0,000 mm 0,0 UV-I 110 W/m 7,0 C 8,2 C 6,4 km/h (2 Bft) 100,00 %
27.10.2018 15:12 8,2 C 10,6 C 8,9 C 92 % 1006,9 hPa 0,0 l/m 3,4 km/h (1 Bft) N-NO 17 0 min 0,000 mm 0,0 UV-I 102 W/m 7,0 C 8,2 C 4,8 km/h (1 Bft) 100,00 %
27.10.2018 15:14 8,2 C 10,6 C 8,9 C 92 % 1006,9 hPa 0,0 l/m 3,7 km/h (1 Bft) N-NO 22 0 min 0,000 mm 0,0 UV-I 93 W/m 7,0 C 8,2 C 4,8 km/h (1 Bft) 96,00 %
27.10.2018 15:16 8,2 C 10,6 C 8,9 C 92 % 1006,9 hPa 0,0 l/m 3,2 km/h (1 Bft) NO 42 0 min 0,000 mm 0,0 UV-I 87 W/m 7,0 C 8,2 C 4,8 km/h (1 Bft) 91,49 %
27.10.2018 15:18 8,2 C 10,6 C 8,9 C 92 % 1006,8 hPa 0,0 l/m 3,6 km/h (1 Bft) NO 42 0 min 0,000 mm 0,0 UV-I 87 W/m 7,0 C 8,2 C 4,8 km/h (1 Bft) 95,74 %
27.10.2018 15:20 8,2 C 10,6 C 8,9 C 92 % 1007,0 hPa 0,0 l/m 3,7 km/h (1 Bft) NO 42 0 min 0,000 mm 0,0 UV-I 65 W/m 7,0 C 8,2 C 4,8 km/h (1 Bft) 98,11 %
27.10.2018 15:22 8,2 C 10,6 C 8,9 C 92 % 1007,0 hPa 0,0 l/m 2,2 km/h (1 Bft) NO 42 0 min 0,000 mm 0,0 UV-I 47 W/m 7,0 C 8,2 C 3,2 km/h (1 Bft) 97,44 %
27.10.2018 15:24 8,2 C 10,6 C 8,3 C 92 % 1007,0 hPa 0,0 l/m 2,5 km/h (1 Bft) NO 42 0 min 0,000 mm 0,0 UV-I 45 W/m 7,0 C 8,2 C 4,8 km/h (1 Bft) 96,00 %
27.10.2018 15:26 8,2 C 10,6 C 8,3 C 92 % 1006,9 hPa 0,0 l/m 3,1 km/h (1 Bft) NO 44 0 min 0,000 mm 0,0 UV-I 49 W/m 7,0 C 8,2 C 4,8 km/h (1 Bft) 94,00 %
27.10.2018 15:28 8,2 C 10,6 C 8,3 C 92 % 1007,0 hPa 0,0 l/m 2,9 km/h (1 Bft) NO 44 0 min 0,000 mm 0,0 UV-I 48 W/m 7,0 C 8,2 C 4,8 km/h (1 Bft) 93,62 %
27.10.2018 15:30 8,2 C 10,6 C 8,3 C 92 % 1006,9 hPa 0,0 l/m 3,1 km/h (1 Bft) NO 44 0 min 0,000 mm 0,0 UV-I 38 W/m 7,0 C 8,2 C 4,8 km/h (1 Bft) 96,00 %
27.10.2018 15:32 8,1 C 10,6 C 8,3 C 92 % 1007,0 hPa 0,0 l/m 3,7 km/h (1 Bft) NO 44 0 min 0,000 mm 0,0 UV-I 35 W/m 6,9 C 8,1 C 4,8 km/h (1 Bft) 100,00 %
27.10.2018 15:34 8,1 C 10,6 C 8,3 C 92 % 1006,9 hPa 0,0 l/m 4,7 km/h (1 Bft) NO 44 0 min 0,000 mm 0,0 UV-I 37 W/m 6,9 C 8,1 C 6,4 km/h (2 Bft) 95,74 %
27.10.2018 15:36 8,1 C 10,6 C 8,3 C 92 % 1006,7 hPa 0,0 l/m 4,4 km/h (1 Bft) NO 36 0 min 0,000 mm 0,0 UV-I 35 W/m 6,9 C 8,1 C 6,4 km/h (2 Bft) 97,87 %
27.10.2018 15:38 8,1 C 10,6 C 8,3 C 92 % 1006,7 hPa 0,0 l/m 6,4 km/h (2 Bft) N-NO 17 0 min 0,000 mm 0,0 UV-I 35 W/m 6,9 C 8,1 C 8,0 km/h (2 Bft) 98,00 %
27.10.2018 15:40 8,1 C 10,6 C 7,8 C 92 % 1006,7 hPa 0,0 l/m 6,2 km/h (2 Bft) N-NW 346 0 min 0,000 mm 0,0 UV-I 36 W/m 6,9 C 8,1 C 8,0 km/h (2 Bft) 97,56 %
27.10.2018 15:42 7,9 C 10,6 C 7,8 C 92 % 1006,8 hPa 0,0 l/m 5,4 km/h (1 Bft) N 355 0 min 0,000 mm 0,0 UV-I 37 W/m 6,7 C 7,9 C 8,0 km/h (2 Bft) 98,00 %
27.10.2018 15:44 7,9 C 10,6 C 7,8 C 92 % 1006,9 hPa 0,0 l/m 3,4 km/h (1 Bft) N 360 0 min 0,000 mm 0,0 UV-I 38 W/m 6,7 C 7,9 C 4,8 km/h (1 Bft) 98,00 %
27.10.2018 15:46 7,9 C 10,6 C 7,8 C 92 % 1007,0 hPa 0,0 l/m 2,5 km/h (1 Bft) N 11 0 min 0,000 mm 0,0 UV-I 37 W/m 6,7 C 7,9 C 4,8 km/h (1 Bft) 97,87 %
27.10.2018 15:48 7,8 C 10,6 C 7,8 C 91 % 1007,0 hPa 0,0 l/m 2,4 km/h (1 Bft) NO 41 0 min 0,000 mm 0,0 UV-I 32 W/m 6,4 C 7,8 C 4,8 km/h (1 Bft) 100,00 %
27.10.2018 15:50 7,8 C 10,6 C 7,8 C 92 % 1007,0 hPa 0,0 l/m 3,7 km/h (1 Bft) NO 42 0 min 0,000 mm 0,0 UV-I 30 W/m 6,6 C 7,8 C 6,4 km/h (2 Bft) 100,00 %
27.10.2018 15:52 7,8 C 10,6 C 7,8 C 91 % 1007,1 hPa 0,0 l/m 3,7 km/h (1 Bft) NO 42 0 min 0,000 mm 0,0 UV-I 28 W/m 6,4 C 7,8 C 4,8 km/h (1 Bft) 98,11 %
27.10.2018 15:54 7,8 C 10,6 C 7,8 C 91 % 1007,1 hPa 0,0 l/m 4,9 km/h (1 Bft) NO 42 0 min 0,000 mm 0,0 UV-I 25 W/m 6,4 C 7,8 C 6,4 km/h (2 Bft) 97,87 %
27.10.2018 15:56 7,8 C 10,6 C 7,8 C 91 % 1007,1 hPa 0,0 l/m 4,1 km/h (1 Bft) NO 42 0 min 0,000 mm 0,0 UV-I 26 W/m 6,4 C 7,8 C 6,4 km/h (2 Bft) 100,00 %
27.10.2018 15:58 7,8 C 10,6 C 7,8 C 91 % 1007,1 hPa 0,0 l/m 4,4 km/h (1 Bft) NO 39 0 min 0,000 mm 0,0 UV-I 25 W/m 6,4 C 7,8 C 6,4 km/h (2 Bft) 95,74 %
27.10.2018 16:00 7,8 C 10,6 C 7,2 C 91 % 1007,1 hPa 0,0 l/m 4,4 km/h (1 Bft) NO 39 0 min 0,026 mm 0,0 UV-I 25 W/m 6,4 C 7,8 C 4,8 km/h (1 Bft) 100,00 %
27.10.2018 16:02 7,8 C 10,6 C 7,2 C 91 % 1007,1 hPa 0,0 l/m 3,7 km/h (1 Bft) NO 39 0 min 0,000 mm 0,0 UV-I 25 W/m 6,4 C 7,8 C 4,8 km/h (1 Bft) 94,00 %
27.10.2018 16:04 7,7 C 10,6 C 7,2 C 91 % 1007,1 hPa 0,0 l/m 4,6 km/h (1 Bft) NO 34 0 min 0,000 mm 0,0 UV-I 22 W/m 6,3 C 7,7 C 6,4 km/h (2 Bft) 95,74 %
27.10.2018 16:06 7,7 C 10,6 C 7,2 C 91 % 1007,0 hPa 0,0 l/m 4,9 km/h (1 Bft) NO 34 0 min 0,000 mm 0,0 UV-I 24 W/m 6,3 C 7,7 C 6,4 km/h (2 Bft) 97,87 %
27.10.2018 16:08 7,7 C 10,6 C 7,2 C 91 % 1006,9 hPa 0,0 l/m 5,1 km/h (1 Bft) N-NO 22 0 min 0,000 mm 0,0 UV-I 25 W/m 6,3 C 7,7 C 8,0 km/h (2 Bft) 98,00 %
27.10.2018 16:10 7,7 C 10,6 C 7,2 C 91 % 1007,0 hPa 0,2 l/m 3,8 km/h (1 Bft) N-NO 22 0 min 0,000 mm 0,0 UV-I 22 W/m 6,3 C 7,7 C 4,8 km/h (1 Bft) 98,00 %
27.10.2018 16:12 7,7 C 10,6 C 7,2 C 91 % 1007,0 hPa 0,0 l/m 3,1 km/h (1 Bft) N-NO 22 0 min 0,000 mm 0,0 UV-I 21 W/m 6,3 C 7,7 C 4,8 km/h (1 Bft) 97,56 %
27.10.2018 16:14 7,7 C 10,6 C 7,2 C 91 % 1007,0 hPa 0,0 l/m 3,1 km/h (1 Bft) N-NO 22 0 min 0,000 mm 0,0 UV-I 23 W/m 6,3 C 7,7 C 4,8 km/h (1 Bft) 97,87 %
27.10.2018 16:16 7,6 C 10,6 C 7,2 C 91 % 1007,0 hPa 0,0 l/m 1,9 km/h (1 Bft) N-NO 22 0 min 0,000 mm 0,0 UV-I 20 W/m 6,2 C 7,6 C 3,2 km/h (1 Bft) 98,00 %
27.10.2018 16:18 7,6 C 10,6 C 7,2 C 91 % 1007,1 hPa 0,0 l/m 1,7 km/h (1 Bft) N-NO 22 0 min 0,000 mm 0,0 UV-I 19 W/m 6,2 C 7,6 C 3,2 km/h (1 Bft) 97,87 %
27.10.2018 16:20 7,6 C 10,6 C 7,2 C 91 % 1007,0 hPa 0,0 l/m 2,9 km/h (1 Bft) N-NO 22 0 min 0,000 mm 0,0 UV-I 19 W/m 6,2 C 7,6 C 3,2 km/h (1 Bft) 97,56 %
27.10.2018 16:22 7,6 C 10,6 C 7,2 C 91 % 1007,1 hPa 0,0 l/m 2,9 km/h (1 Bft) N-NO 22 0 min 0,000 mm 0,0 UV-I 19 W/m 6,2 C 7,6 C 4,8 km/h (1 Bft) 98,00 %
27.10.2018 16:24 7,6 C 10,6 C 7,2 C 91 % 1007,1 hPa 0,0 l/m 1,8 km/h (1 Bft) N-NO 22 0 min 0,000 mm 0,0 UV-I 17 W/m 6,2 C 7,6 C 3,2 km/h (1 Bft) 98,00 %
27.10.2018 16:26 7,6 C 10,6 C 7,2 C 92 % 1007,1 hPa 0,0 l/m 1,2 km/h (1 Bft) N-NO 22 0 min 0,000 mm 0,0 UV-I 16 W/m 6,4 C 7,6 C 3,2 km/h (1 Bft) 100,00 %
27.10.2018 16:28 7,6 C 10,6 C 7,2 C 92 % 1007,1 hPa 0,0 l/m 1,0 km/h (0 Bft) N-NO 22 0 min 0,000 mm 0,0 UV-I 16 W/m 6,4 C 7,6 C 1,6 km/h (1 Bft) 98,00 %
27.10.2018 16:30 7,6 C 10,6 C 7,2 C 92 % 1007,0 hPa 0,0 l/m 1,4 km/h (1 Bft) N-NO 22 0 min 0,000 mm 0,0 UV-I 16 W/m 6,4 C 7,6 C 1,6 km/h (1 Bft) 100,00 %
27.10.2018 16:32 7,6 C 10,6 C 7,2 C 92 % 1007,0 hPa 0,0 l/m 1,9 km/h (1 Bft) N-NO 22 0 min 0,000 mm 0,0 UV-I 16 W/m 6,4 C 7,6 C 3,2 km/h (1 Bft) 100,00 %
27.10.2018 16:34 7,5 C 10,6 C 7,2 C 91 % 1007,0 hPa 0,0 l/m 2,1 km/h (1 Bft) N-NO 22 0 min 0,000 mm 0,0 UV-I 15 W/m 6,1 C 7,5 C 3,2 km/h (1 Bft) 100,00 %
27.10.2018 16:36 7,6 C 10,6 C 7,2 C 92 % 1007,1 hPa 0,0 l/m 1,6 km/h (1 Bft) N-NO 22 0 min 0,000 mm 0,0 UV-I 14 W/m 6,4 C 7,6 C 3,2 km/h (1 Bft) 97,44 %
27.10.2018 16:38 7,5 C 10,6 C 7,2 C 91 % 1007,1 hPa 0,0 l/m 1,5 km/h (1 Bft) N-NO 22 0 min 0,000 mm 0,0 UV-I 14 W/m 6,1 C 7,5 C 1,6 km/h (1 Bft) 97,37 %
27.10.2018 16:40 7,5 C 10,6 C 7,2 C 91 % 1007,2 hPa 0,0 l/m 1,8 km/h (1 Bft) N-NO 22 0 min 0,000 mm 0,0 UV-I 14 W/m 6,1 C 7,5 C 3,2 km/h (1 Bft) 98,00 %
27.10.2018 16:42 7,5 C 10,6 C 7,2 C 91 % 1007,2 hPa 0,0 l/m 1,4 km/h (1 Bft) N-NO 22 0 min 0,000 mm 0,0 UV-I 14 W/m 6,1 C 7,5 C 3,2 km/h (1 Bft) 98,39 %
27.10.2018 16:44 7,6 C 10,6 C 7,2 C 91 % 1007,2 hPa 0,0 l/m 0,8 km/h (0 Bft) N-NO 22 0 min 0,000 mm 0,0 UV-I 14 W/m 6,2 C 7,6 C 1,6 km/h (1 Bft) 97,87 %
27.10.2018 16:46 7,6 C 10,6 C 7,2 C 92 % 1007,2 hPa 0,0 l/m 2,0 km/h (1 Bft) N-NO 22 0 min 0,000 mm 0,0 UV-I 14 W/m 6,4 C 7,6 C 3,2 km/h (1 Bft) 97,37 %
27.10.2018 16:48 7,6 C 10,6 C 7,2 C 92 % 1007,1 hPa 0,2 l/m 1,3 km/h (1 Bft) N-NO 22 0 min 0,000 mm 0,0 UV-I 16 W/m 6,4 C 7,6 C 3,2 km/h (1 Bft) 96,23 %
27.10.2018 16:50 7,6 C 10,6 C 7,2 C 92 % 1007,2 hPa 0,0 l/m 1,0 km/h (0 Bft) N-NO 22 0 min 0,000 mm 0,0 UV-I 15 W/m 6,4 C 7,6 C 1,6 km/h (1 Bft) 97,87 %
27.10.2018 16:52 7,6 C 10,6 C 7,2 C 92 % 1007,2 hPa 0,0 l/m 1,0 km/h (0 Bft) N-NO 22 0 min 0,000 mm 0,0 UV-I 14 W/m 6,4 C 7,6 C 1,6 km/h (1 Bft) 98,00 %
27.10.2018 16:54 7,4 C 10,6 C 7,2 C 92 % 1007,2 hPa 0,0 l/m 0,9 km/h (0 Bft) N-NO 22 0 min 0,000 mm 0,0 UV-I 14 W/m 6,2 C 7,4 C 1,6 km/h (1 Bft) 98,00 %
27.10.2018 16:56 7,4 C 10,6 C 7,2 C 92 % 1007,2 hPa 0,2 l/m 0,8 km/h (0 Bft) N-NO 22 0 min 0,000 mm 0,0 UV-I 14 W/m 6,2 C 7,4 C 1,6 km/h (1 Bft) 95,74 %
27.10.2018 16:58 7,4 C 10,6 C 7,2 C 92 % 1007,2 hPa 0,0 l/m 0,8 km/h (0 Bft) N-NO 22 0 min 0,000 mm 0,0 UV-I 14 W/m 6,2 C 7,4 C 1,6 km/h (1 Bft) 97,56 %
27.10.2018 17:00 7,4 C 10,6 C 7,2 C 92 % 1007,2 hPa 0,0 l/m 0,8 km/h (0 Bft) N-NO 22 0 min 0,000 mm 0,0 UV-I 12 W/m 6,2 C 7,4 C 1,6 km/h (1 Bft) 98,00 %
27.10.2018 17:02 7,4 C 10,6 C 7,2 C 92 % 1007,3 hPa 0,0 l/m 0,1 km/h (0 Bft) N-NO 22 0 min 0,000 mm 0,0 UV-I 12 W/m 6,2 C 7,4 C 1,6 km/h (1 Bft) 94,00 %
27.10.2018 17:04 7,3 C 10,6 C 7,2 C 92 % 1007,2 hPa 0,2 l/m 0,0 km/h (0 Bft) N-NO 22 0 min 0,000 mm 0,0 UV-I 12 W/m 6,1 C 7,3 C 0,0 km/h (0 Bft) 97,87 %
27.10.2018 17:06 7,3 C 10,6 C 7,2 C 93 % 1007,2 hPa 0,0 l/m 0,0 km/h (0 Bft) N-NO 22 0 min 0,000 mm 0,0 UV-I 12 W/m 6,2 C 7,3 C 0,0 km/h (0 Bft) 95,74 %
27.10.2018 17:08 7,3 C 10,6 C 7,2 C 93 % 1007,2 hPa 0,0 l/m 0,0 km/h (0 Bft) N-NO 22 0 min 0,000 mm 0,0 UV-I 11 W/m 6,2 C 7,3 C 0,0 km/h (0 Bft) 95,74 %
27.10.2018 17:10 7,3 C 10,6 C 7,2 C 93 % 1007,2 hPa 0,2 l/m 0,0 km/h (0 Bft) N-NO 22 0 min 0,000 mm 0,0 UV-I 11 W/m 6,2 C 7,3 C 0,0 km/h (0 Bft) 97,37 %
27.10.2018 17:12 7,3 C 10,6 C 7,2 C 93 % 1007,1 hPa 0,0 l/m 0,0 km/h (0 Bft) N-NO 22 0 min 0,000 mm 0,0 UV-I 11 W/m 6,2 C 7,3 C 0,0 km/h (0 Bft) 95,74 %
27.10.2018 17:14 7,3 C 10,6 C 7,2 C 93 % 1007,1 hPa 0,0 l/m 0,0 km/h (0 Bft) N-NO 22 0 min 0,000 mm 0,0 UV-I 11 W/m 6,2 C 7,3 C 0,0 km/h (0 Bft) 95,74 %
27.10.2018 17:16 7,3 C 10,6 C 7,2 C 93 % 1007,2 hPa 0,0 l/m 0,0 km/h (0 Bft) N-NO 22 0 min 0,000 mm 0,0 UV-I 9 W/m 6,2 C 7,3 C 0,0 km/h (0 Bft) 94,34 %
27.10.2018 17:18 7,3 C 10,6 C 7,2 C 93 % 1007,2 hPa 0,0 l/m 0,0 km/h (0 Bft) N-NO 22 0 min 0,000 mm 0,0 UV-I 9 W/m 6,2 C 7,3 C 0,0 km/h (0 Bft) 97,22 %
27.10.2018 17:20 7,3 C 10,6 C 7,2 C 94 % 1007,2 hPa 0,2 l/m 0,0 km/h (0 Bft) N-NO 22 0 min 0,000 mm 0,0 UV-I 8 W/m 6,4 C 7,3 C 0,0 km/h (0 Bft) 94,34 %
27.10.2018 17:22 7,3 C 10,6 C 7,2 C 94 % 1007,2 hPa 0,2 l/m 0,0 km/h (0 Bft) N-NO 22 0 min 0,000 mm 0,0 UV-I 7 W/m 6,4 C 7,3 C 0,0 km/h (0 Bft) 94,00 %
27.10.2018 17:24 7,3 C 10,6 C 7,2 C 94 % 1007,2 hPa 0,0 l/m 0,0 km/h (0 Bft) N-NO 22 0 min 0,000 mm 0,0 UV-I 7 W/m 6,4 C 7,3 C 0,0 km/h (0 Bft) 93,62 %
27.10.2018 17:26 7,3 C 10,6 C 7,2 C 94 % 1007,2 hPa 0,2 l/m 0,0 km/h (0 Bft) N-NO 22 0 min 0,000 mm 0,0 UV-I 7 W/m 6,4 C 7,3 C 0,0 km/h (0 Bft) 90,91 %
27.10.2018 17:28 7,3 C 10,6 C 7,2 C 94 % 1007,2 hPa 0,2 l/m 0,0 km/h (0 Bft) N-NO 22 0 min 0,000 mm 0,0 UV-I 7 W/m 6,4 C 7,3 C 0,0 km/h (0 Bft) 93,62 %
27.10.2018 17:30 7,3 C 10,6 C 7,2 C 94 % 1007,2 hPa 0,0 l/m 0,7 km/h (0 Bft) N-NO 22 0 min 0,000 mm 0,0 UV-I 6 W/m 6,4 C 7,3 C 1,6 km/h (1 Bft) 93,62 %
27.10.2018 17:32 7,3 C 10,6 C 7,2 C 94 % 1007,2 hPa 0,0 l/m 0,9 km/h (0 Bft) N-NO 22 0 min 0,000 mm 0,0 UV-I 5 W/m 6,4 C 7,3 C 1,6 km/h (1 Bft) 90,57 %
27.10.2018 17:34 7,3 C 10,6 C 7,2 C 94 % 1007,3 hPa 0,2 l/m 0,2 km/h (0 Bft) N-NO 22 0 min 0,000 mm 0,0 UV-I 5 W/m 6,4 C 7,3 C 1,6 km/h (1 Bft) 92,68 %
27.10.2018 17:36 7,3 C 10,6 C 7,2 C 94 % 1007,3 hPa 0,2 l/m 1,3 km/h (1 Bft) N-NO 22 0 min 0,000 mm 0,0 UV-I 5 W/m 6,4 C 7,3 C 3,2 km/h (1 Bft) 94,00 %
27.10.2018 17:38 7,2 C 10,6 C 7,2 C 94 % 1007,3 hPa 0,0 l/m 1,3 km/h (1 Bft) N-NO 22 0 min 0,000 mm 0,0 UV-I 5 W/m 6,3 C 7,2 C 1,6 km/h (1 Bft) 94,74 %
27.10.2018 17:40 7,2 C 10,6 C 7,2 C 95 % 1007,4 hPa 0,0 l/m 1,6 km/h (1 Bft) N-NO 22 0 min 0,000 mm 0,0 UV-I 5 W/m 6,5 C 7,2 C 3,2 km/h (1 Bft) 94,74 %
27.10.2018 17:42 7,3 C 10,6 C 7,2 C 95 % 1007,4 hPa 0,2 l/m 1,5 km/h (1 Bft) N-NO 22 0 min 0,000 mm 0,0 UV-I 5 W/m 6,6 C 7,3 C 3,2 km/h (1 Bft) 96,77 %
27.10.2018 17:44 7,3 C 10,6 C 7,2 C 95 % 1007,5 hPa 0,0 l/m 1,7 km/h (1 Bft) N-NO 22 0 min 0,000 mm 0,0 UV-I 3 W/m 6,6 C 7,3 C 3,2 km/h (1 Bft) 95,74 %
27.10.2018 17:46 7,2 C 10,6 C 7,2 C 95 % 1007,5 hPa 0,0 l/m 1,5 km/h (1 Bft) N-NO 22 0 min 0,000 mm 0,0 UV-I 0 W/m 6,5 C 7,2 C 3,2 km/h (1 Bft) 100,00 %
27.10.2018 17:48 7,3 C 10,6 C 7,2 C 95 % 1007,5 hPa 0,2 l/m 1,5 km/h (1 Bft) N-NO 24 0 min 0,000 mm 0,0 UV-I 0 W/m 6,6 C 7,3 C 3,2 km/h (1 Bft) 96,00 %
27.10.2018 17:50 7,2 C 10,6 C 7,2 C 95 % 1007,5 hPa 0,0 l/m 1,2 km/h (1 Bft) N-NO 24 0 min 0,000 mm 0,0 UV-I 0 W/m 6,5 C 7,2 C 3,2 km/h (1 Bft) 100,00 %
27.10.2018 17:52 7,2 C 10,6 C 7,2 C 95 % 1007,6 hPa 0,0 l/m 2,1 km/h (1 Bft) N-NO 24 0 min 0,000 mm 0,0 UV-I 0 W/m 6,5 C 7,2 C 3,2 km/h (1 Bft) 100,00 %
27.10.2018 17:54 7,2 C 10,6 C 7,2 C 95 % 1007,6 hPa 0,0 l/m 2,3 km/h (1 Bft) N-NO 24 0 min 0,000 mm 0,0 UV-I 0 W/m 6,5 C 7,2 C 3,2 km/h (1 Bft) 97,87 %
27.10.2018 17:56 7,2 C 10,6 C 7,2 C 95 % 1007,6 hPa 0,0 l/m 3,4 km/h (1 Bft) N-NO 25 0 min 0,000 mm 0,0 UV-I 0 W/m 6,5 C 7,2 C 4,8 km/h (1 Bft) 100,00 %
27.10.2018 17:58 7,2 C 10,6 C 7,2 C 95 % 1007,6 hPa 0,2 l/m 3,1 km/h (1 Bft) N-NO 25 0 min 0,000 mm 0,0 UV-I 0 W/m 6,5 C 7,2 C 4,8 km/h (1 Bft) 100,00 %
27.10.2018 18:00 7,2 C 10,6 C 7,2 C 95 % 1007,7 hPa 0,0 l/m 2,7 km/h (1 Bft) O 97 0 min 0,000 mm 0,0 UV-I 0 W/m 6,5 C 7,2 C 4,8 km/h (1 Bft) 100,00 %
27.10.2018 18:02 7,2 C 10,6 C 7,2 C 95 % 1007,7 hPa 0,2 l/m 3,8 km/h (1 Bft) O 95 0 min 0,000 mm 0,0 UV-I 0 W/m 6,5 C 7,2 C 4,8 km/h (1 Bft) 100,00 %
27.10.2018 18:04 7,2 C 10,6 C 7,2 C 95 % 1007,7 hPa 0,0 l/m 3,6 km/h (1 Bft) O 94 0 min 0,000 mm 0,0 UV-I 0 W/m 6,5 C 7,2 C 4,8 km/h (1 Bft) 100,00 %
27.10.2018 18:06 7,2 C 10,6 C 7,2 C 95 % 1007,8 hPa 0,0 l/m 3,6 km/h (1 Bft) O 94 0 min 0,000 mm 0,0 UV-I 0 W/m 6,5 C 7,2 C 4,8 km/h (1 Bft) 100,00 %
27.10.2018 18:08 7,2 C 10,6 C 7,2 C 95 % 1007,8 hPa 0,0 l/m 3,9 km/h (1 Bft) NO 50 0 min 0,000 mm 0,0 UV-I 0 W/m 6,5 C 7,2 C 4,8 km/h (1 Bft) 100,00 %
27.10.2018 18:10 7,2 C 10,6 C 7,2 C 95 % 1007,8 hPa 0,2 l/m 2,9 km/h (1 Bft) NO 50 0 min 0,000 mm 0,0 UV-I 0 W/m 6,5 C 7,2 C 4,8 km/h (1 Bft) 100,00 %
27.10.2018 18:12 7,2 C 10,6 C 7,2 C 95 % 1007,8 hPa 0,0 l/m 2,2 km/h (1 Bft) NO 51 0 min 0,000 mm 0,0 UV-I 0 W/m 6,5 C 7,2 C 3,2 km/h (1 Bft) 100,00 %
27.10.2018 18:14 7,2 C 10,6 C 7,2 C 95 % 1007,8 hPa 0,0 l/m 2,8 km/h (1 Bft) NO 50 0 min 0,000 mm 0,0 UV-I 0 W/m 6,5 C 7,2 C 3,2 km/h (1 Bft) 97,87 %
27.10.2018 18:16 7,2 C 10,6 C 7,2 C 95 % 1007,8 hPa 0,2 l/m 3,0 km/h (1 Bft) NO 50 0 min 0,000 mm 0,0 UV-I 0 W/m 6,5 C 7,2 C 4,8 km/h (1 Bft) 100,00 %
27.10.2018 18:18 7,1 C 10,6 C 7,2 C 95 % 1007,7 hPa 0,0 l/m 3,3 km/h (1 Bft) NO 50 0 min 0,000 mm 0,0 UV-I 0 W/m 6,4 C 7,1 C 4,8 km/h (1 Bft) 100,00 %
27.10.2018 18:20 7,1 C 10,6 C 7,2 C 95 % 1007,8 hPa 0,0 l/m 2,5 km/h (1 Bft) NO 50 0 min 0,000 mm 0,0 UV-I 0 W/m 6,4 C 7,1 C 4,8 km/h (1 Bft) 96,43 %
27.10.2018 18:22 7,1 C 10,6 C 7,2 C 95 % 1007,7 hPa 0,0 l/m 5,4 km/h (1 Bft) O-NO 57 0 min 0,000 mm 0,0 UV-I 0 W/m 6,4 C 7,1 C 6,4 km/h (2 Bft) 100,00 %
27.10.2018 18:24 7,1 C 10,6 C 7,2 C 95 % 1007,7 hPa 0,2 l/m 4,4 km/h (1 Bft) O-NO 61 0 min 0,000 mm 0,0 UV-I 0 W/m 6,4 C 7,1 C 6,4 km/h (2 Bft) 100,00 %
27.10.2018 18:26 7,1 C 10,6 C 7,2 C 95 % 1007,8 hPa 0,0 l/m 3,7 km/h (1 Bft) O-NO 61 0 min 0,000 mm 0,0 UV-I 0 W/m 6,4 C 7,1 C 6,4 km/h (2 Bft) 100,00 %
27.10.2018 18:29 7,0 C 10,6 C 6,7 C 95 % 1007,9 hPa 0,2 l/m 4,0 km/h (1 Bft) O-NO 61 0 min 0,000 mm 0,0 UV-I 0 W/m 6,3 C 7,0 C 6,4 km/h (2 Bft) 100,00 %
27.10.2018 18:30 7,0 C 10,6 C 6,7 C 95 % 1007,9 hPa 0,0 l/m 4,5 km/h (1 Bft) O-NO 66 0 min 0,000 mm 0,0 UV-I 0 W/m 6,3 C 7,0 C 6,4 km/h (2 Bft) 100,00 %
27.10.2018 18:32 7,0 C 10,6 C 6,7 C 95 % 1007,9 hPa 0,0 l/m 4,6 km/h (1 Bft) NO 49 0 min 0,000 mm 0,0 UV-I 0 W/m 6,3 C 7,0 C 6,4 km/h (2 Bft) 100,00 %
27.10.2018 18:34 7,0 C 10,6 C 6,7 C 95 % 1007,8 hPa 0,0 l/m 4,2 km/h (1 Bft) O-NO 61 0 min 0,000 mm 0,0 UV-I 0 W/m 6,3 C 7,0 C 6,4 km/h (2 Bft) 100,00 %
27.10.2018 18:36 6,9 C 10,6 C 6,7 C 95 % 1007,8 hPa 0,0 l/m 5,3 km/h (1 Bft) NO 55 0 min 0,000 mm 0,0 UV-I 0 W/m 6,2 C 6,9 C 8,0 km/h (2 Bft) 100,00 %
27.10.2018 18:39 6,9 C 10,6 C 6,7 C 95 % 1007,9 hPa 0,0 l/m 5,0 km/h (1 Bft) NO 54 0 min 0,000 mm 0,0 UV-I 0 W/m 6,2 C 6,9 C 6,4 km/h (2 Bft) 100,00 %
27.10.2018 18:40 6,9 C 10,6 C 6,7 C 95 % 1007,9 hPa 0,2 l/m 4,9 km/h (1 Bft) NO 51 0 min 0,000 mm 0,0 UV-I 0 W/m 6,2 C 6,9 C 6,4 km/h (2 Bft) 100,00 %
27.10.2018 18:42 6,8 C 10,6 C 6,7 C 95 % 1008,0 hPa 0,0 l/m 5,2 km/h (1 Bft) NO 51 0 min 0,000 mm 0,0 UV-I 0 W/m 6,1 C 6,8 C 8,0 km/h (2 Bft) 100,00 %
27.10.2018 18:44 6,8 C 10,6 C 6,7 C 95 % 1008,0 hPa 0,0 l/m 3,3 km/h (1 Bft) NO 51 0 min 0,000 mm 0,0 UV-I 0 W/m 6,1 C 6,8 C 4,8 km/h (1 Bft) 97,87 %
27.10.2018 18:46 6,8 C 10,6 C 6,7 C 95 % 1008,0 hPa 0,0 l/m 3,4 km/h (1 Bft) NO 51 0 min 0,000 mm 0,0 UV-I 0 W/m 6,1 C 6,8 C 4,8 km/h (1 Bft) 97,87 %
27.10.2018 18:48 6,8 C 10,6 C 6,7 C 95 % 1008,0 hPa 0,0 l/m 3,4 km/h (1 Bft) NO 51 0 min 0,000 mm 0,0 UV-I 0 W/m 6,1 C 6,8 C 4,8 km/h (1 Bft) 93,62 %
27.10.2018 18:50 6,8 C 10,6 C 6,7 C 95 % 1008,1 hPa 0,0 l/m 3,1 km/h (1 Bft) NO 51 0 min 0,000 mm 0,0 UV-I 0 W/m 6,1 C 6,8 C 4,8 km/h (1 Bft) 97,87 %
27.10.2018 18:52 6,8 C 10,6 C 6,7 C 95 % 1008,0 hPa 0,2 l/m 3,6 km/h (1 Bft) NO 51 0 min 0,000 mm 0,0 UV-I 0 W/m 6,1 C 6,8 C 4,8 km/h (1 Bft) 98,11 %
27.10.2018 18:54 6,8 C 10,6 C 6,7 C 95 % 1008,0 hPa 0,0 l/m 3,6 km/h (1 Bft) NO 51 0 min 0,000 mm 0,0 UV-I 0 W/m 6,1 C 6,8 C 4,8 km/h (1 Bft) 98,00 %
27.10.2018 18:56 6,8 C 10,6 C 6,7 C 95 % 1008,0 hPa 0,0 l/m 3,0 km/h (1 Bft) NO 51 0 min 0,000 mm 0,0 UV-I 0 W/m 6,1 C 6,8 C 3,2 km/h (1 Bft) 97,37 %
27.10.2018 18:58 6,8 C 10,6 C 6,7 C 95 % 1008,0 hPa 0,0 l/m 3,4 km/h (1 Bft) NO 53 0 min 0,000 mm 0,0 UV-I 0 W/m 6,1 C 6,8 C 4,8 km/h (1 Bft) 97,37 %
27.10.2018 19:00 6,8 C 10,6 C 6,7 C 95 % 1008,0 hPa 0,0 l/m 3,3 km/h (1 Bft) NO 53 0 min 0,000 mm 0,0 UV-I 0 W/m 6,1 C 6,8 C 4,8 km/h (1 Bft) 98,39 %
27.10.2018 19:02 6,8 C 10,6 C 6,7 C 95 % 1008,0 hPa 0,0 l/m 2,6 km/h (1 Bft) NO 53 0 min 0,000 mm 0,0 UV-I 0 W/m 6,1 C 6,8 C 3,2 km/h (1 Bft) 97,56 %
27.10.2018 19:04 6,8 C 10,6 C 6,7 C 95 % 1008,1 hPa 0,0 l/m 2,6 km/h (1 Bft) NO 53 0 min 0,000 mm 0,0 UV-I 0 W/m 6,1 C 6,8 C 3,2 km/h (1 Bft) 98,00 %
27.10.2018 19:06 6,8 C 10,6 C 6,7 C 96 % 1008,1 hPa 0,0 l/m 3,0 km/h (1 Bft) NO 53 0 min 0,000 mm 0,0 UV-I 0 W/m 6,2 C 6,8 C 4,8 km/h (1 Bft) 97,56 %
27.10.2018 19:08 6,8 C 10,6 C 6,7 C 96 % 1008,1 hPa 0,2 l/m 2,8 km/h (1 Bft) NO 53 0 min 0,000 mm 0,0 UV-I 0 W/m 6,2 C 6,8 C 4,8 km/h (1 Bft) 100,00 %
27.10.2018 19:10 6,8 C 10,6 C 6,7 C 96 % 1008,0 hPa 0,0 l/m 2,5 km/h (1 Bft) NO 53 0 min 0,000 mm 0,0 UV-I 0 W/m 6,2 C 6,8 C 3,2 km/h (1 Bft) 100,00 %
27.10.2018 19:12 6,8 C 10,6 C 6,7 C 96 % 1008,0 hPa 0,0 l/m 2,7 km/h (1 Bft) NO 53 0 min 0,000 mm 0,0 UV-I 0 W/m 6,2 C 6,8 C 3,2 km/h (1 Bft) 97,87 %
27.10.2018 19:14 6,8 C 10,6 C 6,7 C 96 % 1008,0 hPa 0,0 l/m 2,6 km/h (1 Bft) NO 53 0 min 0,000 mm 0,0 UV-I 0 W/m 6,2 C 6,8 C 3,2 km/h (1 Bft) 97,87 %
27.10.2018 19:16 6,8 C 10,6 C 6,7 C 96 % 1008,1 hPa 0,0 l/m 1,9 km/h (1 Bft) NO 53 0 min 0,000 mm 0,0 UV-I 0 W/m 6,2 C 6,8 C 3,2 km/h (1 Bft) 93,62 %
27.10.2018 19:18 6,8 C 10,6 C 6,7 C 96 % 1008,1 hPa 0,0 l/m 1,4 km/h (1 Bft) NO 53 0 min 0,000 mm 0,0 UV-I 0 W/m 6,2 C 6,8 C 3,2 km/h (1 Bft) 100,00 %
27.10.2018 19:20 6,8 C 10,6 C 6,7 C 96 % 1008,1 hPa 0,0 l/m 1,7 km/h (1 Bft) NO 53 0 min 0,000 mm 0,0 UV-I 0 W/m 6,2 C 6,8 C 3,2 km/h (1 Bft) 96,23 %
27.10.2018 19:22 6,8 C 10,6 C 6,7 C 95 % 1008,1 hPa 0,0 l/m 1,8 km/h (1 Bft) NO 53 0 min 0,000 mm 0,0 UV-I 0 W/m 6,1 C 6,8 C 3,2 km/h (1 Bft) 97,14 %
27.10.2018 19:24 6,8 C 10,6 C 6,7 C 96 % 1008,1 hPa 0,2 l/m 2,0 km/h (1 Bft) NO 53 0 min 0,000 mm 0,0 UV-I 0 W/m 6,2 C 6,8 C 3,2 km/h (1 Bft) 98,11 %
27.10.2018 19:26 6,8 C 10,6 C 6,7 C 96 % 1008,1 hPa 0,0 l/m 2,1 km/h (1 Bft) NO 53 0 min 0,000 mm 0,0 UV-I 0 W/m 6,2 C 6,8 C 3,2 km/h (1 Bft) 97,87 %
27.10.2018 19:28 6,7 C 10,6 C 6,7 C 96 % 1008,2 hPa 0,0 l/m 1,8 km/h (1 Bft) NO 53 0 min 0,000 mm 0,0 UV-I 0 W/m 6,1 C 6,7 C 3,2 km/h (1 Bft) 97,87 %
27.10.2018 19:30 6,7 C 10,6 C 6,7 C 96 % 1008,3 hPa 0,0 l/m 1,7 km/h (1 Bft) NO 53 0 min 0,000 mm 0,0 UV-I 0 W/m 6,1 C 6,7 C 3,2 km/h (1 Bft) 97,87 %
27.10.2018 19:32 6,7 C 10,6 C 6,7 C 96 % 1008,2 hPa 0,0 l/m 1,6 km/h (1 Bft) NO 53 0 min 0,000 mm 0,0 UV-I 0 W/m 6,1 C 6,7 C 3,2 km/h (1 Bft) 98,00 %
27.10.2018 19:34 6,8 C 10,6 C 6,7 C 96 % 1008,3 hPa 0,0 l/m 1,9 km/h (1 Bft) NO 53 0 min 0,000 mm 0,0 UV-I 0 W/m 6,2 C 6,8 C 3,2 km/h (1 Bft) 96,23 %
27.10.2018 19:36 6,8 C 10,6 C 6,7 C 96 % 1008,3 hPa 0,0 l/m 1,6 km/h (1 Bft) NO 53 0 min 0,000 mm 0,0 UV-I 0 W/m 6,2 C 6,8 C 3,2 km/h (1 Bft) 97,56 %
27.10.2018 19:38 6,8 C 10,6 C 6,7 C 96 % 1008,3 hPa 0,0 l/m 2,1 km/h (1 Bft) NO 53 0 min 0,000 mm 0,0 UV-I 0 W/m 6,2 C 6,8 C 3,2 km/h (1 Bft) 97,87 %
27.10.2018 19:40 6,8 C 10,6 C 6,7 C 96 % 1008,4 hPa 0,0 l/m 2,2 km/h (1 Bft) NO 53 0 min 0,000 mm 0,0 UV-I 0 W/m 6,2 C 6,8 C 3,2 km/h (1 Bft) 96,00 %
27.10.2018 19:42 6,8 C 10,6 C 6,7 C 96 % 1008,3 hPa 0,0 l/m 3,0 km/h (1 Bft) NO 53 0 min 0,000 mm 0,0 UV-I 0 W/m 6,2 C 6,8 C 3,2 km/h (1 Bft) 97,87 %
27.10.2018 19:44 6,8 C 10,6 C 6,7 C 96 % 1008,2 hPa 0,0 l/m 3,3 km/h (1 Bft) NO 53 0 min 0,000 mm 0,0 UV-I 0 W/m 6,2 C 6,8 C 4,8 km/h (1 Bft) 98,00 %
27.10.2018 19:46 6,8 C 10,6 C 6,7 C 96 % 1008,2 hPa 0,0 l/m 3,0 km/h (1 Bft) NO 53 0 min 0,000 mm 0,0 UV-I 0 W/m 6,2 C 6,8 C 3,2 km/h (1 Bft) 97,37 %
27.10.2018 19:48 6,8 C 10,6 C 6,7 C 96 % 1008,2 hPa 0,0 l/m 2,3 km/h (1 Bft) NO 53 0 min 0,000 mm 0,0 UV-I 0 W/m 6,2 C 6,8 C 3,2 km/h (1 Bft) 100,00 %
27.10.2018 19:50 6,8 C 10,6 C 6,7 C 96 % 1008,2 hPa 0,0 l/m 2,1 km/h (1 Bft) NO 53 0 min 0,000 mm 0,0 UV-I 0 W/m 6,2 C 6,8 C 3,2 km/h (1 Bft) 97,22 %
27.10.2018 19:52 6,8 C 10,6 C 6,7 C 96 % 1008,1 hPa 0,2 l/m 2,7 km/h (1 Bft) NO 53 0 min 0,000 mm 0,0 UV-I 0 W/m 6,2 C 6,8 C 4,8 km/h (1 Bft) 100,00 %
27.10.2018 19:54 6,8 C 10,6 C 6,7 C 96 % 1008,1 hPa 0,0 l/m 2,8 km/h (1 Bft) NO 53 0 min 0,000 mm 0,0 UV-I 0 W/m 6,2 C 6,8 C 3,2 km/h (1 Bft) 100,00 %
27.10.2018 19:56 6,8 C 10,6 C 6,7 C 96 % 1008,1 hPa 0,0 l/m 2,8 km/h (1 Bft) NO 53 0 min 0,000 mm 0,0 UV-I 0 W/m 6,2 C 6,8 C 3,2 km/h (1 Bft) 100,00 %
27.10.2018 19:58 6,7 C 10,6 C 6,7 C 96 % 1008,1 hPa 0,0 l/m 2,4 km/h (1 Bft) NO 53 0 min 0,000 mm 0,0 UV-I 0 W/m 6,1 C 6,7 C 3,2 km/h (1 Bft) 93,62 %
27.10.2018 20:00 6,8 C 10,6 C 6,7 C 96 % 1008,1 hPa 0,0 l/m 2,7 km/h (1 Bft) NO 53 0 min 0,000 mm 0,0 UV-I 0 W/m 6,2 C 6,8 C 3,2 km/h (1 Bft) 100,00 %
27.10.2018 20:02 6,8 C 10,6 C 6,7 C 96 % 1008,0 hPa 0,2 l/m 3,0 km/h (1 Bft) NO 53 0 min 0,000 mm 0,0 UV-I 0 W/m 6,2 C 6,8 C 3,2 km/h (1 Bft) 100,00 %
27.10.2018 20:04 6,8 C 10,6 C 6,7 C 96 % 1007,9 hPa 0,0 l/m 3,9 km/h (1 Bft) NO 53 0 min 0,000 mm 0,0 UV-I 0 W/m 6,2 C 6,8 C 4,8 km/h (1 Bft) 100,00 %
27.10.2018 20:06 6,8 C 10,6 C 6,7 C 96 % 1007,9 hPa 0,0 l/m 3,9 km/h (1 Bft) O-NO 58 0 min 0,000 mm 0,0 UV-I 0 W/m 6,2 C 6,8 C 4,8 km/h (1 Bft) 98,00 %
27.10.2018 20:08 6,7 C 10,6 C 6,7 C 96 % 1007,9 hPa 0,0 l/m 4,0 km/h (1 Bft) O-NO 57 0 min 0,000 mm 0,0 UV-I 0 W/m 6,1 C 6,7 C 4,8 km/h (1 Bft) 96,00 %
27.10.2018 20:10 6,7 C 10,6 C 6,7 C 96 % 1008,0 hPa 0,0 l/m 2,6 km/h (1 Bft) O-NO 57 0 min 0,000 mm 0,0 UV-I 0 W/m 6,1 C 6,7 C 3,2 km/h (1 Bft) 97,87 %
27.10.2018 20:12 6,7 C 10,6 C 6,7 C 96 % 1008,0 hPa 0,0 l/m 2,3 km/h (1 Bft) O-NO 57 0 min 0,000 mm 0,0 UV-I 0 W/m 6,1 C 6,7 C 3,2 km/h (1 Bft) 98,00 %
27.10.2018 20:14 6,7 C 10,6 C 6,7 C 96 % 1007,9 hPa 0,0 l/m 3,1 km/h (1 Bft) O-NO 70 0 min 0,000 mm 0,0 UV-I 0 W/m 6,1 C 6,7 C 4,8 km/h (1 Bft) 97,37 %
27.10.2018 20:16 6,7 C 10,6 C 6,7 C 96 % 1007,8 hPa 0,2 l/m 3,6 km/h (1 Bft) O-NO 70 0 min 0,000 mm 0,0 UV-I 0 W/m 6,1 C 6,7 C 4,8 km/h (1 Bft) 95,74 %
27.10.2018 20:18 6,7 C 10,6 C 6,7 C 96 % 1007,8 hPa 0,0 l/m 3,0 km/h (1 Bft) O-NO 69 0 min 0,000 mm 0,0 UV-I 0 W/m 6,1 C 6,7 C 3,2 km/h (1 Bft) 98,00 %
27.10.2018 20:20 6,7 C 10,6 C 6,7 C 96 % 1007,7 hPa 0,0 l/m 3,5 km/h (1 Bft) O-NO 68 0 min 0,000 mm 0,0 UV-I 0 W/m 6,1 C 6,7 C 4,8 km/h (1 Bft) 95,12 %
27.10.2018 20:22 6,7 C 10,6 C 6,7 C 96 % 1007,8 hPa 0,0 l/m 3,2 km/h (1 Bft) O-NO 67 0 min 0,000 mm 0,0 UV-I 0 W/m 6,1 C 6,7 C 4,8 km/h (1 Bft) 94,34 %
27.10.2018 20:24 6,7 C 10,6 C 6,7 C 96 % 1007,8 hPa 0,0 l/m 3,8 km/h (1 Bft) NO 54 0 min 0,000 mm 0,0 UV-I 0 W/m 6,1 C 6,7 C 4,8 km/h (1 Bft) 95,74 %
27.10.2018 20:26 6,7 C 10,6 C 6,7 C 96 % 1007,8 hPa 0,0 l/m 3,8 km/h (1 Bft) NO 52 0 min 0,000 mm 0,0 UV-I 0 W/m 6,1 C 6,7 C 6,4 km/h (2 Bft) 96,00 %
27.10.2018 20:28 6,8 C 10,6 C 6,7 C 96 % 1007,8 hPa 0,0 l/m 4,1 km/h (1 Bft) O-NO 58 0 min 0,000 mm 0,0 UV-I 0 W/m 6,2 C 6,8 C 6,4 km/h (2 Bft) 94,87 %
27.10.2018 20:30 6,8 C 10,6 C 6,7 C 96 % 1007,7 hPa 0,0 l/m 4,4 km/h (1 Bft) O-NO 76 0 min 0,000 mm 0,0 UV-I 0 W/m 6,2 C 6,8 C 8,0 km/h (2 Bft) 94,00 %
27.10.2018 20:32 6,8 C 10,6 C 6,7 C 96 % 1007,8 hPa 0,0 l/m 5,2 km/h (1 Bft) O-NO 70 0 min 0,000 mm 0,0 UV-I 0 W/m 6,2 C 6,8 C 6,4 km/h (2 Bft) 95,74 %
27.10.2018 20:34 6,8 C 10,6 C 6,7 C 96 % 1007,8 hPa 0,0 l/m 4,8 km/h (1 Bft) O-NO 64 0 min 0,000 mm 0,0 UV-I 0 W/m 6,2 C 6,8 C 6,4 km/h (2 Bft) 89,47 %
27.10.2018 20:36 6,8 C 10,6 C 6,7 C 96 % 1007,8 hPa 0,2 l/m 4,0 km/h (1 Bft) O-NO 66 0 min 0,000 mm 0,0 UV-I 0 W/m 6,2 C 6,8 C 6,4 km/h (2 Bft) 94,64 %
27.10.2018 20:38 6,8 C 10,6 C 6,7 C 96 % 1007,8 hPa 0,0 l/m 5,2 km/h (1 Bft) O-NO 67 0 min 0,000 mm 0,0 UV-I 0 W/m 6,2 C 6,8 C 6,4 km/h (2 Bft) 96,00 %
27.10.2018 20:40 6,8 C 10,6 C 6,7 C 96 % 1007,7 hPa 0,0 l/m 4,6 km/h (1 Bft) O-NO 61 0 min 0,000 mm 0,0 UV-I 0 W/m 6,2 C 6,8 C 6,4 km/h (2 Bft) 97,56 %
27.10.2018 20:42 6,8 C 10,6 C 6,7 C 96 % 1007,7 hPa 0,0 l/m 4,2 km/h (1 Bft) NO 47 0 min 0,000 mm 0,0 UV-I 0 W/m 6,2 C 6,8 C 6,4 km/h (2 Bft) 97,87 %
27.10.2018 20:44 6,8 C 10,6 C 6,7 C 96 % 1007,6 hPa 0,0 l/m 6,8 km/h (2 Bft) NO 53 0 min 0,000 mm 0,0 UV-I 0 W/m 6,2 C 6,5 C 9,7 km/h (2 Bft) 95,74 %
27.10.2018 20:46 6,8 C 10,6 C 6,7 C 96 % 1007,6 hPa 0,0 l/m 6,2 km/h (2 Bft) NO 53 0 min 0,000 mm 0,0 UV-I 0 W/m 6,2 C 6,8 C 8,0 km/h (2 Bft) 96,23 %
27.10.2018 20:48 6,8 C 10,6 C 6,7 C 96 % 1007,6 hPa 0,0 l/m 6,0 km/h (2 Bft) NO 50 0 min 0,000 mm 0,0 UV-I 0 W/m 6,2 C 6,8 C 8,0 km/h (2 Bft) 97,37 %
27.10.2018 20:50 6,8 C 10,6 C 6,7 C 96 % 1007,6 hPa 0,0 l/m 6,2 km/h (2 Bft) NO 51 0 min 0,000 mm 0,0 UV-I 0 W/m 6,2 C 6,8 C 8,0 km/h (2 Bft) 97,87 %
27.10.2018 20:52 6,8 C 10,6 C 6,7 C 96 % 1007,6 hPa 0,0 l/m 7,4 km/h (2 Bft) NO 43 0 min 0,000 mm 0,0 UV-I 0 W/m 6,2 C 6,0 C 12,9 km/h (3 Bft) 94,00 %
27.10.2018 20:54 6,8 C 10,6 C 6,7 C 96 % 1007,6 hPa 0,0 l/m 5,8 km/h (2 Bft) NO 54 0 min 0,000 mm 0,0 UV-I 0 W/m 6,2 C 6,8 C 6,4 km/h (2 Bft) 97,56 %
27.10.2018 20:56 6,8 C 10,6 C 6,7 C 96 % 1007,6 hPa 0,0 l/m 4,4 km/h (1 Bft) NO 54 0 min 0,000 mm 0,0 UV-I 0 W/m 6,2 C 6,8 C 8,0 km/h (2 Bft) 98,11 %
27.10.2018 20:58 6,8 C 10,6 C 6,7 C 96 % 1007,7 hPa 0,0 l/m 5,6 km/h (1 Bft) O-NO 65 0 min 0,000 mm 0,0 UV-I 0 W/m 6,2 C 6,8 C 9,7 km/h (2 Bft) 98,00 %
27.10.2018 21:00 6,8 C 10,6 C 6,7 C 96 % 1007,7 hPa 0,0 l/m 5,8 km/h (2 Bft) O-NO 57 0 min 0,000 mm 0,0 UV-I 0 W/m 6,2 C 6,8 C 9,7 km/h (2 Bft) 96,00 %
27.10.2018 21:02 6,8 C 10,6 C 6,7 C 96 % 1007,7 hPa 0,0 l/m 5,6 km/h (1 Bft) O-NO 57 0 min 0,000 mm 0,0 UV-I 0 W/m 6,2 C 6,8 C 6,4 km/h (2 Bft) 95,74 %
27.10.2018 21:04 6,8 C 10,6 C 6,7 C 96 % 1007,7 hPa 0,0 l/m 7,1 km/h (2 Bft) NO 53 0 min 0,000 mm 0,0 UV-I 0 W/m 6,2 C 6,2 C 8,0 km/h (2 Bft) 100,00 %
27.10.2018 21:06 6,8 C 10,6 C 6,7 C 96 % 1007,8 hPa 0,0 l/m 6,9 km/h (2 Bft) NO 55 0 min 0,000 mm 0,0 UV-I 0 W/m 6,2 C 6,4 C 12,9 km/h (3 Bft) 94,23 %
27.10.2018 21:08 6,8 C 10,6 C 6,7 C 96 % 1007,8 hPa 0,2 l/m 6,1 km/h (2 Bft) NO 53 0 min 0,000 mm 0,0 UV-I 0 W/m 6,2 C 6,8 C 8,0 km/h (2 Bft) 97,87 %
27.10.2018 21:10 6,9 C 10,6 C 6,7 C 96 % 1007,8 hPa 0,0 l/m 6,1 km/h (2 Bft) NO 53 0 min 0,000 mm 0,0 UV-I 0 W/m 6,3 C 6,9 C 8,0 km/h (2 Bft) 97,62 %
27.10.2018 21:12 6,8 C 10,6 C 6,7 C 96 % 1007,8 hPa 0,0 l/m 4,9 km/h (1 Bft) NO 50 0 min 0,000 mm 0,0 UV-I 0 W/m 6,2 C 6,8 C 8,0 km/h (2 Bft) 97,87 %
27.10.2018 21:14 6,8 C 10,6 C 6,7 C 96 % 1007,7 hPa 0,0 l/m 5,9 km/h (2 Bft) O 89 0 min 0,000 mm 0,0 UV-I 0 W/m 6,2 C 6,8 C 8,0 km/h (2 Bft) 94,00 %
27.10.2018 21:16 6,8 C 10,6 C 6,7 C 96 % 1007,8 hPa 0,0 l/m 5,0 km/h (1 Bft) O 85 0 min 0,000 mm 0,0 UV-I 0 W/m 6,2 C 6,8 C 8,0 km/h (2 Bft) 93,62 %
27.10.2018 21:18 6,8 C 10,6 C 6,7 C 96 % 1007,8 hPa 0,0 l/m 6,4 km/h (2 Bft) O 82 0 min 0,000 mm 0,0 UV-I 0 W/m 6,2 C 6,8 C 11,3 km/h (2 Bft) 93,62 %
27.10.2018 21:20 6,8 C 10,6 C 6,7 C 96 % 1007,8 hPa 0,2 l/m 6,4 km/h (2 Bft) O-NO 58 0 min 0,000 mm 0,0 UV-I 0 W/m 6,2 C 6,8 C 8,0 km/h (2 Bft) 96,00 %
27.10.2018 21:22 6,8 C 10,6 C 6,7 C 96 % 1007,8 hPa 0,0 l/m 5,8 km/h (2 Bft) O 86 0 min 0,000 mm 0,0 UV-I 0 W/m 6,2 C 6,8 C 8,0 km/h (2 Bft) 88,64 %
27.10.2018 21:24 6,8 C 10,6 C 6,7 C 96 % 1007,8 hPa 0,0 l/m 6,0 km/h (2 Bft) O 80 0 min 0,000 mm 0,0 UV-I 0 W/m 6,2 C 6,8 C 8,0 km/h (2 Bft) 94,00 %
27.10.2018 21:26 6,8 C 10,6 C 6,7 C 96 % 1007,8 hPa 0,0 l/m 7,1 km/h (2 Bft) O-NO 69 0 min 0,000 mm 0,0 UV-I 0 W/m 6,2 C 6,2 C 9,7 km/h (2 Bft) 94,00 %
27.10.2018 21:28 6,8 C 10,6 C 6,7 C 96 % 1007,8 hPa 0,0 l/m 6,8 km/h (2 Bft) O-NO 76 0 min 0,000 mm 0,0 UV-I 0 W/m 6,2 C 6,5 C 11,3 km/h (2 Bft) 94,29 %
27.10.2018 21:30 6,8 C 10,6 C 6,7 C 96 % 1007,8 hPa 0,0 l/m 6,9 km/h (2 Bft) O-NO 71 0 min 0,000 mm 0,0 UV-I 0 W/m 6,2 C 6,4 C 11,3 km/h (2 Bft) 92,86 %
27.10.2018 21:32 6,8 C 10,6 C 6,7 C 96 % 1007,8 hPa 0,2 l/m 6,1 km/h (2 Bft) NO 56 0 min 0,000 mm 0,0 UV-I 0 W/m 6,2 C 6,8 C 8,0 km/h (2 Bft) 91,49 %
27.10.2018 21:34 6,8 C 10,6 C 6,7 C 96 % 1007,8 hPa 0,0 l/m 6,0 km/h (2 Bft) O 83 0 min 0,000 mm 0,0 UV-I 0 W/m 6,2 C 6,8 C 8,0 km/h (2 Bft) 95,12 %
27.10.2018 21:36 6,8 C 10,6 C 6,7 C 96 % 1007,9 hPa 0,0 l/m 6,2 km/h (2 Bft) O-NO 69 0 min 0,000 mm 0,0 UV-I 0 W/m 6,2 C 6,8 C 8,0 km/h (2 Bft) 95,74 %
27.10.2018 21:38 6,8 C 10,6 C 6,7 C 96 % 1007,9 hPa 0,0 l/m 6,3 km/h (2 Bft) O-NO 78 0 min 0,000 mm 0,0 UV-I 0 W/m 6,2 C 6,8 C 9,7 km/h (2 Bft) 94,00 %
27.10.2018 21:40 6,8 C 10,6 C 6,7 C 96 % 1007,8 hPa 0,0 l/m 6,4 km/h (2 Bft) O-NO 73 0 min 0,000 mm 0,0 UV-I 0 W/m 6,2 C 6,8 C 8,0 km/h (2 Bft) 95,74 %
27.10.2018 21:42 6,8 C 10,6 C 6,7 C 96 % 1007,7 hPa 0,2 l/m 7,0 km/h (2 Bft) O-NO 59 0 min 0,000 mm 0,0 UV-I 0 W/m 6,2 C 6,3 C 9,7 km/h (2 Bft) 96,00 %
27.10.2018 21:44 6,8 C 10,6 C 6,7 C 97 % 1007,7 hPa 0,0 l/m 7,8 km/h (2 Bft) O 79 0 min 0,000 mm 0,0 UV-I 0 W/m 6,4 C 5,6 C 12,9 km/h (3 Bft) 95,45 %
27.10.2018 21:46 6,7 C 10,6 C 6,7 C 97 % 1007,7 hPa 0,0 l/m 5,2 km/h (1 Bft) NO 54 0 min 0,000 mm 0,0 UV-I 0 W/m 6,3 C 6,7 C 8,0 km/h (2 Bft) 95,74 %
27.10.2018 21:48 6,7 C 10,6 C 6,7 C 96 % 1007,8 hPa 0,0 l/m 5,3 km/h (1 Bft) O-NO 75 0 min 0,000 mm 0,0 UV-I 0 W/m 6,1 C 6,7 C 6,4 km/h (2 Bft) 96,00 %
27.10.2018 21:50 6,7 C 10,6 C 6,7 C 96 % 1007,8 hPa 0,0 l/m 5,1 km/h (1 Bft) NO 51 0 min 0,000 mm 0,0 UV-I 0 W/m 6,1 C 6,7 C 8,0 km/h (2 Bft) 100,00 %
27.10.2018 21:52 6,7 C 10,6 C 6,7 C 97 % 1007,7 hPa 0,0 l/m 5,4 km/h (1 Bft) O-NO 78 0 min 0,000 mm 0,0 UV-I 0 W/m 6,3 C 6,7 C 8,0 km/h (2 Bft) 97,87 %
27.10.2018 21:54 6,7 C 10,6 C 6,7 C 96 % 1007,7 hPa 0,0 l/m 4,7 km/h (1 Bft) O-NO 59 0 min 0,000 mm 0,0 UV-I 0 W/m 6,1 C 6,7 C 8,0 km/h (2 Bft) 100,00 %
27.10.2018 21:56 6,7 C 10,6 C 6,7 C 96 % 1007,8 hPa 0,0 l/m 7,1 km/h (2 Bft) O-NO 71 0 min 0,000 mm 0,0 UV-I 0 W/m 6,1 C 6,1 C 11,3 km/h (2 Bft) 95,45 %
27.10.2018 21:58 6,7 C 10,6 C 6,7 C 96 % 1007,9 hPa 0,0 l/m 5,3 km/h (1 Bft) O-NO 72 0 min 0,000 mm 0,0 UV-I 0 W/m 6,1 C 6,7 C 8,0 km/h (2 Bft) 100,00 %
27.10.2018 22:00 6,7 C 10,6 C 6,7 C 96 % 1007,9 hPa 0,0 l/m 5,6 km/h (1 Bft) O 86 0 min 0,000 mm 0,0 UV-I 0 W/m 6,1 C 6,7 C 8,0 km/h (2 Bft) 100,00 %
27.10.2018 22:02 6,7 C 10,6 C 6,7 C 96 % 1007,9 hPa 0,2 l/m 6,7 km/h (2 Bft) O-NO 67 0 min 0,000 mm 0,0 UV-I 0 W/m 6,1 C 6,5 C 9,7 km/h (2 Bft) 100,00 %
27.10.2018 22:04 6,7 C 10,6 C 6,7 C 96 % 1007,8 hPa 0,0 l/m 5,8 km/h (2 Bft) O-NO 61 0 min 0,000 mm 0,0 UV-I 0 W/m 6,1 C 6,7 C 8,0 km/h (2 Bft) 100,00 %
27.10.2018 22:06 6,6 C 10,6 C 6,7 C 96 % 1007,8 hPa 0,0 l/m 7,4 km/h (2 Bft) O 82 0 min 0,000 mm 0,0 UV-I 0 W/m 6,0 C 5,8 C 11,3 km/h (2 Bft) 100,00 %
27.10.2018 22:08 6,6 C 10,6 C 6,7 C 96 % 1007,8 hPa 0,0 l/m 6,9 km/h (2 Bft) O-NO 68 0 min 0,000 mm 0,0 UV-I 0 W/m 6,0 C 6,2 C 8,0 km/h (2 Bft) 100,00 %
27.10.2018 22:10 6,6 C 10,6 C 6,7 C 96 % 1007,8 hPa 0,0 l/m 5,6 km/h (1 Bft) NO 51 0 min 0,000 mm 0,0 UV-I 0 W/m 6,0 C 6,6 C 8,0 km/h (2 Bft) 98,11 %
27.10.2018 22:12 6,6 C 10,6 C 6,7 C 96 % 1007,7 hPa 0,0 l/m 6,7 km/h (2 Bft) NO 47 0 min 0,000 mm 0,0 UV-I 0 W/m 6,0 C 6,4 C 11,3 km/h (2 Bft) 100,00 %
27.10.2018 22:14 6,6 C 10,6 C 6,7 C 96 % 1007,6 hPa 0,0 l/m 8,1 km/h (2 Bft) O 89 0 min 0,000 mm 0,0 UV-I 0 W/m 6,0 C 5,2 C 11,3 km/h (2 Bft) 100,00 %
27.10.2018 22:16 6,6 C 10,6 C 6,7 C 96 % 1007,6 hPa 0,0 l/m 9,4 km/h (2 Bft) NO 44 0 min 0,000 mm 0,0 UV-I 0 W/m 6,0 C 4,2 C 14,5 km/h (3 Bft) 100,00 %
27.10.2018 22:18 6,6 C 10,6 C 6,7 C 96 % 1007,6 hPa 0,0 l/m 8,4 km/h (2 Bft) O-NO 63 0 min 0,000 mm 0,0 UV-I 0 W/m 6,0 C 5,0 C 12,9 km/h (3 Bft) 97,37 %
27.10.2018 22:20 6,6 C 10,6 C 6,7 C 96 % 1007,6 hPa 0,0 l/m 7,2 km/h (2 Bft) NO 51 0 min 0,000 mm 0,0 UV-I 0 W/m 6,0 C 5,9 C 9,7 km/h (2 Bft) 100,00 %
27.10.2018 22:22 6,6 C 10,6 C 6,7 C 96 % 1007,7 hPa 0,0 l/m 7,1 km/h (2 Bft) O 90 0 min 0,000 mm 0,0 UV-I 0 W/m 6,0 C 6,0 C 12,9 km/h (3 Bft) 97,56 %
27.10.2018 22:24 6,6 C 10,6 C 6,7 C 96 % 1007,7 hPa 0,2 l/m 8,6 km/h (2 Bft) NO 56 0 min 0,000 mm 0,0 UV-I 0 W/m 6,0 C 4,8 C 14,5 km/h (3 Bft) 100,00 %
27.10.2018 22:26 6,6 C 10,6 C 6,7 C 96 % 1007,6 hPa 0,0 l/m 8,3 km/h (2 Bft) O-NO 67 0 min 0,000 mm 0,0 UV-I 0 W/m 6,0 C 5,1 C 12,9 km/h (3 Bft) 100,00 %
27.10.2018 22:28 6,6 C 10,6 C 6,7 C 96 % 1007,6 hPa 0,0 l/m 8,2 km/h (2 Bft) NO 39 0 min 0,000 mm 0,0 UV-I 0 W/m 6,0 C 5,1 C 11,3 km/h (2 Bft) 100,00 %
27.10.2018 22:30 6,6 C 10,6 C 6,7 C 96 % 1007,5 hPa 0,0 l/m 8,3 km/h (2 Bft) NO 40 0 min 0,000 mm 0,0 UV-I 0 W/m 6,0 C 5,1 C 11,3 km/h (2 Bft) 100,00 %
27.10.2018 22:32 6,6 C 10,6 C 6,7 C 96 % 1007,5 hPa 0,0 l/m 7,9 km/h (2 Bft) O-NO 63 0 min 0,000 mm 0,0 UV-I 0 W/m 6,0 C 5,4 C 11,3 km/h (2 Bft) 97,87 %
27.10.2018 22:34 6,6 C 10,6 C 6,7 C 96 % 1007,4 hPa 0,0 l/m 9,7 km/h (2 Bft) O-NO 57 0 min 0,000 mm 0,0 UV-I 0 W/m 6,0 C 4,0 C 16,1 km/h (3 Bft) 97,37 %
27.10.2018 22:36 6,6 C 10,6 C 6,7 C 96 % 1007,5 hPa 0,0 l/m 7,6 km/h (2 Bft) NO 49 0 min 0,000 mm 0,0 UV-I 0 W/m 6,0 C 5,6 C 12,9 km/h (3 Bft) 100,00 %
27.10.2018 22:38 6,6 C 10,6 C 6,7 C 96 % 1007,5 hPa 0,0 l/m 5,5 km/h (1 Bft) NO 42 0 min 0,000 mm 0,0 UV-I 0 W/m 6,0 C 6,6 C 9,7 km/h (2 Bft) 100,00 %
27.10.2018 22:40 6,6 C 10,6 C 6,7 C 96 % 1007,5 hPa 0,0 l/m 6,5 km/h (2 Bft) NO 54 0 min 0,000 mm 0,0 UV-I 0 W/m 6,0 C 6,5 C 11,3 km/h (2 Bft) 100,00 %
27.10.2018 22:42 6,6 C 10,6 C 6,7 C 96 % 1007,5 hPa 0,0 l/m 9,8 km/h (2 Bft) O-NO 61 0 min 0,000 mm 0,0 UV-I 0 W/m 6,0 C 4,0 C 14,5 km/h (3 Bft) 100,00 %
27.10.2018 22:44 6,6 C 10,6 C 6,7 C 96 % 1007,5 hPa 0,0 l/m 9,4 km/h (2 Bft) NO 43 0 min 0,000 mm 0,0 UV-I 0 W/m 6,0 C 4,2 C 16,1 km/h (3 Bft) 97,56 %
27.10.2018 22:46 6,6 C 10,6 C 6,7 C 96 % 1007,5 hPa 0,0 l/m 7,9 km/h (2 Bft) N-NO 32 0 min 0,000 mm 0,0 UV-I 0 W/m 6,0 C 5,4 C 9,7 km/h (2 Bft) 100,00 %
27.10.2018 22:48 6,6 C 10,6 C 6,7 C 96 % 1007,6 hPa 0,0 l/m 7,0 km/h (2 Bft) O-NO 57 0 min 0,000 mm 0,0 UV-I 0 W/m 6,0 C 6,1 C 9,7 km/h (2 Bft) 98,00 %
27.10.2018 22:50 6,6 C 10,6 C 6,7 C 96 % 1007,5 hPa 0,0 l/m 7,0 km/h (2 Bft) NO 44 0 min 0,000 mm 0,0 UV-I 0 W/m 6,0 C 6,1 C 9,7 km/h (2 Bft) 97,37 %
27.10.2018 22:52 6,6 C 10,6 C 6,7 C 96 % 1007,5 hPa 0,0 l/m 10,0 km/h (2 Bft) NO 55 0 min 0,000 mm 0,0 UV-I 0 W/m 6,0 C 3,8 C 16,1 km/h (3 Bft) 98,00 %
27.10.2018 22:54 6,6 C 10,6 C 6,7 C 96 % 1007,6 hPa 0,0 l/m 9,4 km/h (2 Bft) NO 36 0 min 0,000 mm 0,0 UV-I 0 W/m 6,0 C 4,2 C 19,3 km/h (3 Bft) 96,00 %
27.10.2018 22:56 6,5 C 10,6 C 6,7 C 96 % 1007,6 hPa 0,0 l/m 10,4 km/h (2 Bft) NO 45 0 min 0,000 mm 0,0 UV-I 0 W/m 5,9 C 3,5 C 14,5 km/h (3 Bft) 97,87 %
27.10.2018 22:58 6,5 C 10,6 C 6,7 C 96 % 1007,6 hPa 0,0 l/m 9,0 km/h (2 Bft) O-NO 59 0 min 0,000 mm 0,0 UV-I 0 W/m 5,9 C 4,4 C 12,9 km/h (3 Bft) 92,68 %
27.10.2018 23:00 6,5 C 10,6 C 6,7 C 96 % 1007,6 hPa 0,0 l/m 9,9 km/h (2 Bft) N-NO 17 0 min 0,000 mm 0,0 UV-I 0 W/m 5,9 C 3,8 C 12,9 km/h (3 Bft) 97,62 %
27.10.2018 23:02 6,5 C 10,6 C 6,7 C 96 % 1007,5 hPa 0,0 l/m 10,4 km/h (2 Bft) N-NO 24 0 min 0,000 mm 0,0 UV-I 0 W/m 5,9 C 3,5 C 14,5 km/h (3 Bft) 98,18 %
27.10.2018 23:04 6,5 C 10,6 C 6,7 C 96 % 1007,5 hPa 0,0 l/m 8,9 km/h (2 Bft) O-NO 58 0 min 0,000 mm 0,0 UV-I 0 W/m 5,9 C 4,5 C 12,9 km/h (3 Bft) 97,62 %
27.10.2018 23:06 6,5 C 10,6 C 6,7 C 96 % 1007,4 hPa 0,0 l/m 12,2 km/h (2 Bft) NO 37 0 min 0,000 mm 0,0 UV-I 0 W/m 5,9 C 2,4 C 16,1 km/h (3 Bft) 97,87 %
27.10.2018 23:08 6,5 C 10,6 C 6,7 C 96 % 1007,3 hPa 0,0 l/m 12,5 km/h (3 Bft) NO 50 0 min 0,000 mm 0,0 UV-I 0 W/m 5,9 C 2,2 C 16,1 km/h (3 Bft) 98,11 %
27.10.2018 23:10 6,5 C 10,6 C 6,7 C 96 % 1007,4 hPa 0,0 l/m 10,0 km/h (2 Bft) N-NO 26 0 min 0,000 mm 0,0 UV-I 0 W/m 5,9 C 3,7 C 14,5 km/h (3 Bft) 97,56 %
27.10.2018 23:12 6,4 C 10,6 C 6,7 C 96 % 1007,5 hPa 0,2 l/m 12,2 km/h (2 Bft) NO 38 0 min 0,000 mm 0,0 UV-I 0 W/m 5,8 C 2,3 C 17,7 km/h (3 Bft) 100,00 %
27.10.2018 23:14 6,5 C 10,6 C 6,7 C 96 % 1007,5 hPa 0,0 l/m 11,2 km/h (2 Bft) N-NO 30 0 min 0,000 mm 0,0 UV-I 0 W/m 5,9 C 3,0 C 17,7 km/h (3 Bft) 100,00 %
27.10.2018 23:16 6,5 C 10,6 C 6,7 C 96 % 1007,4 hPa 0,0 l/m 10,5 km/h (2 Bft) NO 37 0 min 0,000 mm 0,0 UV-I 0 W/m 5,9 C 3,4 C 14,5 km/h (3 Bft) 95,74 %
27.10.2018 23:18 6,5 C 10,6 C 6,7 C 96 % 1007,4 hPa 0,0 l/m 13,7 km/h (3 Bft) N-NO 30 0 min 0,000 mm 0,0 UV-I 0 W/m 5,9 C 1,5 C 17,7 km/h (3 Bft) 97,87 %
27.10.2018 23:20 6,5 C 10,6 C 6,7 C 96 % 1007,4 hPa 0,0 l/m 9,9 km/h (2 Bft) NO 44 0 min 0,000 mm 0,0 UV-I 0 W/m 5,9 C 3,8 C 14,5 km/h (3 Bft) 94,00 %
27.10.2018 23:22 6,4 C 10,6 C 6,7 C 96 % 1007,4 hPa 0,0 l/m 13,1 km/h (3 Bft) N-NO 30 0 min 0,000 mm 0,0 UV-I 0 W/m 5,8 C 1,7 C 17,7 km/h (3 Bft) 94,00 %
27.10.2018 23:24 6,4 C 10,6 C 6,7 C 96 % 1007,4 hPa 0,0 l/m 9,0 km/h (2 Bft) N-NO 33 0 min 0,000 mm 0,0 UV-I 0 W/m 5,8 C 4,3 C 14,5 km/h (3 Bft) 92,68 %
27.10.2018 23:26 6,5 C 10,6 C 6,7 C 96 % 1007,4 hPa 0,0 l/m 11,0 km/h (2 Bft) O-NO 57 0 min 0,000 mm 0,0 UV-I 0 W/m 5,9 C 3,1 C 16,1 km/h (3 Bft) 97,73 %
27.10.2018 23:28 6,5 C 10,6 C 6,7 C 96 % 1007,3 hPa 0,0 l/m 10,0 km/h (2 Bft) O-NO 63 0 min 0,000 mm 0,0 UV-I 0 W/m 5,9 C 3,7 C 14,5 km/h (3 Bft) 98,11 %
27.10.2018 23:30 6,5 C 10,6 C 6,7 C 96 % 1007,2 hPa 0,0 l/m 10,2 km/h (2 Bft) NO 44 0 min 0,000 mm 0,0 UV-I 0 W/m 5,9 C 3,6 C 14,5 km/h (3 Bft) 94,74 %
27.10.2018 23:32 6,4 C 10,6 C 6,7 C 96 % 1007,1 hPa 0,2 l/m 16,0 km/h (3 Bft) NO 34 0 min 0,000 mm 0,0 UV-I 0 W/m 5,8 C 0,3 C 19,3 km/h (3 Bft) 98,00 %
27.10.2018 23:34 6,4 C 10,6 C 6,7 C 96 % 1006,9 hPa 0,0 l/m 11,9 km/h (2 Bft) O-NO 69 0 min 0,000 mm 0,0 UV-I 0 W/m 5,8 C 2,4 C 16,1 km/h (3 Bft) 98,11 %
27.10.2018 23:36 6,4 C 10,6 C 6,7 C 96 % 1006,9 hPa 0,0 l/m 12,4 km/h (3 Bft) NO 34 0 min 0,000 mm 0,0 UV-I 0 W/m 5,8 C 2,1 C 17,7 km/h (3 Bft) 96,00 %
27.10.2018 23:38 6,4 C 10,6 C 6,7 C 96 % 1006,9 hPa 0,0 l/m 10,8 km/h (2 Bft) NO 49 0 min 0,000 mm 0,0 UV-I 0 W/m 5,8 C 3,1 C 16,1 km/h (3 Bft) 100,00 %
27.10.2018 23:40 6,4 C 10,6 C 6,7 C 96 % 1006,8 hPa 0,0 l/m 13,2 km/h (3 Bft) NO 34 0 min 0,000 mm 0,0 UV-I 0 W/m 5,8 C 1,7 C 19,3 km/h (3 Bft) 96,15 %
27.10.2018 23:42 6,4 C 10,6 C 6,7 C 96 % 1006,8 hPa 0,2 l/m 8,6 km/h (2 Bft) N-NO 31 0 min 0,000 mm 0,0 UV-I 0 W/m 5,8 C 4,6 C 17,7 km/h (3 Bft) 98,00 %
27.10.2018 23:44 6,4 C 10,6 C 6,7 C 96 % 1006,9 hPa 0,0 l/m 13,3 km/h (3 Bft) N-NO 26 0 min 0,000 mm 0,0 UV-I 0 W/m 5,8 C 1,6 C 17,7 km/h (3 Bft) 93,33 %
27.10.2018 23:46 6,4 C 10,6 C 6,7 C 96 % 1006,9 hPa 0,0 l/m 9,4 km/h (2 Bft) NO 48 0 min 0,000 mm 0,0 UV-I 0 W/m 5,8 C 4,0 C 12,9 km/h (3 Bft) 96,23 %
27.10.2018 23:48 6,4 C 10,6 C 6,7 C 96 % 1007,0 hPa 0,0 l/m 12,6 km/h (3 Bft) N-NO 27 0 min 0,000 mm 0,0 UV-I 0 W/m 5,8 C 2,0 C 16,1 km/h (3 Bft) 97,37 %
27.10.2018 23:50 6,4 C 10,6 C 6,1 C 96 % 1007,0 hPa 0,0 l/m 13,0 km/h (3 Bft) O-NO 62 0 min 0,000 mm 0,0 UV-I 0 W/m 5,8 C 1,8 C 17,7 km/h (3 Bft) 98,00 %
27.10.2018 23:52 6,4 C 10,6 C 6,1 C 96 % 1007,0 hPa 0,0 l/m 8,8 km/h (2 Bft) N-NO 22 0 min 0,000 mm 0,0 UV-I 0 W/m 5,8 C 4,5 C 12,9 km/h (3 Bft) 97,87 %
27.10.2018 23:54 6,3 C 10,6 C 6,1 C 96 % 1006,9 hPa 0,0 l/m 11,1 km/h (2 Bft) NO 47 0 min 0,000 mm 0,0 UV-I 0 W/m 5,7 C 2,8 C 17,7 km/h (3 Bft) 100,00 %
27.10.2018 23:56 6,3 C 10,6 C 6,1 C 96 % 1007,0 hPa 0,0 l/m 10,0 km/h (2 Bft) N-NO 28 0 min 0,000 mm 0,0 UV-I 0 W/m 5,7 C 3,5 C 14,5 km/h (3 Bft) 98,11 %
27.10.2018 23:58 6,3 C 10,6 C 6,1 C 96 % 1007,0 hPa 0,0 l/m 13,6 km/h (3 Bft) NO 35 0 min 0,000 mm 0,0 UV-I 0 W/m 5,7 C 1,4 C 19,3 km/h (3 Bft) 100,00 %
_ Min-Zeit 00:56 05:22 00:00 06:12 01:58 - 00:20 - - - - - - 00:52 23:32 00:20 09:12
Minimum _ 4,7 C 10,6 C 0,6 C 87 % 1005,2 hPa - 0,0 km/h (0 Bft) - - - - - - 4,1 C 0,3 C 0,0 km/h (0 Bft) 87,50 %
_ Max-Zeit 13:44 00:00 13:52 21:44 19:40 11:20 23:32 - - 00:00 15:00 13:42 13:48 13:38 13:50 05:54 00:02
Maximum _ 8,3 C 11,1 C 10,6 C 97 % 1008,4 hPa 0,2 l/m 16,0 km/h
NO (3 Bft)
- - 0 min 0,051 mm 0,6 UV-I 162 W/m 7,3 C 8,3 C 20,9 km/h
SW (4 Bft)
100,00 %
Durchschnitt _ 7,2 C 10,7 C 6,7 C 93 % 1007,0 hPa #9,4 l/m 4,8 km/h (1 Bft) NO - #0 min. #0,229 mm 0,5 UV-I 49 W/m 6,1 C 6,7 C 7,4 km/h (2 Bft) 97,13 %